<?xml version='1.0' encoding='UTF-8'?><gpx version="1.1" creator="JPX - https://github.com/jenetics/jpx" xmlns="http://www.topografix.com/GPX/1/1"><trk><trkseg><trkpt lat="45.6317516" lon="11.5449821"><ele>51.0</ele><time>2026-04-11T13:27:28.644Z</time></trkpt><trkpt lat="45.6317635" lon="11.5450815"><ele>51.0</ele><time>2026-04-11T13:27:32.645Z</time></trkpt><trkpt lat="45.6317693" lon="11.5451807"><ele>51.0</ele><time>2026-04-11T13:27:36.629Z</time></trkpt><trkpt lat="45.6317692" lon="11.5452824"><ele>51.0</ele><time>2026-04-11T13:27:42.627Z</time></trkpt><trkpt lat="45.6316948" lon="11.5452905"><ele>51.0</ele><time>2026-04-11T13:29:29.625Z</time></trkpt><trkpt lat="45.6316128" lon="11.5452503"><ele>51.0</ele><time>2026-04-11T13:29:34.624Z</time></trkpt><trkpt lat="45.631542" lon="11.5452309"><ele>51.0</ele><time>2026-04-11T13:29:37.645Z</time></trkpt><trkpt lat="45.6314768" lon="11.5452299"><ele>51.0</ele><time>2026-04-11T13:29:40.622Z</time></trkpt><trkpt lat="45.6314146" lon="11.5451197"><ele>51.0</ele><time>2026-04-11T13:29:44.644Z</time></trkpt><trkpt lat="45.6314045" lon="11.5450126"><ele>51.0</ele><time>2026-04-11T13:29:47.644Z</time></trkpt><trkpt lat="45.631439" lon="11.5448966"><ele>51.0</ele><time>2026-04-11T13:29:50.621Z</time></trkpt><trkpt lat="45.6314853" lon="11.5447705"><ele>51.0</ele><time>2026-04-11T13:29:53.621Z</time></trkpt><trkpt lat="45.6315054" lon="11.5446471"><ele>50.833333333333336</ele><time>2026-04-11T13:29:56.624Z</time></trkpt><trkpt lat="45.6315113" lon="11.5445197"><ele>50.66666666666667</ele><time>2026-04-11T13:29:59.645Z</time></trkpt><trkpt lat="45.6315096" lon="11.5444148"><ele>50.5</ele><time>2026-04-11T13:30:02.614Z</time></trkpt><trkpt lat="45.6315198" lon="11.544314"><ele>50.333333333333336</ele><time>2026-04-11T13:30:05.622Z</time></trkpt><trkpt lat="45.6315295" lon="11.5442248"><ele>50.16666666666667</ele><time>2026-04-11T13:30:07.62Z</time></trkpt><trkpt lat="45.6315374" lon="11.5440971"><ele>50.0</ele><time>2026-04-11T13:30:10.621Z</time></trkpt><trkpt lat="45.6315438" lon="11.5439727"><ele>50.00000000000001</ele><time>2026-04-11T13:30:13.621Z</time></trkpt><trkpt lat="45.6315163" lon="11.5438841"><ele>50.0</ele><time>2026-04-11T13:30:16.622Z</time></trkpt><trkpt lat="45.6314994" lon="11.543793"><ele>50.0</ele><time>2026-04-11T13:30:19.622Z</time></trkpt><trkpt lat="45.6314959" lon="11.5436824"><ele>50.0</ele><time>2026-04-11T13:30:22.621Z</time></trkpt><trkpt lat="45.6314974" lon="11.5435561"><ele>50.00000000000001</ele><time>2026-04-11T13:30:25.619Z</time></trkpt><trkpt lat="45.6314902" lon="11.5434388"><ele>50.0</ele><time>2026-04-11T13:30:28.62Z</time></trkpt><trkpt lat="45.6314892" lon="11.5433292"><ele>50.00000000000001</ele><time>2026-04-11T13:30:31.62Z</time></trkpt><trkpt lat="45.6314792" lon="11.5432181"><ele>50.0</ele><time>2026-04-11T13:30:34.62Z</time></trkpt><trkpt lat="45.6314646" lon="11.5430999"><ele>50.0</ele><time>2026-04-11T13:30:37.62Z</time></trkpt><trkpt lat="45.6314548" lon="11.5429781"><ele>50.0</ele><time>2026-04-11T13:30:40.619Z</time></trkpt><trkpt lat="45.6314486" lon="11.5428447"><ele>50.00000000000001</ele><time>2026-04-11T13:30:43.623Z</time></trkpt><trkpt lat="45.631438" lon="11.5427492"><ele>50.0</ele><time>2026-04-11T13:30:45.62Z</time></trkpt><trkpt lat="45.6314339" lon="11.5426552"><ele>50.00000000000001</ele><time>2026-04-11T13:30:47.62Z</time></trkpt><trkpt lat="45.6314153" lon="11.5425281"><ele>50.0</ele><time>2026-04-11T13:30:50.62Z</time></trkpt><trkpt lat="45.6313929" lon="11.5423985"><ele>50.0</ele><time>2026-04-11T13:30:53.621Z</time></trkpt><trkpt lat="45.6313875" lon="11.5423021"><ele>50.0</ele><time>2026-04-11T13:30:55.62Z</time></trkpt><trkpt lat="45.6313815" lon="11.5422032"><ele>50.00000000000001</ele><time>2026-04-11T13:30:57.62Z</time></trkpt><trkpt lat="45.6313814" lon="11.5421033"><ele>50.0</ele><time>2026-04-11T13:30:59.621Z</time></trkpt><trkpt lat="45.6313773" lon="11.5420045"><ele>50.00000000000001</ele><time>2026-04-11T13:31:01.619Z</time></trkpt><trkpt lat="45.6313741" lon="11.5419035"><ele>50.0</ele><time>2026-04-11T13:31:03.62Z</time></trkpt><trkpt lat="45.6313689" lon="11.5418063"><ele>50.0</ele><time>2026-04-11T13:31:05.619Z</time></trkpt><trkpt lat="45.6313665" lon="11.5417083"><ele>50.0</ele><time>2026-04-11T13:31:07.62Z</time></trkpt><trkpt lat="45.631367" lon="11.5416118"><ele>50.0</ele><time>2026-04-11T13:31:09.62Z</time></trkpt><trkpt lat="45.6313676" lon="11.5415119"><ele>50.00000000000001</ele><time>2026-04-11T13:31:11.62Z</time></trkpt><trkpt lat="45.6313652" lon="11.5414182"><ele>50.0</ele><time>2026-04-11T13:31:13.623Z</time></trkpt><trkpt lat="45.6313545" lon="11.5412998"><ele>50.142857142857146</ele><time>2026-04-11T13:31:16.621Z</time></trkpt><trkpt lat="45.6313409" lon="11.541189"><ele>50.285714285714285</ele><time>2026-04-11T13:31:19.623Z</time></trkpt><trkpt lat="45.6313342" lon="11.5410871"><ele>50.42857142857143</ele><time>2026-04-11T13:31:22.62Z</time></trkpt><trkpt lat="45.6313315" lon="11.5409697"><ele>50.57142857142857</ele><time>2026-04-11T13:31:25.623Z</time></trkpt><trkpt lat="45.6313215" lon="11.5408747"><ele>50.714285714285715</ele><time>2026-04-11T13:31:27.616Z</time></trkpt><trkpt lat="45.631317" lon="11.540765"><ele>50.85714285714286</ele><time>2026-04-11T13:31:29.621Z</time></trkpt><trkpt lat="45.6313075" lon="11.5406678"><ele>51.0</ele><time>2026-04-11T13:31:31.621Z</time></trkpt><trkpt lat="45.6312993" lon="11.5405785"><ele>51.0</ele><time>2026-04-11T13:31:33.62Z</time></trkpt><trkpt lat="45.6312864" lon="11.5404557"><ele>51.0</ele><time>2026-04-11T13:31:36.619Z</time></trkpt><trkpt lat="45.6312777" lon="11.5403284"><ele>51.0</ele><time>2026-04-11T13:31:39.622Z</time></trkpt><trkpt lat="45.6312712" lon="11.5401961"><ele>51.0</ele><time>2026-04-11T13:31:42.619Z</time></trkpt><trkpt lat="45.631277" lon="11.5400752"><ele>51.0</ele><time>2026-04-11T13:31:45.622Z</time></trkpt><trkpt lat="45.6312821" lon="11.5399539"><ele>51.0</ele><time>2026-04-11T13:31:48.622Z</time></trkpt><trkpt lat="45.6312889" lon="11.5398309"><ele>51.166666666666664</ele><time>2026-04-11T13:31:51.62Z</time></trkpt><trkpt lat="45.6313044" lon="11.5397209"><ele>51.33333333333333</ele><time>2026-04-11T13:31:54.62Z</time></trkpt><trkpt lat="45.6313203" lon="11.5395989"><ele>51.5</ele><time>2026-04-11T13:31:57.62Z</time></trkpt><trkpt lat="45.6313441" lon="11.5394731"><ele>51.666666666666664</ele><time>2026-04-11T13:32:00.621Z</time></trkpt><trkpt lat="45.6313594" lon="11.5393814"><ele>51.83333333333333</ele><time>2026-04-11T13:32:02.622Z</time></trkpt><trkpt lat="45.631373" lon="11.5392838"><ele>52.0</ele><time>2026-04-11T13:32:04.621Z</time></trkpt><trkpt lat="45.631392" lon="11.5391864"><ele>51.666666666666664</ele><time>2026-04-11T13:32:06.622Z</time></trkpt><trkpt lat="45.6313965" lon="11.539051"><ele>51.33333333333333</ele><time>2026-04-11T13:32:09.622Z</time></trkpt><trkpt lat="45.6314021" lon="11.5389535"><ele>51.0</ele><time>2026-04-11T13:32:11.621Z</time></trkpt><trkpt lat="45.6314114" lon="11.5388601"><ele>50.66666666666667</ele><time>2026-04-11T13:32:13.623Z</time></trkpt><trkpt lat="45.6314053" lon="11.538727"><ele>50.333333333333336</ele><time>2026-04-11T13:32:16.623Z</time></trkpt><trkpt lat="45.6313767" lon="11.5386395"><ele>50.0</ele><time>2026-04-11T13:32:18.621Z</time></trkpt><trkpt lat="45.6313127" lon="11.5385732"><ele>50.00000000000001</ele><time>2026-04-11T13:32:21.622Z</time></trkpt><trkpt lat="45.6312494" lon="11.5385261"><ele>50.0</ele><time>2026-04-11T13:32:24.623Z</time></trkpt><trkpt lat="45.6311734" lon="11.5384846"><ele>50.0</ele><time>2026-04-11T13:32:27.624Z</time></trkpt><trkpt lat="45.6311178" lon="11.5384351"><ele>50.0</ele><time>2026-04-11T13:32:29.622Z</time></trkpt><trkpt lat="45.6310586" lon="11.5383832"><ele>50.0</ele><time>2026-04-11T13:32:31.623Z</time></trkpt><trkpt lat="45.6309932" lon="11.5383416"><ele>50.00000000000001</ele><time>2026-04-11T13:32:33.624Z</time></trkpt><trkpt lat="45.6309351" lon="11.5382855"><ele>50.0</ele><time>2026-04-11T13:32:35.621Z</time></trkpt><trkpt lat="45.6308846" lon="11.5382161"><ele>50.00000000000001</ele><time>2026-04-11T13:32:37.622Z</time></trkpt><trkpt lat="45.6308361" lon="11.5381493"><ele>50.0</ele><time>2026-04-11T13:32:39.621Z</time></trkpt><trkpt lat="45.6307915" lon="11.5380247"><ele>50.0</ele><time>2026-04-11T13:32:42.624Z</time></trkpt><trkpt lat="45.6307779" lon="11.537927"><ele>50.0</ele><time>2026-04-11T13:32:44.624Z</time></trkpt><trkpt lat="45.630774" lon="11.5378231"><ele>50.00000000000001</ele><time>2026-04-11T13:32:46.623Z</time></trkpt><trkpt lat="45.6307606" lon="11.5376934"><ele>50.0</ele><time>2026-04-11T13:32:49.623Z</time></trkpt><trkpt lat="45.6307533" lon="11.5375977"><ele>50.00000000000001</ele><time>2026-04-11T13:32:51.624Z</time></trkpt><trkpt lat="45.6307545" lon="11.5375016"><ele>50.0</ele><time>2026-04-11T13:32:53.623Z</time></trkpt><trkpt lat="45.6307547" lon="11.5374095"><ele>50.0</ele><time>2026-04-11T13:32:55.623Z</time></trkpt><trkpt lat="45.6307478" lon="11.5373085"><ele>50.0</ele><time>2026-04-11T13:32:57.623Z</time></trkpt><trkpt lat="45.630738" lon="11.5372096"><ele>50.00000000000001</ele><time>2026-04-11T13:32:59.623Z</time></trkpt><trkpt lat="45.630716" lon="11.5370845"><ele>50.0</ele><time>2026-04-11T13:33:02.622Z</time></trkpt><trkpt lat="45.6307109" lon="11.5369564"><ele>50.00000000000001</ele><time>2026-04-11T13:33:05.62Z</time></trkpt><trkpt lat="45.6306952" lon="11.5368431"><ele>50.0</ele><time>2026-04-11T13:33:08.622Z</time></trkpt><trkpt lat="45.6306768" lon="11.536748"><ele>50.0</ele><time>2026-04-11T13:33:11.623Z</time></trkpt><trkpt lat="45.6306516" lon="11.5366535"><ele>50.0</ele><time>2026-04-11T13:33:14.624Z</time></trkpt><trkpt lat="45.630617" lon="11.5365647"><ele>50.0</ele><time>2026-04-11T13:33:17.624Z</time></trkpt><trkpt lat="45.6305817" lon="11.5364792"><ele>50.00000000000001</ele><time>2026-04-11T13:33:20.625Z</time></trkpt><trkpt lat="45.6305377" lon="11.5364013"><ele>50.0</ele><time>2026-04-11T13:33:23.618Z</time></trkpt><trkpt lat="45.6304966" lon="11.5363158"><ele>50.00000000000001</ele><time>2026-04-11T13:33:26.624Z</time></trkpt><trkpt lat="45.6304575" lon="11.5362111"><ele>50.0</ele><time>2026-04-11T13:33:29.622Z</time></trkpt><trkpt lat="45.6304023" lon="11.5361178"><ele>50.0</ele><time>2026-04-11T13:33:32.623Z</time></trkpt><trkpt lat="45.6303511" lon="11.5360209"><ele>50.0</ele><time>2026-04-11T13:33:35.622Z</time></trkpt><trkpt lat="45.6303004" lon="11.5359095"><ele>50.00000000000001</ele><time>2026-04-11T13:33:38.623Z</time></trkpt><trkpt lat="45.6302671" lon="11.5358256"><ele>50.0</ele><time>2026-04-11T13:33:40.623Z</time></trkpt><trkpt lat="45.6302304" lon="11.5357429"><ele>49.833333333333336</ele><time>2026-04-11T13:33:42.621Z</time></trkpt><trkpt lat="45.630183" lon="11.5356301"><ele>49.66666666666667</ele><time>2026-04-11T13:33:45.622Z</time></trkpt><trkpt lat="45.6301526" lon="11.5355174"><ele>49.5</ele><time>2026-04-11T13:33:48.622Z</time></trkpt><trkpt lat="45.6301208" lon="11.5354107"><ele>49.33333333333333</ele><time>2026-04-11T13:33:51.621Z</time></trkpt><trkpt lat="45.6300816" lon="11.5352996"><ele>49.166666666666664</ele><time>2026-04-11T13:33:54.622Z</time></trkpt><trkpt lat="45.6300569" lon="11.5351868"><ele>49.0</ele><time>2026-04-11T13:33:57.622Z</time></trkpt><trkpt lat="45.6300298" lon="11.5350566"><ele>48.99999999999999</ele><time>2026-04-11T13:34:00.623Z</time></trkpt><trkpt lat="45.6300035" lon="11.5349293"><ele>49.0</ele><time>2026-04-11T13:34:03.625Z</time></trkpt><trkpt lat="45.6299776" lon="11.5348113"><ele>49.0</ele><time>2026-04-11T13:34:06.623Z</time></trkpt><trkpt lat="45.6299551" lon="11.5346848"><ele>49.0</ele><time>2026-04-11T13:34:09.624Z</time></trkpt><trkpt lat="45.6299397" lon="11.534594"><ele>48.99999999999999</ele><time>2026-04-11T13:34:11.62Z</time></trkpt><trkpt lat="45.6299321" lon="11.5344646"><ele>49.0</ele><time>2026-04-11T13:34:14.621Z</time></trkpt><trkpt lat="45.6299263" lon="11.534358"><ele>49.0</ele><time>2026-04-11T13:34:17.62Z</time></trkpt><trkpt lat="45.6299218" lon="11.5342432"><ele>49.0</ele><time>2026-04-11T13:34:20.622Z</time></trkpt><trkpt lat="45.6299179" lon="11.5341213"><ele>49.0</ele><time>2026-04-11T13:34:23.622Z</time></trkpt><trkpt lat="45.6299112" lon="11.5340273"><ele>49.0</ele><time>2026-04-11T13:34:25.617Z</time></trkpt><trkpt lat="45.6299077" lon="11.5339323"><ele>49.0</ele><time>2026-04-11T13:34:27.622Z</time></trkpt><trkpt lat="45.6299016" lon="11.5338402"><ele>49.0</ele><time>2026-04-11T13:34:29.622Z</time></trkpt><trkpt lat="45.6298988" lon="11.5337437"><ele>49.0</ele><time>2026-04-11T13:34:31.624Z</time></trkpt><trkpt lat="45.6298979" lon="11.5336498"><ele>49.166666666666664</ele><time>2026-04-11T13:34:33.622Z</time></trkpt><trkpt lat="45.6298937" lon="11.5335544"><ele>49.33333333333333</ele><time>2026-04-11T13:34:35.623Z</time></trkpt><trkpt lat="45.6298997" lon="11.5334613"><ele>49.5</ele><time>2026-04-11T13:34:37.623Z</time></trkpt><trkpt lat="45.629914" lon="11.5333316"><ele>49.66666666666667</ele><time>2026-04-11T13:34:40.62Z</time></trkpt><trkpt lat="45.6299054" lon="11.533211"><ele>49.833333333333336</ele><time>2026-04-11T13:34:43.623Z</time></trkpt><trkpt lat="45.6298591" lon="11.5331034"><ele>50.0</ele><time>2026-04-11T13:34:46.619Z</time></trkpt><trkpt lat="45.6297749" lon="11.5330498"><ele>50.00000000000001</ele><time>2026-04-11T13:34:49.622Z</time></trkpt><trkpt lat="45.6297097" lon="11.533039"><ele>50.0</ele><time>2026-04-11T13:34:51.622Z</time></trkpt><trkpt lat="45.6296366" lon="11.5330443"><ele>50.0</ele><time>2026-04-11T13:34:53.617Z</time></trkpt><trkpt lat="45.6295722" lon="11.5330479"><ele>50.0</ele><time>2026-04-11T13:34:55.623Z</time></trkpt><trkpt lat="45.6294799" lon="11.5330648"><ele>50.0</ele><time>2026-04-11T13:34:58.625Z</time></trkpt><trkpt lat="45.6294169" lon="11.533085"><ele>50.00000000000001</ele><time>2026-04-11T13:35:00.624Z</time></trkpt><trkpt lat="45.6293444" lon="11.5331079"><ele>50.0</ele><time>2026-04-11T13:35:02.627Z</time></trkpt><trkpt lat="45.6292734" lon="11.5331294"><ele>49.85714285714286</ele><time>2026-04-11T13:35:04.626Z</time></trkpt><trkpt lat="45.6292098" lon="11.5331552"><ele>49.714285714285715</ele><time>2026-04-11T13:35:06.624Z</time></trkpt><trkpt lat="45.6291275" lon="11.5331743"><ele>49.57142857142857</ele><time>2026-04-11T13:35:09.626Z</time></trkpt><trkpt lat="45.6290606" lon="11.5331943"><ele>49.42857142857143</ele><time>2026-04-11T13:35:11.622Z</time></trkpt><trkpt lat="45.6289889" lon="11.5332078"><ele>49.285714285714285</ele><time>2026-04-11T13:35:13.622Z</time></trkpt><trkpt lat="45.6289257" lon="11.5332253"><ele>49.142857142857146</ele><time>2026-04-11T13:35:15.622Z</time></trkpt><trkpt lat="45.6288636" lon="11.5332442"><ele>49.0</ele><time>2026-04-11T13:35:17.621Z</time></trkpt><trkpt lat="45.6287941" lon="11.5332667"><ele>49.0</ele><time>2026-04-11T13:35:19.622Z</time></trkpt><trkpt lat="45.628725" lon="11.5332859"><ele>49.0</ele><time>2026-04-11T13:35:21.624Z</time></trkpt><trkpt lat="45.6286578" lon="11.5332995"><ele>49.0</ele><time>2026-04-11T13:35:23.624Z</time></trkpt><trkpt lat="45.6285912" lon="11.5333184"><ele>49.0</ele><time>2026-04-11T13:35:25.623Z</time></trkpt><trkpt lat="45.6285251" lon="11.533331"><ele>49.0</ele><time>2026-04-11T13:35:27.624Z</time></trkpt><trkpt lat="45.6284564" lon="11.533342"><ele>49.0</ele><time>2026-04-11T13:35:29.622Z</time></trkpt><trkpt lat="45.6283931" lon="11.5333344"><ele>49.0</ele><time>2026-04-11T13:35:31.625Z</time></trkpt><trkpt lat="45.6283091" lon="11.5333537"><ele>48.83333333333333</ele><time>2026-04-11T13:35:34.623Z</time></trkpt><trkpt lat="45.6282207" lon="11.5333614"><ele>48.666666666666664</ele><time>2026-04-11T13:35:37.625Z</time></trkpt><trkpt lat="45.6281383" lon="11.5333778"><ele>48.5</ele><time>2026-04-11T13:35:40.624Z</time></trkpt><trkpt lat="45.6280574" lon="11.5333969"><ele>48.33333333333333</ele><time>2026-04-11T13:35:43.625Z</time></trkpt><trkpt lat="45.627969" lon="11.5334066"><ele>48.166666666666664</ele><time>2026-04-11T13:35:46.625Z</time></trkpt><trkpt lat="45.6278878" lon="11.5334264"><ele>48.0</ele><time>2026-04-11T13:35:49.624Z</time></trkpt><trkpt lat="45.6278048" lon="11.5334505"><ele>48.0</ele><time>2026-04-11T13:35:52.624Z</time></trkpt><trkpt lat="45.6277225" lon="11.5334738"><ele>48.0</ele><time>2026-04-11T13:35:55.623Z</time></trkpt><trkpt lat="45.6276322" lon="11.5334945"><ele>48.0</ele><time>2026-04-11T13:35:58.622Z</time></trkpt><trkpt lat="45.6275431" lon="11.5335054"><ele>48.0</ele><time>2026-04-11T13:36:01.624Z</time></trkpt><trkpt lat="45.6274805" lon="11.533515"><ele>48.0</ele><time>2026-04-11T13:36:03.624Z</time></trkpt><trkpt lat="45.6273969" lon="11.533525"><ele>48.0</ele><time>2026-04-11T13:36:06.624Z</time></trkpt><trkpt lat="45.6273096" lon="11.5335473"><ele>47.99999999999999</ele><time>2026-04-11T13:36:09.624Z</time></trkpt><trkpt lat="45.6272467" lon="11.5335592"><ele>48.0</ele><time>2026-04-11T13:36:11.621Z</time></trkpt><trkpt lat="45.6271542" lon="11.5335794"><ele>48.0</ele><time>2026-04-11T13:36:14.623Z</time></trkpt><trkpt lat="45.6270883" lon="11.5336057"><ele>48.0</ele><time>2026-04-11T13:36:16.621Z</time></trkpt><trkpt lat="45.6270168" lon="11.5336343"><ele>48.0</ele><time>2026-04-11T13:36:18.621Z</time></trkpt><trkpt lat="45.626949" lon="11.5336584"><ele>47.99999999999999</ele><time>2026-04-11T13:36:20.622Z</time></trkpt><trkpt lat="45.6268847" lon="11.5336674"><ele>48.0</ele><time>2026-04-11T13:36:22.622Z</time></trkpt><trkpt lat="45.6267985" lon="11.5336765"><ele>48.166666666666664</ele><time>2026-04-11T13:36:25.622Z</time></trkpt><trkpt lat="45.6267148" lon="11.5336962"><ele>48.33333333333333</ele><time>2026-04-11T13:36:28.619Z</time></trkpt><trkpt lat="45.6266266" lon="11.5336886"><ele>48.5</ele><time>2026-04-11T13:36:31.624Z</time></trkpt><trkpt lat="45.6265885" lon="11.5335795"><ele>48.666666666666664</ele><time>2026-04-11T13:36:34.623Z</time></trkpt><trkpt lat="45.6266069" lon="11.5334651"><ele>48.83333333333333</ele><time>2026-04-11T13:36:37.625Z</time></trkpt><trkpt lat="45.6266395" lon="11.5333684"><ele>49.0</ele><time>2026-04-11T13:36:40.625Z</time></trkpt><trkpt lat="45.6265685" lon="11.5333192"><ele>49.0</ele><time>2026-04-11T13:36:43.623Z</time></trkpt><trkpt lat="45.6264842" lon="11.5333126"><ele>49.0</ele><time>2026-04-11T13:36:46.619Z</time></trkpt><trkpt lat="45.6264274" lon="11.533271"><ele>49.0</ele><time>2026-04-11T13:36:49.625Z</time></trkpt><trkpt lat="45.6263739" lon="11.5332196"><ele>49.0</ele><time>2026-04-11T13:36:52.619Z</time></trkpt><trkpt lat="45.62632" lon="11.5331692"><ele>49.0</ele><time>2026-04-11T13:36:55.624Z</time></trkpt><trkpt lat="45.6262576" lon="11.5331183"><ele>49.0</ele><time>2026-04-11T13:36:58.624Z</time></trkpt><trkpt lat="45.6261956" lon="11.5330557"><ele>49.0</ele><time>2026-04-11T13:37:01.627Z</time></trkpt><trkpt lat="45.6261262" lon="11.5330059"><ele>48.714285714285715</ele><time>2026-04-11T13:37:04.624Z</time></trkpt><trkpt lat="45.6260604" lon="11.5329634"><ele>48.42857142857143</ele><time>2026-04-11T13:37:07.626Z</time></trkpt><trkpt lat="45.6259982" lon="11.5328961"><ele>48.14285714285714</ele><time>2026-04-11T13:37:11.622Z</time></trkpt><trkpt lat="45.6259323" lon="11.5328362"><ele>47.85714285714286</ele><time>2026-04-11T13:37:16.622Z</time></trkpt><trkpt lat="45.6258785" lon="11.5327853"><ele>47.57142857142857</ele><time>2026-04-11T13:37:19.618Z</time></trkpt><trkpt lat="45.6258123" lon="11.5327312"><ele>47.285714285714285</ele><time>2026-04-11T13:37:22.623Z</time></trkpt><trkpt lat="45.6257516" lon="11.5326682"><ele>47.0</ele><time>2026-04-11T13:37:25.623Z</time></trkpt><trkpt lat="45.6256894" lon="11.5325899"><ele>47.0</ele><time>2026-04-11T13:37:29.624Z</time></trkpt><trkpt lat="45.6256289" lon="11.5325151"><ele>47.0</ele><time>2026-04-11T13:37:33.626Z</time></trkpt><trkpt lat="45.6255596" lon="11.5324585"><ele>47.0</ele><time>2026-04-11T13:37:37.626Z</time></trkpt><trkpt lat="45.6255086" lon="11.5324044"><ele>47.0</ele><time>2026-04-11T13:37:40.624Z</time></trkpt><trkpt lat="45.6254558" lon="11.5323534"><ele>47.0</ele><time>2026-04-11T13:37:43.623Z</time></trkpt><trkpt lat="45.6254044" lon="11.5322837"><ele>47.0</ele><time>2026-04-11T13:37:46.623Z</time></trkpt><trkpt lat="45.625358" lon="11.5322228"><ele>47.0</ele><time>2026-04-11T13:37:49.62Z</time></trkpt><trkpt lat="45.6252985" lon="11.5321907"><ele>46.83333333333333</ele><time>2026-04-11T13:37:52.622Z</time></trkpt><trkpt lat="45.6252321" lon="11.5321574"><ele>46.666666666666664</ele><time>2026-04-11T13:37:55.624Z</time></trkpt><trkpt lat="45.6251609" lon="11.532114"><ele>46.5</ele><time>2026-04-11T13:37:58.622Z</time></trkpt><trkpt lat="45.6250773" lon="11.5320797"><ele>46.333333333333336</ele><time>2026-04-11T13:38:01.624Z</time></trkpt><trkpt lat="45.6249939" lon="11.5320504"><ele>46.16666666666667</ele><time>2026-04-11T13:38:04.623Z</time></trkpt><trkpt lat="45.6249149" lon="11.5320253"><ele>46.0</ele><time>2026-04-11T13:38:07.623Z</time></trkpt><trkpt lat="45.6248337" lon="11.5320099"><ele>46.0</ele><time>2026-04-11T13:38:10.624Z</time></trkpt><trkpt lat="45.6247539" lon="11.5320054"><ele>46.0</ele><time>2026-04-11T13:38:13.616Z</time></trkpt><trkpt lat="45.6246686" lon="11.5319974"><ele>46.0</ele><time>2026-04-11T13:38:16.623Z</time></trkpt><trkpt lat="45.6245837" lon="11.5320014"><ele>46.0</ele><time>2026-04-11T13:38:19.622Z</time></trkpt><trkpt lat="45.6245009" lon="11.5319962"><ele>46.0</ele><time>2026-04-11T13:38:22.621Z</time></trkpt><trkpt lat="45.6244146" lon="11.5319873"><ele>46.0</ele><time>2026-04-11T13:38:25.622Z</time></trkpt><trkpt lat="45.6243329" lon="11.531987"><ele>46.0</ele><time>2026-04-11T13:38:28.623Z</time></trkpt><trkpt lat="45.6242486" lon="11.531996"><ele>46.0</ele><time>2026-04-11T13:38:31.625Z</time></trkpt><trkpt lat="45.6241759" lon="11.532027"><ele>46.0</ele><time>2026-04-11T13:38:34.619Z</time></trkpt><trkpt lat="45.6241038" lon="11.5320627"><ele>46.0</ele><time>2026-04-11T13:38:37.626Z</time></trkpt><trkpt lat="45.6240321" lon="11.5320862"><ele>46.0</ele><time>2026-04-11T13:38:41.623Z</time></trkpt><trkpt lat="45.6239526" lon="11.5321131"><ele>46.0</ele><time>2026-04-11T13:38:45.623Z</time></trkpt><trkpt lat="45.6238868" lon="11.532144"><ele>46.0</ele><time>2026-04-11T13:38:48.623Z</time></trkpt><trkpt lat="45.6238117" lon="11.5321861"><ele>46.0</ele><time>2026-04-11T13:38:51.623Z</time></trkpt><trkpt lat="45.623734" lon="11.5322261"><ele>46.0</ele><time>2026-04-11T13:38:54.621Z</time></trkpt><trkpt lat="45.6236656" lon="11.532274"><ele>46.0</ele><time>2026-04-11T13:38:58.621Z</time></trkpt><trkpt lat="45.6235991" lon="11.5323324"><ele>46.0</ele><time>2026-04-11T13:39:02.626Z</time></trkpt><trkpt lat="45.6235344" lon="11.5323825"><ele>46.0</ele><time>2026-04-11T13:39:05.625Z</time></trkpt><trkpt lat="45.623471" lon="11.5324173"><ele>46.0</ele><time>2026-04-11T13:39:08.625Z</time></trkpt><trkpt lat="45.6234185" lon="11.5324765"><ele>46.0</ele><time>2026-04-11T13:39:11.621Z</time></trkpt><trkpt lat="45.6233637" lon="11.5325228"><ele>46.0</ele><time>2026-04-11T13:39:14.624Z</time></trkpt><trkpt lat="45.6233064" lon="11.532604"><ele>46.0</ele><time>2026-04-11T13:39:17.624Z</time></trkpt><trkpt lat="45.6232338" lon="11.5326534"><ele>46.0</ele><time>2026-04-11T13:39:20.623Z</time></trkpt><trkpt lat="45.6231613" lon="11.5326863"><ele>46.0</ele><time>2026-04-11T13:39:23.624Z</time></trkpt><trkpt lat="45.6230867" lon="11.5327003"><ele>46.0</ele><time>2026-04-11T13:39:26.623Z</time></trkpt><trkpt lat="45.6230146" lon="11.5327214"><ele>46.0</ele><time>2026-04-11T13:39:29.624Z</time></trkpt><trkpt lat="45.6229491" lon="11.5327381"><ele>46.0</ele><time>2026-04-11T13:39:32.626Z</time></trkpt><trkpt lat="45.6228725" lon="11.5327536"><ele>46.0</ele><time>2026-04-11T13:39:35.625Z</time></trkpt><trkpt lat="45.6228053" lon="11.5327789"><ele>46.0</ele><time>2026-04-11T13:39:38.629Z</time></trkpt><trkpt lat="45.6227362" lon="11.5327938"><ele>46.0</ele><time>2026-04-11T13:41:53.623Z</time></trkpt><trkpt lat="45.6226545" lon="11.5328152"><ele>46.0</ele><time>2026-04-11T13:41:58.623Z</time></trkpt><trkpt lat="45.622589" lon="11.5328357"><ele>46.0</ele><time>2026-04-11T13:42:01.626Z</time></trkpt><trkpt lat="45.6225218" lon="11.5328398"><ele>46.0</ele><time>2026-04-11T13:42:04.625Z</time></trkpt><trkpt lat="45.6224572" lon="11.5328585"><ele>46.0</ele><time>2026-04-11T13:42:07.627Z</time></trkpt><trkpt lat="45.6223842" lon="11.5328946"><ele>46.0</ele><time>2026-04-11T13:42:10.624Z</time></trkpt><trkpt lat="45.622308" lon="11.5329125"><ele>46.0</ele><time>2026-04-11T13:42:13.618Z</time></trkpt><trkpt lat="45.6222311" lon="11.5329407"><ele>46.0</ele><time>2026-04-11T13:42:16.624Z</time></trkpt><trkpt lat="45.6221532" lon="11.5329515"><ele>46.0</ele><time>2026-04-11T13:42:19.625Z</time></trkpt><trkpt lat="45.6220803" lon="11.532972"><ele>46.0</ele><time>2026-04-11T13:42:22.623Z</time></trkpt><trkpt lat="45.6220206" lon="11.5330008"><ele>46.0</ele><time>2026-04-11T13:42:25.625Z</time></trkpt><trkpt lat="45.6219564" lon="11.533025"><ele>46.0</ele><time>2026-04-11T13:42:28.624Z</time></trkpt><trkpt lat="45.6218747" lon="11.53304"><ele>46.0</ele><time>2026-04-11T13:42:32.624Z</time></trkpt><trkpt lat="45.6218064" lon="11.5330487"><ele>46.0</ele><time>2026-04-11T13:42:36.624Z</time></trkpt><trkpt lat="45.6217352" lon="11.5330654"><ele>46.0</ele><time>2026-04-11T13:42:40.627Z</time></trkpt><trkpt lat="45.6216504" lon="11.5330662"><ele>46.0</ele><time>2026-04-11T13:42:44.625Z</time></trkpt><trkpt lat="45.6215621" lon="11.5330808"><ele>46.16666666666667</ele><time>2026-04-11T13:42:47.623Z</time></trkpt><trkpt lat="45.6214692" lon="11.5330779"><ele>46.333333333333336</ele><time>2026-04-11T13:42:50.623Z</time></trkpt><trkpt lat="45.6214003" lon="11.5330899"><ele>46.5</ele><time>2026-04-11T13:42:52.622Z</time></trkpt><trkpt lat="45.6213196" lon="11.5330825"><ele>46.666666666666664</ele><time>2026-04-11T13:42:55.624Z</time></trkpt><trkpt lat="45.6212559" lon="11.5330822"><ele>46.83333333333333</ele><time>2026-04-11T13:42:58.622Z</time></trkpt><trkpt lat="45.6211828" lon="11.5330866"><ele>47.0</ele><time>2026-04-11T13:43:01.625Z</time></trkpt><trkpt lat="45.6211041" lon="11.5330923"><ele>46.666666666666664</ele><time>2026-04-11T13:43:04.624Z</time></trkpt><trkpt lat="45.6210169" lon="11.5330784"><ele>46.33333333333333</ele><time>2026-04-11T13:43:07.625Z</time></trkpt><trkpt lat="45.6209259" lon="11.5330587"><ele>46.0</ele><time>2026-04-11T13:43:10.626Z</time></trkpt><trkpt lat="45.6208404" lon="11.5330468"><ele>45.666666666666664</ele><time>2026-04-11T13:43:13.627Z</time></trkpt><trkpt lat="45.6207638" lon="11.5330408"><ele>45.333333333333336</ele><time>2026-04-11T13:43:16.625Z</time></trkpt><trkpt lat="45.6206885" lon="11.5330251"><ele>45.0</ele><time>2026-04-11T13:43:19.624Z</time></trkpt><trkpt lat="45.6206081" lon="11.5330465"><ele>45.0</ele><time>2026-04-11T13:43:22.624Z</time></trkpt><trkpt lat="45.6205392" lon="11.5330705"><ele>45.0</ele><time>2026-04-11T13:43:25.624Z</time></trkpt><trkpt lat="45.6204668" lon="11.5331044"><ele>45.0</ele><time>2026-04-11T13:43:28.624Z</time></trkpt><trkpt lat="45.6203949" lon="11.5331796"><ele>45.0</ele><time>2026-04-11T13:43:31.628Z</time></trkpt><trkpt lat="45.6203247" lon="11.5332557"><ele>45.0</ele><time>2026-04-11T13:43:34.626Z</time></trkpt><trkpt lat="45.6202708" lon="11.5333365"><ele>45.0</ele><time>2026-04-11T13:43:37.627Z</time></trkpt><trkpt lat="45.6202286" lon="11.5334137"><ele>44.857142857142854</ele><time>2026-04-11T13:43:40.626Z</time></trkpt><trkpt lat="45.6201797" lon="11.5334898"><ele>44.714285714285715</ele><time>2026-04-11T13:43:44.624Z</time></trkpt><trkpt lat="45.6201276" lon="11.5335435"><ele>44.57142857142857</ele><time>2026-04-11T13:45:02.618Z</time></trkpt><trkpt lat="45.6200987" lon="11.5336297"><ele>44.42857142857143</ele><time>2026-04-11T13:45:06.627Z</time></trkpt><trkpt lat="45.6200505" lon="11.533708"><ele>44.285714285714285</ele><time>2026-04-11T13:45:09.63Z</time></trkpt><trkpt lat="45.619984" lon="11.533783"><ele>44.142857142857146</ele><time>2026-04-11T13:45:12.626Z</time></trkpt><trkpt lat="45.6199194" lon="11.5338222"><ele>44.0</ele><time>2026-04-11T13:45:15.628Z</time></trkpt><trkpt lat="45.6198363" lon="11.5338531"><ele>44.0</ele><time>2026-04-11T13:45:19.63Z</time></trkpt><trkpt lat="45.6197561" lon="11.5338493"><ele>44.0</ele><time>2026-04-11T13:45:22.627Z</time></trkpt><trkpt lat="45.6196929" lon="11.5338326"><ele>44.0</ele><time>2026-04-11T13:45:25.628Z</time></trkpt><trkpt lat="45.6196213" lon="11.5338025"><ele>44.0</ele><time>2026-04-11T13:45:28.626Z</time></trkpt><trkpt lat="45.6195427" lon="11.533767"><ele>44.0</ele><time>2026-04-11T13:45:32.628Z</time></trkpt><trkpt lat="45.6194715" lon="11.533755"><ele>44.0</ele><time>2026-04-11T13:45:35.627Z</time></trkpt><trkpt lat="45.6193971" lon="11.5337645"><ele>44.0</ele><time>2026-04-11T13:45:38.626Z</time></trkpt><trkpt lat="45.6193211" lon="11.5337428"><ele>44.5</ele><time>2026-04-11T13:45:41.626Z</time></trkpt><trkpt lat="45.6192498" lon="11.5337122"><ele>45.0</ele><time>2026-04-11T13:45:44.627Z</time></trkpt><trkpt lat="45.6191794" lon="11.5336894"><ele>45.5</ele><time>2026-04-11T13:45:47.627Z</time></trkpt><trkpt lat="45.6191063" lon="11.5336627"><ele>46.0</ele><time>2026-04-11T13:45:50.625Z</time></trkpt><trkpt lat="45.619027" lon="11.5336191"><ele>46.5</ele><time>2026-04-11T13:45:53.626Z</time></trkpt><trkpt lat="45.6189458" lon="11.5335955"><ele>47.0</ele><time>2026-04-11T13:45:56.626Z</time></trkpt><trkpt lat="45.6188585" lon="11.5336109"><ele>47.0</ele><time>2026-04-11T13:45:59.626Z</time></trkpt><trkpt lat="45.6187871" lon="11.5336353"><ele>47.0</ele><time>2026-04-11T13:46:02.627Z</time></trkpt><trkpt lat="45.6187074" lon="11.5336303"><ele>47.0</ele><time>2026-04-11T13:46:06.626Z</time></trkpt><trkpt lat="45.6186282" lon="11.5336723"><ele>47.0</ele><time>2026-04-11T13:46:10.627Z</time></trkpt><trkpt lat="45.6185689" lon="11.5337223"><ele>47.0</ele><time>2026-04-11T13:46:13.628Z</time></trkpt><trkpt lat="45.6185125" lon="11.5337791"><ele>47.0</ele><time>2026-04-11T13:46:16.628Z</time></trkpt><trkpt lat="45.6184609" lon="11.5338483"><ele>47.0</ele><time>2026-04-11T13:46:19.628Z</time></trkpt><trkpt lat="45.6184067" lon="11.5339285"><ele>46.666666666666664</ele><time>2026-04-11T13:46:23.628Z</time></trkpt><trkpt lat="45.6183547" lon="11.5340088"><ele>46.33333333333333</ele><time>2026-04-11T13:46:26.629Z</time></trkpt><trkpt lat="45.6182968" lon="11.5340554"><ele>46.0</ele><time>2026-04-11T13:46:29.629Z</time></trkpt><trkpt lat="45.6182334" lon="11.5341079"><ele>45.666666666666664</ele><time>2026-04-11T13:46:32.63Z</time></trkpt><trkpt lat="45.6181596" lon="11.534174"><ele>45.333333333333336</ele><time>2026-04-11T13:46:35.631Z</time></trkpt><trkpt lat="45.6180928" lon="11.5342412"><ele>45.0</ele><time>2026-04-11T13:46:38.63Z</time></trkpt><trkpt lat="45.6180289" lon="11.5343046"><ele>45.0</ele><time>2026-04-11T13:46:41.63Z</time></trkpt><trkpt lat="45.6179663" lon="11.5343853"><ele>45.0</ele><time>2026-04-11T13:46:44.626Z</time></trkpt><trkpt lat="45.6178874" lon="11.5344569"><ele>45.0</ele><time>2026-04-11T13:46:47.631Z</time></trkpt><trkpt lat="45.6178294" lon="11.5345049"><ele>45.0</ele><time>2026-04-11T13:46:49.631Z</time></trkpt><trkpt lat="45.6177749" lon="11.5345517"><ele>45.0</ele><time>2026-04-11T13:46:51.63Z</time></trkpt><trkpt lat="45.6176899" lon="11.5346085"><ele>45.0</ele><time>2026-04-11T13:46:54.628Z</time></trkpt><trkpt lat="45.6176108" lon="11.5346709"><ele>45.0</ele><time>2026-04-11T13:46:57.624Z</time></trkpt><trkpt lat="45.6175303" lon="11.5347086"><ele>45.0</ele><time>2026-04-11T13:47:00.629Z</time></trkpt><trkpt lat="45.6174513" lon="11.5347523"><ele>45.0</ele><time>2026-04-11T13:47:03.629Z</time></trkpt><trkpt lat="45.6173701" lon="11.5347923"><ele>45.0</ele><time>2026-04-11T13:47:06.629Z</time></trkpt><trkpt lat="45.6172948" lon="11.5348518"><ele>45.0</ele><time>2026-04-11T13:47:09.628Z</time></trkpt><trkpt lat="45.6172342" lon="11.5348909"><ele>45.0</ele><time>2026-04-11T13:47:11.626Z</time></trkpt><trkpt lat="45.6171521" lon="11.5349526"><ele>45.0</ele><time>2026-04-11T13:47:14.628Z</time></trkpt><trkpt lat="45.6170986" lon="11.5350019"><ele>45.0</ele><time>2026-04-11T13:47:16.628Z</time></trkpt><trkpt lat="45.617033" lon="11.5350544"><ele>45.0</ele><time>2026-04-11T13:47:19.628Z</time></trkpt><trkpt lat="45.6169619" lon="11.5351105"><ele>45.0</ele><time>2026-04-11T13:47:23.623Z</time></trkpt><trkpt lat="45.6168954" lon="11.5351628"><ele>45.0</ele><time>2026-04-11T13:47:26.629Z</time></trkpt><trkpt lat="45.6168355" lon="11.5352134"><ele>45.0</ele><time>2026-04-11T13:47:30.628Z</time></trkpt><trkpt lat="45.6167799" lon="11.535262"><ele>45.0</ele><time>2026-04-11T13:48:07.625Z</time></trkpt><trkpt lat="45.6167436" lon="11.5353356"><ele>45.14285714285714</ele><time>2026-04-11T13:48:11.624Z</time></trkpt><trkpt lat="45.6166805" lon="11.5353929"><ele>45.28571428571429</ele><time>2026-04-11T13:48:15.627Z</time></trkpt><trkpt lat="45.6166261" lon="11.5354566"><ele>45.42857142857143</ele><time>2026-04-11T13:48:18.627Z</time></trkpt><trkpt lat="45.6165716" lon="11.5355284"><ele>45.57142857142857</ele><time>2026-04-11T13:48:21.627Z</time></trkpt><trkpt lat="45.6165127" lon="11.5355938"><ele>45.71428571428571</ele><time>2026-04-11T13:48:24.627Z</time></trkpt><trkpt lat="45.6164579" lon="11.5356761"><ele>45.85714285714286</ele><time>2026-04-11T13:48:27.625Z</time></trkpt><trkpt lat="45.6164099" lon="11.5357507"><ele>46.0</ele><time>2026-04-11T13:48:30.626Z</time></trkpt><trkpt lat="45.6163533" lon="11.5358021"><ele>46.0</ele><time>2026-04-11T13:48:33.627Z</time></trkpt><trkpt lat="45.6163054" lon="11.5358762"><ele>46.0</ele><time>2026-04-11T13:48:37.626Z</time></trkpt><trkpt lat="45.6162402" lon="11.5359556"><ele>46.0</ele><time>2026-04-11T13:48:41.624Z</time></trkpt><trkpt lat="45.6161844" lon="11.536017"><ele>46.0</ele><time>2026-04-11T13:48:44.627Z</time></trkpt><trkpt lat="45.6161124" lon="11.5360798"><ele>46.0</ele><time>2026-04-11T13:48:47.626Z</time></trkpt><trkpt lat="45.6160441" lon="11.5361545"><ele>46.0</ele><time>2026-04-11T13:48:50.627Z</time></trkpt><trkpt lat="45.6159879" lon="11.5362366"><ele>45.57142857142858</ele><time>2026-04-11T13:48:53.626Z</time></trkpt><trkpt lat="45.6159536" lon="11.5363311"><ele>45.14285714285714</ele><time>2026-04-11T13:48:56.627Z</time></trkpt><trkpt lat="45.6159181" lon="11.5364161"><ele>44.714285714285715</ele><time>2026-04-11T13:49:00.628Z</time></trkpt><trkpt lat="45.6158811" lon="11.5364969"><ele>44.28571428571429</ele><time>2026-04-11T13:49:09.623Z</time></trkpt><trkpt lat="45.6158441" lon="11.5365897"><ele>43.85714285714286</ele><time>2026-04-11T13:49:17.63Z</time></trkpt><trkpt lat="45.6158191" lon="11.5366794"><ele>43.42857142857143</ele><time>2026-04-11T13:49:21.629Z</time></trkpt><trkpt lat="45.6157815" lon="11.5367581"><ele>43.0</ele><time>2026-04-11T13:49:24.626Z</time></trkpt><trkpt lat="45.6157439" lon="11.5368469"><ele>43.00000000000001</ele><time>2026-04-11T13:49:27.629Z</time></trkpt><trkpt lat="45.615716" lon="11.5369339"><ele>43.0</ele><time>2026-04-11T13:49:30.628Z</time></trkpt><trkpt lat="45.6156793" lon="11.5370148"><ele>43.0</ele><time>2026-04-11T13:49:33.632Z</time></trkpt><trkpt lat="45.6156359" lon="11.5371039"><ele>43.0</ele><time>2026-04-11T13:49:36.629Z</time></trkpt><trkpt lat="45.6155889" lon="11.5371769"><ele>43.0</ele><time>2026-04-11T13:49:39.628Z</time></trkpt><trkpt lat="45.6155352" lon="11.5372604"><ele>43.00000000000001</ele><time>2026-04-11T13:49:43.628Z</time></trkpt><trkpt lat="45.6154944" lon="11.5373368"><ele>43.0</ele><time>2026-04-11T13:49:46.622Z</time></trkpt><trkpt lat="45.6154415" lon="11.537428"><ele>43.0</ele><time>2026-04-11T13:49:50.629Z</time></trkpt><trkpt lat="45.6153878" lon="11.5374989"><ele>43.0</ele><time>2026-04-11T13:49:54.627Z</time></trkpt><trkpt lat="45.6153403" lon="11.5375651"><ele>43.0</ele><time>2026-04-11T13:49:58.63Z</time></trkpt><trkpt lat="45.6152945" lon="11.537644"><ele>43.0</ele><time>2026-04-11T13:50:02.626Z</time></trkpt><trkpt lat="45.6152475" lon="11.5377214"><ele>43.0</ele><time>2026-04-11T13:50:05.627Z</time></trkpt><trkpt lat="45.6151855" lon="11.5378131"><ele>43.0</ele><time>2026-04-11T13:50:08.627Z</time></trkpt><trkpt lat="45.6151298" lon="11.5379168"><ele>43.16666666666667</ele><time>2026-04-11T13:50:11.627Z</time></trkpt><trkpt lat="45.6150692" lon="11.5380213"><ele>43.333333333333336</ele><time>2026-04-11T13:50:14.626Z</time></trkpt><trkpt lat="45.6150314" lon="11.5380981"><ele>43.5</ele><time>2026-04-11T13:50:16.629Z</time></trkpt><trkpt lat="45.6149911" lon="11.538172"><ele>43.666666666666664</ele><time>2026-04-11T13:50:18.628Z</time></trkpt><trkpt lat="45.614952" lon="11.5382454"><ele>43.83333333333333</ele><time>2026-04-11T13:50:20.63Z</time></trkpt><trkpt lat="45.6148938" lon="11.5383509"><ele>44.0</ele><time>2026-04-11T13:50:23.628Z</time></trkpt><trkpt lat="45.6148299" lon="11.5384525"><ele>44.0</ele><time>2026-04-11T13:50:26.629Z</time></trkpt><trkpt lat="45.6147788" lon="11.5385131"><ele>44.0</ele><time>2026-04-11T13:50:28.62Z</time></trkpt><trkpt lat="45.6147121" lon="11.5385926"><ele>44.0</ele><time>2026-04-11T13:50:31.629Z</time></trkpt><trkpt lat="45.6146567" lon="11.5386595"><ele>44.0</ele><time>2026-04-11T13:50:34.629Z</time></trkpt><trkpt lat="45.6145938" lon="11.5387281"><ele>44.0</ele><time>2026-04-11T13:50:37.631Z</time></trkpt><trkpt lat="45.6145387" lon="11.5387794"><ele>44.0</ele><time>2026-04-11T13:50:39.629Z</time></trkpt><trkpt lat="45.6144821" lon="11.5388271"><ele>44.0</ele><time>2026-04-11T13:50:41.628Z</time></trkpt><trkpt lat="45.6144033" lon="11.5389046"><ele>44.0</ele><time>2026-04-11T13:50:44.628Z</time></trkpt><trkpt lat="45.614352" lon="11.5389582"><ele>44.0</ele><time>2026-04-11T13:50:46.627Z</time></trkpt><trkpt lat="45.6142944" lon="11.5390196"><ele>44.0</ele><time>2026-04-11T13:50:48.627Z</time></trkpt><trkpt lat="45.6142362" lon="11.5390704"><ele>44.0</ele><time>2026-04-11T13:50:50.628Z</time></trkpt><trkpt lat="45.6141788" lon="11.5391269"><ele>44.0</ele><time>2026-04-11T13:50:52.629Z</time></trkpt><trkpt lat="45.6141238" lon="11.53918"><ele>44.0</ele><time>2026-04-11T13:50:54.628Z</time></trkpt><trkpt lat="45.6140681" lon="11.5392322"><ele>44.0</ele><time>2026-04-11T13:50:56.629Z</time></trkpt><trkpt lat="45.6140158" lon="11.5392898"><ele>44.0</ele><time>2026-04-11T13:50:58.628Z</time></trkpt><trkpt lat="45.6139608" lon="11.5393391"><ele>44.0</ele><time>2026-04-11T13:51:00.628Z</time></trkpt><trkpt lat="45.6138948" lon="11.5393899"><ele>44.0</ele><time>2026-04-11T13:51:02.629Z</time></trkpt><trkpt lat="45.6138263" lon="11.5394459"><ele>44.0</ele><time>2026-04-11T13:51:04.628Z</time></trkpt><trkpt lat="45.6137611" lon="11.5394976"><ele>44.0</ele><time>2026-04-11T13:51:06.628Z</time></trkpt><trkpt lat="45.6137007" lon="11.5395506"><ele>44.0</ele><time>2026-04-11T13:51:08.628Z</time></trkpt><trkpt lat="45.6136373" lon="11.5395995"><ele>44.0</ele><time>2026-04-11T13:51:10.63Z</time></trkpt><trkpt lat="45.6135726" lon="11.5396551"><ele>43.83333333333333</ele><time>2026-04-11T13:51:12.627Z</time></trkpt><trkpt lat="45.6135056" lon="11.5397151"><ele>43.666666666666664</ele><time>2026-04-11T13:51:14.629Z</time></trkpt><trkpt lat="45.6134391" lon="11.5397776"><ele>43.5</ele><time>2026-04-11T13:51:16.627Z</time></trkpt><trkpt lat="45.6133703" lon="11.5398446"><ele>43.333333333333336</ele><time>2026-04-11T13:51:18.626Z</time></trkpt><trkpt lat="45.6133006" lon="11.5399102"><ele>43.16666666666667</ele><time>2026-04-11T13:51:20.628Z</time></trkpt><trkpt lat="45.6132378" lon="11.5399689"><ele>43.0</ele><time>2026-04-11T13:51:22.628Z</time></trkpt><trkpt lat="45.6131763" lon="11.5400273"><ele>43.00000000000001</ele><time>2026-04-11T13:51:24.629Z</time></trkpt><trkpt lat="45.6131078" lon="11.5400832"><ele>43.0</ele><time>2026-04-11T13:51:26.628Z</time></trkpt><trkpt lat="45.6130394" lon="11.5401391"><ele>43.0</ele><time>2026-04-11T13:51:28.628Z</time></trkpt><trkpt lat="45.6129747" lon="11.5402015"><ele>43.0</ele><time>2026-04-11T13:51:30.629Z</time></trkpt><trkpt lat="45.6129147" lon="11.5402613"><ele>43.0</ele><time>2026-04-11T13:51:32.628Z</time></trkpt><trkpt lat="45.6128582" lon="11.5403218"><ele>43.00000000000001</ele><time>2026-04-11T13:51:34.629Z</time></trkpt><trkpt lat="45.6127994" lon="11.5403746"><ele>43.0</ele><time>2026-04-11T13:51:36.63Z</time></trkpt><trkpt lat="45.6127235" lon="11.5404449"><ele>42.85714285714286</ele><time>2026-04-11T13:51:39.63Z</time></trkpt><trkpt lat="45.6126471" lon="11.5405203"><ele>42.714285714285715</ele><time>2026-04-11T13:51:42.626Z</time></trkpt><trkpt lat="45.6125945" lon="11.5405793"><ele>42.57142857142857</ele><time>2026-04-11T13:51:44.628Z</time></trkpt><trkpt lat="45.6125386" lon="11.5406351"><ele>42.42857142857143</ele><time>2026-04-11T13:51:46.628Z</time></trkpt><trkpt lat="45.6124878" lon="11.5406907"><ele>42.285714285714285</ele><time>2026-04-11T13:51:48.63Z</time></trkpt><trkpt lat="45.6124406" lon="11.5407565"><ele>42.142857142857146</ele><time>2026-04-11T13:51:50.628Z</time></trkpt><trkpt lat="45.6123892" lon="11.5408205"><ele>42.0</ele><time>2026-04-11T13:51:52.627Z</time></trkpt><trkpt lat="45.6123349" lon="11.5408876"><ele>42.0</ele><time>2026-04-11T13:51:54.627Z</time></trkpt><trkpt lat="45.61228" lon="11.5409557"><ele>42.0</ele><time>2026-04-11T13:51:56.628Z</time></trkpt><trkpt lat="45.612228" lon="11.5410226"><ele>42.0</ele><time>2026-04-11T13:51:58.627Z</time></trkpt><trkpt lat="45.6121743" lon="11.5410822"><ele>42.0</ele><time>2026-04-11T13:52:00.627Z</time></trkpt><trkpt lat="45.6121229" lon="11.5411428"><ele>42.0</ele><time>2026-04-11T13:52:02.63Z</time></trkpt><trkpt lat="45.6120691" lon="11.5412035"><ele>42.0</ele><time>2026-04-11T13:52:04.629Z</time></trkpt><trkpt lat="45.612011" lon="11.5412661"><ele>42.0</ele><time>2026-04-11T13:52:06.629Z</time></trkpt><trkpt lat="45.6119519" lon="11.5413326"><ele>42.285714285714285</ele><time>2026-04-11T13:52:08.631Z</time></trkpt><trkpt lat="45.6118929" lon="11.5414013"><ele>42.57142857142857</ele><time>2026-04-11T13:52:10.631Z</time></trkpt><trkpt lat="45.611843" lon="11.5414728"><ele>42.85714285714286</ele><time>2026-04-11T13:52:12.629Z</time></trkpt><trkpt lat="45.6117981" lon="11.5415361"><ele>43.14285714285714</ele><time>2026-04-11T13:52:14.629Z</time></trkpt><trkpt lat="45.6117424" lon="11.5416426"><ele>43.42857142857143</ele><time>2026-04-11T13:52:17.628Z</time></trkpt><trkpt lat="45.6117085" lon="11.5417316"><ele>43.714285714285715</ele><time>2026-04-11T13:52:19.63Z</time></trkpt><trkpt lat="45.6116722" lon="11.541816"><ele>44.0</ele><time>2026-04-11T13:52:21.626Z</time></trkpt><trkpt lat="45.6116322" lon="11.5418971"><ele>44.0</ele><time>2026-04-11T13:52:23.626Z</time></trkpt><trkpt lat="45.6115855" lon="11.5420072"><ele>44.0</ele><time>2026-04-11T13:52:26.625Z</time></trkpt><trkpt lat="45.611539" lon="11.5421041"><ele>44.0</ele><time>2026-04-11T13:52:29.625Z</time></trkpt><trkpt lat="45.6114936" lon="11.54219"><ele>44.0</ele><time>2026-04-11T13:52:32.617Z</time></trkpt><trkpt lat="45.6114445" lon="11.5422852"><ele>44.0</ele><time>2026-04-11T13:52:35.623Z</time></trkpt><trkpt lat="45.6114073" lon="11.5423671"><ele>44.0</ele><time>2026-04-11T13:52:37.625Z</time></trkpt><trkpt lat="45.6113696" lon="11.5424629"><ele>44.0</ele><time>2026-04-11T13:52:39.626Z</time></trkpt><trkpt lat="45.6113303" lon="11.5425562"><ele>44.0</ele><time>2026-04-11T13:52:41.625Z</time></trkpt><trkpt lat="45.6112871" lon="11.5426454"><ele>44.0</ele><time>2026-04-11T13:52:43.627Z</time></trkpt><trkpt lat="45.6112369" lon="11.5427335"><ele>44.0</ele><time>2026-04-11T13:52:45.628Z</time></trkpt><trkpt lat="45.6111718" lon="11.5428047"><ele>44.0</ele><time>2026-04-11T13:52:47.627Z</time></trkpt><trkpt lat="45.6111107" lon="11.5428694"><ele>44.0</ele><time>2026-04-11T13:52:49.627Z</time></trkpt><trkpt lat="45.6110478" lon="11.5429353"><ele>44.0</ele><time>2026-04-11T13:52:51.626Z</time></trkpt><trkpt lat="45.6109858" lon="11.543002"><ele>44.0</ele><time>2026-04-11T13:52:53.63Z</time></trkpt><trkpt lat="45.6109307" lon="11.5430736"><ele>44.0</ele><time>2026-04-11T13:52:55.629Z</time></trkpt><trkpt lat="45.6108705" lon="11.543142"><ele>44.0</ele><time>2026-04-11T13:52:57.625Z</time></trkpt><trkpt lat="45.6108139" lon="11.543213"><ele>44.0</ele><time>2026-04-11T13:52:59.626Z</time></trkpt><trkpt lat="45.6107623" lon="11.5432694"><ele>44.0</ele><time>2026-04-11T13:53:01.628Z</time></trkpt><trkpt lat="45.6107075" lon="11.5433272"><ele>44.0</ele><time>2026-04-11T13:53:03.629Z</time></trkpt><trkpt lat="45.6106503" lon="11.5433919"><ele>44.0</ele><time>2026-04-11T13:53:05.628Z</time></trkpt><trkpt lat="45.6105974" lon="11.5434552"><ele>44.0</ele><time>2026-04-11T13:53:07.627Z</time></trkpt><trkpt lat="45.6105267" lon="11.5435179"><ele>44.0</ele><time>2026-04-11T13:53:10.626Z</time></trkpt><trkpt lat="45.6104629" lon="11.5435638"><ele>44.0</ele><time>2026-04-11T13:53:13.626Z</time></trkpt><trkpt lat="45.6103863" lon="11.543608"><ele>44.0</ele><time>2026-04-11T13:53:16.627Z</time></trkpt><trkpt lat="45.6103062" lon="11.5436443"><ele>44.0</ele><time>2026-04-11T13:53:19.627Z</time></trkpt><trkpt lat="45.6102292" lon="11.5436621"><ele>43.83333333333333</ele><time>2026-04-11T13:53:22.627Z</time></trkpt><trkpt lat="45.610165" lon="11.5436758"><ele>43.666666666666664</ele><time>2026-04-11T13:53:25.625Z</time></trkpt><trkpt lat="45.610158" lon="11.5437839"><ele>43.5</ele><time>2026-04-11T13:53:27.627Z</time></trkpt><trkpt lat="45.6100885" lon="11.5437702"><ele>43.333333333333336</ele><time>2026-04-11T13:53:41.627Z</time></trkpt><trkpt lat="45.6100252" lon="11.5437192"><ele>43.16666666666667</ele><time>2026-04-11T13:53:49.629Z</time></trkpt><trkpt lat="45.6099452" lon="11.5436873"><ele>43.0</ele><time>2026-04-11T13:53:53.629Z</time></trkpt><trkpt lat="45.6098677" lon="11.5436412"><ele>43.0</ele><time>2026-04-11T13:53:56.627Z</time></trkpt><trkpt lat="45.6097912" lon="11.5435819"><ele>43.0</ele><time>2026-04-11T13:53:59.628Z</time></trkpt><trkpt lat="45.6097224" lon="11.5435352"><ele>43.0</ele><time>2026-04-11T13:54:02.628Z</time></trkpt><trkpt lat="45.6096592" lon="11.5435081"><ele>43.0</ele><time>2026-04-11T13:54:05.621Z</time></trkpt><trkpt lat="45.6095923" lon="11.5434781"><ele>43.0</ele><time>2026-04-11T13:54:08.629Z</time></trkpt><trkpt lat="45.6095204" lon="11.5434377"><ele>43.0</ele><time>2026-04-11T13:54:11.628Z</time></trkpt><trkpt lat="45.6094504" lon="11.5433909"><ele>42.833333333333336</ele><time>2026-04-11T13:54:14.628Z</time></trkpt><trkpt lat="45.609377" lon="11.543352"><ele>42.66666666666667</ele><time>2026-04-11T13:54:17.628Z</time></trkpt><trkpt lat="45.6093096" lon="11.5433059"><ele>42.5</ele><time>2026-04-11T13:54:20.629Z</time></trkpt><trkpt lat="45.6092353" lon="11.5432744"><ele>42.333333333333336</ele><time>2026-04-11T13:54:23.628Z</time></trkpt><trkpt lat="45.6091548" lon="11.5432293"><ele>42.166666666666664</ele><time>2026-04-11T13:54:26.631Z</time></trkpt><trkpt lat="45.6090735" lon="11.5431919"><ele>42.0</ele><time>2026-04-11T13:54:29.628Z</time></trkpt><trkpt lat="45.6090117" lon="11.5431597"><ele>42.0</ele><time>2026-04-11T13:54:31.63Z</time></trkpt><trkpt lat="45.6089259" lon="11.5431188"><ele>42.0</ele><time>2026-04-11T13:54:34.629Z</time></trkpt><trkpt lat="45.6088505" lon="11.5430849"><ele>42.0</ele><time>2026-04-11T13:54:37.629Z</time></trkpt><trkpt lat="45.6087754" lon="11.5430342"><ele>42.0</ele><time>2026-04-11T13:54:40.627Z</time></trkpt><trkpt lat="45.6086964" lon="11.5429889"><ele>42.0</ele><time>2026-04-11T13:54:43.626Z</time></trkpt><trkpt lat="45.6086149" lon="11.5429316"><ele>42.0</ele><time>2026-04-11T13:54:46.626Z</time></trkpt><trkpt lat="45.6085312" lon="11.5428789"><ele>41.857142857142854</ele><time>2026-04-11T13:54:49.625Z</time></trkpt><trkpt lat="45.608452" lon="11.5428349"><ele>41.714285714285715</ele><time>2026-04-11T13:54:52.618Z</time></trkpt><trkpt lat="45.6084018" lon="11.5427762"><ele>41.57142857142857</ele><time>2026-04-11T13:54:55.624Z</time></trkpt><trkpt lat="45.608337" lon="11.5427185"><ele>41.42857142857143</ele><time>2026-04-11T13:54:59.624Z</time></trkpt><trkpt lat="45.6082751" lon="11.5426857"><ele>41.285714285714285</ele><time>2026-04-11T13:55:02.623Z</time></trkpt><trkpt lat="45.6082078" lon="11.5426468"><ele>41.14285714285714</ele><time>2026-04-11T13:55:05.626Z</time></trkpt><trkpt lat="45.60814" lon="11.5426127"><ele>41.0</ele><time>2026-04-11T13:55:08.626Z</time></trkpt><trkpt lat="45.6080733" lon="11.542549"><ele>41.0</ele><time>2026-04-11T13:55:11.623Z</time></trkpt><trkpt lat="45.6079982" lon="11.5425036"><ele>41.0</ele><time>2026-04-11T13:55:14.626Z</time></trkpt><trkpt lat="45.607915" lon="11.5424612"><ele>41.0</ele><time>2026-04-11T13:55:17.626Z</time></trkpt><trkpt lat="45.6078308" lon="11.5424247"><ele>41.0</ele><time>2026-04-11T13:55:20.619Z</time></trkpt><trkpt lat="45.6077744" lon="11.5423638"><ele>41.0</ele><time>2026-04-11T13:55:22.628Z</time></trkpt><trkpt lat="45.6076934" lon="11.54231"><ele>41.0</ele><time>2026-04-11T13:55:25.627Z</time></trkpt><trkpt lat="45.6076074" lon="11.5422592"><ele>40.666666666666664</ele><time>2026-04-11T13:55:28.625Z</time></trkpt><trkpt lat="45.6075524" lon="11.5422132"><ele>40.33333333333333</ele><time>2026-04-11T13:55:30.619Z</time></trkpt><trkpt lat="45.6074668" lon="11.5421662"><ele>40.0</ele><time>2026-04-11T13:55:33.626Z</time></trkpt><trkpt lat="45.6073908" lon="11.5420972"><ele>39.666666666666664</ele><time>2026-04-11T13:55:36.625Z</time></trkpt><trkpt lat="45.6073057" lon="11.5420441"><ele>39.333333333333336</ele><time>2026-04-11T13:55:39.625Z</time></trkpt><trkpt lat="45.6072453" lon="11.5419997"><ele>39.0</ele><time>2026-04-11T13:55:42.624Z</time></trkpt><trkpt lat="45.6071673" lon="11.5420002"><ele>39.0</ele><time>2026-04-11T14:01:06.626Z</time></trkpt><trkpt lat="45.607099" lon="11.5419773"><ele>39.0</ele><time>2026-04-11T14:01:08.619Z</time></trkpt><trkpt lat="45.607008" lon="11.5419521"><ele>39.0</ele><time>2026-04-11T14:01:10.627Z</time></trkpt><trkpt lat="45.6069116" lon="11.541926"><ele>39.0</ele><time>2026-04-11T14:01:12.623Z</time></trkpt><trkpt lat="45.6068267" lon="11.5419171"><ele>39.0</ele><time>2026-04-11T14:01:14.627Z</time></trkpt><trkpt lat="45.6068944" lon="11.5418959"><ele>39.0</ele><time>2026-04-11T14:04:40.625Z</time></trkpt><trkpt lat="45.6069544" lon="11.5419312"><ele>39.0</ele><time>2026-04-11T14:04:58.63Z</time></trkpt><trkpt lat="45.6070213" lon="11.541898"><ele>39.0</ele><time>2026-04-11T14:06:39.655Z</time></trkpt><trkpt lat="45.6070912" lon="11.5419186"><ele>39.0</ele><time>2026-04-11T14:06:43.653Z</time></trkpt><trkpt lat="45.6071492" lon="11.5419572"><ele>39.0</ele><time>2026-04-11T14:06:47.645Z</time></trkpt><trkpt lat="45.6072187" lon="11.5419776"><ele>39.0</ele><time>2026-04-11T14:06:53.665Z</time></trkpt><trkpt lat="45.6071969" lon="11.5418925"><ele>39.0</ele><time>2026-04-11T14:09:57.628Z</time></trkpt><trkpt lat="45.6070771" lon="11.541865"><ele>39.0</ele><time>2026-04-11T14:11:23.63Z</time></trkpt><trkpt lat="45.6070086" lon="11.5418272"><ele>39.0</ele><time>2026-04-11T14:11:26.631Z</time></trkpt><trkpt lat="45.6069309" lon="11.5417978"><ele>39.0</ele><time>2026-04-11T14:11:28.629Z</time></trkpt><trkpt lat="45.6068557" lon="11.5417565"><ele>39.0</ele><time>2026-04-11T14:11:31.628Z</time></trkpt><trkpt lat="45.6067859" lon="11.5417175"><ele>39.0</ele><time>2026-04-11T14:11:34.627Z</time></trkpt><trkpt lat="45.6067286" lon="11.5416778"><ele>39.0</ele><time>2026-04-11T14:11:37.628Z</time></trkpt><trkpt lat="45.6066713" lon="11.5416356"><ele>39.0</ele><time>2026-04-11T14:11:40.629Z</time></trkpt><trkpt lat="45.6066068" lon="11.5415847"><ele>39.333333333333336</ele><time>2026-04-11T14:11:43.628Z</time></trkpt><trkpt lat="45.6065378" lon="11.5415376"><ele>39.666666666666664</ele><time>2026-04-11T14:11:46.629Z</time></trkpt><trkpt lat="45.6064654" lon="11.5414895"><ele>40.0</ele><time>2026-04-11T14:11:49.629Z</time></trkpt><trkpt lat="45.6063918" lon="11.5414533"><ele>40.33333333333333</ele><time>2026-04-11T14:11:52.632Z</time></trkpt><trkpt lat="45.6063152" lon="11.5414031"><ele>40.666666666666664</ele><time>2026-04-11T14:11:55.627Z</time></trkpt><trkpt lat="45.6062409" lon="11.541353"><ele>41.0</ele><time>2026-04-11T14:11:58.627Z</time></trkpt><trkpt lat="45.6061604" lon="11.5413042"><ele>41.0</ele><time>2026-04-11T14:12:01.63Z</time></trkpt><trkpt lat="45.6060821" lon="11.5412524"><ele>41.0</ele><time>2026-04-11T14:12:04.627Z</time></trkpt><trkpt lat="45.6060123" lon="11.5412151"><ele>41.0</ele><time>2026-04-11T14:12:07.628Z</time></trkpt><trkpt lat="45.6059513" lon="11.54118"><ele>41.0</ele><time>2026-04-11T14:12:10.627Z</time></trkpt><trkpt lat="45.6058723" lon="11.5411506"><ele>41.0</ele><time>2026-04-11T14:12:14.628Z</time></trkpt><trkpt lat="45.6058138" lon="11.5411123"><ele>41.0</ele><time>2026-04-11T14:12:17.627Z</time></trkpt><trkpt lat="45.605749" lon="11.5410507"><ele>41.166666666666664</ele><time>2026-04-11T14:12:20.625Z</time></trkpt><trkpt lat="45.6056779" lon="11.540999"><ele>41.33333333333333</ele><time>2026-04-11T14:12:23.625Z</time></trkpt><trkpt lat="45.6056093" lon="11.5409352"><ele>41.5</ele><time>2026-04-11T14:12:26.625Z</time></trkpt><trkpt lat="45.6055302" lon="11.5408762"><ele>41.666666666666664</ele><time>2026-04-11T14:12:29.626Z</time></trkpt><trkpt lat="45.605447" lon="11.540822"><ele>41.833333333333336</ele><time>2026-04-11T14:12:32.625Z</time></trkpt><trkpt lat="45.6053632" lon="11.54077"><ele>42.0</ele><time>2026-04-11T14:12:35.621Z</time></trkpt><trkpt lat="45.605305" lon="11.540732"><ele>41.666666666666664</ele><time>2026-04-11T14:12:37.623Z</time></trkpt><trkpt lat="45.605248" lon="11.5406921"><ele>41.333333333333336</ele><time>2026-04-11T14:12:39.628Z</time></trkpt><trkpt lat="45.6051628" lon="11.5406458"><ele>41.0</ele><time>2026-04-11T14:12:42.624Z</time></trkpt><trkpt lat="45.6050841" lon="11.5406002"><ele>40.66666666666667</ele><time>2026-04-11T14:12:45.624Z</time></trkpt><trkpt lat="45.6050172" lon="11.5405655"><ele>40.333333333333336</ele><time>2026-04-11T14:12:48.622Z</time></trkpt><trkpt lat="45.6049437" lon="11.5405305"><ele>40.0</ele><time>2026-04-11T14:12:51.622Z</time></trkpt><trkpt lat="45.6048595" lon="11.5404832"><ele>40.0</ele><time>2026-04-11T14:12:54.625Z</time></trkpt><trkpt lat="45.604795" lon="11.5404548"><ele>40.0</ele><time>2026-04-11T14:12:56.627Z</time></trkpt><trkpt lat="45.604725" lon="11.5404317"><ele>40.0</ele><time>2026-04-11T14:12:58.625Z</time></trkpt><trkpt lat="45.6046576" lon="11.5403933"><ele>40.0</ele><time>2026-04-11T14:13:00.624Z</time></trkpt><trkpt lat="45.6045921" lon="11.5403472"><ele>40.0</ele><time>2026-04-11T14:13:02.619Z</time></trkpt><trkpt lat="45.6045287" lon="11.5403047"><ele>40.0</ele><time>2026-04-11T14:13:04.624Z</time></trkpt><trkpt lat="45.6044644" lon="11.5402663"><ele>40.0</ele><time>2026-04-11T14:13:06.623Z</time></trkpt><trkpt lat="45.6044057" lon="11.5402226"><ele>39.857142857142854</ele><time>2026-04-11T14:13:08.622Z</time></trkpt><trkpt lat="45.6043489" lon="11.5401817"><ele>39.714285714285715</ele><time>2026-04-11T14:13:10.623Z</time></trkpt><trkpt lat="45.6042902" lon="11.5401476"><ele>39.57142857142857</ele><time>2026-04-11T14:13:12.624Z</time></trkpt><trkpt lat="45.6042326" lon="11.5401091"><ele>39.42857142857143</ele><time>2026-04-11T14:13:14.626Z</time></trkpt><trkpt lat="45.604176" lon="11.5400683"><ele>39.285714285714285</ele><time>2026-04-11T14:13:16.619Z</time></trkpt><trkpt lat="45.6040906" lon="11.5400149"><ele>39.142857142857146</ele><time>2026-04-11T14:13:19.626Z</time></trkpt><trkpt lat="45.6040098" lon="11.5399691"><ele>39.0</ele><time>2026-04-11T14:13:22.623Z</time></trkpt><trkpt lat="45.6039428" lon="11.5399442"><ele>39.0</ele><time>2026-04-11T14:13:49.63Z</time></trkpt><trkpt lat="45.6038795" lon="11.5399001"><ele>39.0</ele><time>2026-04-11T14:13:54.627Z</time></trkpt><trkpt lat="45.6038186" lon="11.5398504"><ele>39.0</ele><time>2026-04-11T14:13:58.627Z</time></trkpt><trkpt lat="45.6037581" lon="11.5398114"><ele>39.0</ele><time>2026-04-11T14:14:01.628Z</time></trkpt><trkpt lat="45.6036896" lon="11.5397868"><ele>39.0</ele><time>2026-04-11T14:14:04.628Z</time></trkpt><trkpt lat="45.603619" lon="11.5397466"><ele>39.0</ele><time>2026-04-11T14:14:07.627Z</time></trkpt><trkpt lat="45.6035452" lon="11.5397134"><ele>39.0</ele><time>2026-04-11T14:14:10.629Z</time></trkpt><trkpt lat="45.6034795" lon="11.5396917"><ele>39.166666666666664</ele><time>2026-04-11T14:14:13.625Z</time></trkpt><trkpt lat="45.6034096" lon="11.5396846"><ele>39.333333333333336</ele><time>2026-04-11T14:14:17.625Z</time></trkpt><trkpt lat="45.6033439" lon="11.5396834"><ele>39.5</ele><time>2026-04-11T14:14:21.626Z</time></trkpt><trkpt lat="45.6032655" lon="11.5396746"><ele>39.66666666666667</ele><time>2026-04-11T14:14:25.624Z</time></trkpt><trkpt lat="45.6031874" lon="11.5396674"><ele>39.833333333333336</ele><time>2026-04-11T14:14:29.626Z</time></trkpt><trkpt lat="45.6031019" lon="11.5396654"><ele>40.0</ele><time>2026-04-11T14:14:33.629Z</time></trkpt><trkpt lat="45.60303" lon="11.5396649"><ele>40.0</ele><time>2026-04-11T14:14:36.627Z</time></trkpt><trkpt lat="45.6029599" lon="11.5396724"><ele>40.0</ele><time>2026-04-11T14:14:39.627Z</time></trkpt><trkpt lat="45.6028864" lon="11.5396732"><ele>40.0</ele><time>2026-04-11T14:14:42.627Z</time></trkpt><trkpt lat="45.6028109" lon="11.5396746"><ele>40.0</ele><time>2026-04-11T14:14:45.626Z</time></trkpt><trkpt lat="45.602731" lon="11.5396844"><ele>40.0</ele><time>2026-04-11T14:14:48.626Z</time></trkpt><trkpt lat="45.6026595" lon="11.5396974"><ele>40.0</ele><time>2026-04-11T14:14:51.627Z</time></trkpt><trkpt lat="45.6025869" lon="11.5397057"><ele>40.0</ele><time>2026-04-11T14:14:54.625Z</time></trkpt><trkpt lat="45.6025022" lon="11.5397014"><ele>40.16666666666667</ele><time>2026-04-11T14:14:57.625Z</time></trkpt><trkpt lat="45.6024208" lon="11.539698"><ele>40.333333333333336</ele><time>2026-04-11T14:15:00.627Z</time></trkpt><trkpt lat="45.6023392" lon="11.5397057"><ele>40.5</ele><time>2026-04-11T14:15:03.623Z</time></trkpt><trkpt lat="45.6022544" lon="11.5397119"><ele>40.666666666666664</ele><time>2026-04-11T14:15:06.626Z</time></trkpt><trkpt lat="45.6021697" lon="11.5397197"><ele>40.83333333333333</ele><time>2026-04-11T14:15:09.627Z</time></trkpt><trkpt lat="45.60209" lon="11.5397189"><ele>41.0</ele><time>2026-04-11T14:15:12.626Z</time></trkpt><trkpt lat="45.6020155" lon="11.5397216"><ele>40.99999999999999</ele><time>2026-04-11T14:15:15.625Z</time></trkpt><trkpt lat="45.6019515" lon="11.5397226"><ele>41.0</ele><time>2026-04-11T14:15:18.624Z</time></trkpt><trkpt lat="45.6018875" lon="11.539721"><ele>41.0</ele><time>2026-04-11T14:15:21.625Z</time></trkpt><trkpt lat="45.6018193" lon="11.5397215"><ele>41.0</ele><time>2026-04-11T14:15:24.624Z</time></trkpt><trkpt lat="45.6017414" lon="11.5397169"><ele>41.0</ele><time>2026-04-11T14:15:27.626Z</time></trkpt><trkpt lat="45.6016716" lon="11.5396856"><ele>40.99999999999999</ele><time>2026-04-11T14:15:30.627Z</time></trkpt><trkpt lat="45.6015976" lon="11.5396558"><ele>41.0</ele><time>2026-04-11T14:15:33.625Z</time></trkpt><trkpt lat="45.601526" lon="11.5396236"><ele>40.99999999999999</ele><time>2026-04-11T14:15:36.618Z</time></trkpt><trkpt lat="45.6014651" lon="11.5395586"><ele>41.0</ele><time>2026-04-11T14:15:40.628Z</time></trkpt><trkpt lat="45.6014029" lon="11.5394768"><ele>41.0</ele><time>2026-04-11T14:15:44.626Z</time></trkpt><trkpt lat="45.6013481" lon="11.5394012"><ele>41.0</ele><time>2026-04-11T14:15:48.626Z</time></trkpt><trkpt lat="45.6013013" lon="11.5393334"><ele>41.0</ele><time>2026-04-11T14:15:53.626Z</time></trkpt><trkpt lat="45.6012525" lon="11.5392666"><ele>40.99999999999999</ele><time>2026-04-11T14:15:57.627Z</time></trkpt><trkpt lat="45.6012012" lon="11.5391862"><ele>41.0</ele><time>2026-04-11T14:16:02.619Z</time></trkpt><trkpt lat="45.601156" lon="11.5391143"><ele>40.99999999999999</ele><time>2026-04-11T14:16:40.626Z</time></trkpt><trkpt lat="45.6011153" lon="11.5390437"><ele>41.0</ele><time>2026-04-11T14:16:46.626Z</time></trkpt><trkpt lat="45.6010806" lon="11.5389587"><ele>41.0</ele><time>2026-04-11T14:16:50.625Z</time></trkpt><trkpt lat="45.6010518" lon="11.5388724"><ele>41.0</ele><time>2026-04-11T14:17:52.628Z</time></trkpt><trkpt lat="45.6010315" lon="11.5387869"><ele>41.0</ele><time>2026-04-11T14:17:56.628Z</time></trkpt><trkpt lat="45.6010162" lon="11.5386796"><ele>40.99999999999999</ele><time>2026-04-11T14:18:00.628Z</time></trkpt><trkpt lat="45.6009987" lon="11.5385888"><ele>41.0</ele><time>2026-04-11T14:18:03.628Z</time></trkpt><trkpt lat="45.6009835" lon="11.5384948"><ele>40.99999999999999</ele><time>2026-04-11T14:18:06.629Z</time></trkpt><trkpt lat="45.6009678" lon="11.5383929"><ele>41.0</ele><time>2026-04-11T14:18:09.628Z</time></trkpt><trkpt lat="45.6009469" lon="11.5382898"><ele>41.0</ele><time>2026-04-11T14:18:12.626Z</time></trkpt><trkpt lat="45.6009304" lon="11.5381977"><ele>41.0</ele><time>2026-04-11T14:18:15.627Z</time></trkpt><trkpt lat="45.6009078" lon="11.5380932"><ele>41.0</ele><time>2026-04-11T14:18:19.629Z</time></trkpt><trkpt lat="45.6008892" lon="11.537997"><ele>40.99999999999999</ele><time>2026-04-11T14:18:22.627Z</time></trkpt><trkpt lat="45.6008747" lon="11.5379017"><ele>41.0</ele><time>2026-04-11T14:18:25.626Z</time></trkpt><trkpt lat="45.6008662" lon="11.5377949"><ele>41.0</ele><time>2026-04-11T14:18:28.629Z</time></trkpt><trkpt lat="45.6008491" lon="11.5376929"><ele>41.0</ele><time>2026-04-11T14:18:31.627Z</time></trkpt><trkpt lat="45.600828" lon="11.5375819"><ele>41.0</ele><time>2026-04-11T14:18:34.63Z</time></trkpt><trkpt lat="45.6008112" lon="11.5374558"><ele>41.0</ele><time>2026-04-11T14:18:37.629Z</time></trkpt><trkpt lat="45.6007907" lon="11.5373496"><ele>41.0</ele><time>2026-04-11T14:18:40.628Z</time></trkpt><trkpt lat="45.6007673" lon="11.5372443"><ele>41.0</ele><time>2026-04-11T14:18:43.628Z</time></trkpt><trkpt lat="45.6007517" lon="11.5371429"><ele>40.99999999999999</ele><time>2026-04-11T14:18:46.63Z</time></trkpt><trkpt lat="45.6007248" lon="11.537055"><ele>41.0</ele><time>2026-04-11T14:18:49.631Z</time></trkpt><trkpt lat="45.6006686" lon="11.5369756"><ele>41.0</ele><time>2026-04-11T14:18:53.63Z</time></trkpt><trkpt lat="45.6006103" lon="11.5369336"><ele>41.0</ele><time>2026-04-11T14:18:56.629Z</time></trkpt><trkpt lat="45.6005337" lon="11.5368949"><ele>41.0</ele><time>2026-04-11T14:19:00.631Z</time></trkpt><trkpt lat="45.6004658" lon="11.5368767"><ele>40.99999999999999</ele><time>2026-04-11T14:19:04.629Z</time></trkpt><trkpt lat="45.6003996" lon="11.5368666"><ele>41.0</ele><time>2026-04-11T14:19:08.631Z</time></trkpt><trkpt lat="45.6003281" lon="11.5368739"><ele>40.83333333333333</ele><time>2026-04-11T14:19:43.634Z</time></trkpt><trkpt lat="45.6002451" lon="11.536852"><ele>40.666666666666664</ele><time>2026-04-11T14:19:47.625Z</time></trkpt><trkpt lat="45.6001979" lon="11.5367916"><ele>40.5</ele><time>2026-04-11T14:22:28.637Z</time></trkpt><trkpt lat="45.6001225" lon="11.536768"><ele>40.333333333333336</ele><time>2026-04-11T14:22:33.631Z</time></trkpt><trkpt lat="45.6000333" lon="11.5367476"><ele>40.16666666666667</ele><time>2026-04-11T14:22:37.631Z</time></trkpt><trkpt lat="45.5999676" lon="11.5367374"><ele>40.0</ele><time>2026-04-11T14:22:39.634Z</time></trkpt><trkpt lat="45.5998838" lon="11.5367194"><ele>40.0</ele><time>2026-04-11T14:22:42.63Z</time></trkpt><trkpt lat="45.5998113" lon="11.5367065"><ele>40.0</ele><time>2026-04-11T14:22:45.629Z</time></trkpt><trkpt lat="45.5997421" lon="11.5367107"><ele>40.0</ele><time>2026-04-11T14:22:48.633Z</time></trkpt><trkpt lat="45.5996617" lon="11.5367115"><ele>40.0</ele><time>2026-04-11T14:22:51.632Z</time></trkpt><trkpt lat="45.5995799" lon="11.5367089"><ele>40.0</ele><time>2026-04-11T14:22:54.63Z</time></trkpt><trkpt lat="45.5995019" lon="11.5367058"><ele>40.0</ele><time>2026-04-11T14:22:57.633Z</time></trkpt><trkpt lat="45.5994289" lon="11.5367198"><ele>40.0</ele><time>2026-04-11T14:23:00.636Z</time></trkpt><trkpt lat="45.5993573" lon="11.5367193"><ele>40.0</ele><time>2026-04-11T14:23:03.636Z</time></trkpt><trkpt lat="45.5992927" lon="11.5367282"><ele>40.0</ele><time>2026-04-11T14:23:06.638Z</time></trkpt><trkpt lat="45.5992126" lon="11.5367505"><ele>40.0</ele><time>2026-04-11T14:23:09.631Z</time></trkpt><trkpt lat="45.5990947" lon="11.5367643"><ele>40.0</ele><time>2026-04-11T14:23:13.632Z</time></trkpt><trkpt lat="45.5990182" lon="11.5367922"><ele>40.0</ele><time>2026-04-11T14:23:16.63Z</time></trkpt><trkpt lat="45.5989469" lon="11.5368229"><ele>40.0</ele><time>2026-04-11T14:23:20.631Z</time></trkpt><trkpt lat="45.5988842" lon="11.5368495"><ele>40.0</ele><time>2026-04-11T14:23:56.627Z</time></trkpt><trkpt lat="45.5988125" lon="11.5368146"><ele>40.0</ele><time>2026-04-11T14:24:00.629Z</time></trkpt><trkpt lat="45.5987495" lon="11.5368257"><ele>40.0</ele><time>2026-04-11T14:24:03.63Z</time></trkpt><trkpt lat="45.5986866" lon="11.5368411"><ele>40.0</ele><time>2026-04-11T14:24:06.627Z</time></trkpt><trkpt lat="45.5986178" lon="11.5368215"><ele>40.0</ele><time>2026-04-11T14:24:12.628Z</time></trkpt><trkpt lat="45.5985506" lon="11.5368556"><ele>40.0</ele><time>2026-04-11T14:24:17.628Z</time></trkpt><trkpt lat="45.598467" lon="11.5368521"><ele>39.857142857142854</ele><time>2026-04-11T14:24:21.628Z</time></trkpt><trkpt lat="45.5983981" lon="11.5368812"><ele>39.714285714285715</ele><time>2026-04-11T14:24:24.628Z</time></trkpt><trkpt lat="45.598323" lon="11.5368968"><ele>39.57142857142857</ele><time>2026-04-11T14:24:27.632Z</time></trkpt><trkpt lat="45.5982564" lon="11.5368963"><ele>39.42857142857143</ele><time>2026-04-11T14:24:30.628Z</time></trkpt><trkpt lat="45.5981906" lon="11.536876"><ele>39.285714285714285</ele><time>2026-04-11T14:24:34.629Z</time></trkpt><trkpt lat="45.5981111" lon="11.5368723"><ele>39.142857142857146</ele><time>2026-04-11T14:24:38.63Z</time></trkpt><trkpt lat="45.5980476" lon="11.536873"><ele>39.0</ele><time>2026-04-11T14:24:41.627Z</time></trkpt><trkpt lat="45.5979804" lon="11.5368782"><ele>39.0</ele><time>2026-04-11T14:24:45.627Z</time></trkpt><trkpt lat="45.5979125" lon="11.5368601"><ele>39.0</ele><time>2026-04-11T14:24:49.629Z</time></trkpt><trkpt lat="45.597847" lon="11.5368453"><ele>39.0</ele><time>2026-04-11T14:24:55.63Z</time></trkpt><trkpt lat="45.5977758" lon="11.5368357"><ele>39.0</ele><time>2026-04-11T14:25:01.628Z</time></trkpt><trkpt lat="45.5977019" lon="11.5368146"><ele>39.0</ele><time>2026-04-11T14:25:06.627Z</time></trkpt><trkpt lat="45.5976245" lon="11.5368111"><ele>39.0</ele><time>2026-04-11T14:25:11.626Z</time></trkpt><trkpt lat="45.5975509" lon="11.5367955"><ele>39.0</ele><time>2026-04-11T14:25:15.627Z</time></trkpt><trkpt lat="45.5974872" lon="11.5367829"><ele>38.833333333333336</ele><time>2026-04-11T14:25:18.627Z</time></trkpt><trkpt lat="45.5974157" lon="11.5367755"><ele>38.666666666666664</ele><time>2026-04-11T14:25:22.628Z</time></trkpt><trkpt lat="45.5973342" lon="11.5367599"><ele>38.5</ele><time>2026-04-11T14:25:26.626Z</time></trkpt><trkpt lat="45.5972551" lon="11.5367611"><ele>38.33333333333333</ele><time>2026-04-11T14:25:30.626Z</time></trkpt><trkpt lat="45.5971787" lon="11.5367621"><ele>38.166666666666664</ele><time>2026-04-11T14:25:34.628Z</time></trkpt><trkpt lat="45.5971003" lon="11.5367409"><ele>38.0</ele><time>2026-04-11T14:25:38.627Z</time></trkpt><trkpt lat="45.5970361" lon="11.5367393"><ele>37.857142857142854</ele><time>2026-04-11T14:25:41.626Z</time></trkpt><trkpt lat="45.5969588" lon="11.5367374"><ele>37.714285714285715</ele><time>2026-04-11T14:25:45.625Z</time></trkpt><trkpt lat="45.5968958" lon="11.5367286"><ele>37.57142857142857</ele><time>2026-04-11T14:25:48.626Z</time></trkpt><trkpt lat="45.5968293" lon="11.5367239"><ele>37.42857142857143</ele><time>2026-04-11T14:25:51.624Z</time></trkpt><trkpt lat="45.5967642" lon="11.5367353"><ele>37.285714285714285</ele><time>2026-04-11T14:25:54.623Z</time></trkpt><trkpt lat="45.5966937" lon="11.5367522"><ele>37.142857142857146</ele><time>2026-04-11T14:25:57.625Z</time></trkpt><trkpt lat="45.5966282" lon="11.536772"><ele>37.0</ele><time>2026-04-11T14:26:00.626Z</time></trkpt><trkpt lat="45.5965666" lon="11.5368024"><ele>37.0</ele><time>2026-04-11T14:26:03.625Z</time></trkpt><trkpt lat="45.5965015" lon="11.5368192"><ele>37.0</ele><time>2026-04-11T14:26:06.627Z</time></trkpt><trkpt lat="45.5964375" lon="11.5368371"><ele>37.0</ele><time>2026-04-11T14:26:09.627Z</time></trkpt><trkpt lat="45.596377" lon="11.5368851"><ele>37.0</ele><time>2026-04-11T14:26:12.624Z</time></trkpt><trkpt lat="45.596307" lon="11.5369256"><ele>37.0</ele><time>2026-04-11T14:26:15.624Z</time></trkpt><trkpt lat="45.5962379" lon="11.5369619"><ele>37.0</ele><time>2026-04-11T14:26:18.618Z</time></trkpt><trkpt lat="45.596163" lon="11.5369878"><ele>37.0</ele><time>2026-04-11T14:26:21.62Z</time></trkpt><trkpt lat="45.5960973" lon="11.5370275"><ele>37.333333333333336</ele><time>2026-04-11T14:26:24.625Z</time></trkpt><trkpt lat="45.5960309" lon="11.5370553"><ele>37.66666666666667</ele><time>2026-04-11T14:26:27.624Z</time></trkpt><trkpt lat="45.5959604" lon="11.5370946"><ele>38.0</ele><time>2026-04-11T14:26:30.624Z</time></trkpt><trkpt lat="45.5958805" lon="11.5371221"><ele>38.333333333333336</ele><time>2026-04-11T14:26:33.627Z</time></trkpt><trkpt lat="45.5958023" lon="11.5371546"><ele>38.666666666666664</ele><time>2026-04-11T14:26:36.627Z</time></trkpt><trkpt lat="45.595718" lon="11.5371864"><ele>39.0</ele><time>2026-04-11T14:26:39.626Z</time></trkpt><trkpt lat="45.5956338" lon="11.5372124"><ele>39.0</ele><time>2026-04-11T14:26:42.624Z</time></trkpt><trkpt lat="45.5955479" lon="11.5372448"><ele>39.0</ele><time>2026-04-11T14:26:45.626Z</time></trkpt><trkpt lat="45.5954667" lon="11.5372811"><ele>39.0</ele><time>2026-04-11T14:26:48.626Z</time></trkpt><trkpt lat="45.5953786" lon="11.5373116"><ele>39.0</ele><time>2026-04-11T14:26:51.627Z</time></trkpt><trkpt lat="45.5952986" lon="11.537342"><ele>39.0</ele><time>2026-04-11T14:26:54.619Z</time></trkpt><trkpt lat="45.59522" lon="11.5373694"><ele>39.0</ele><time>2026-04-11T14:26:57.625Z</time></trkpt><trkpt lat="45.5951294" lon="11.5373931"><ele>39.0</ele><time>2026-04-11T14:27:00.626Z</time></trkpt><trkpt lat="45.5950603" lon="11.5374184"><ele>39.0</ele><time>2026-04-11T14:27:02.627Z</time></trkpt><trkpt lat="45.5949865" lon="11.5374547"><ele>39.0</ele><time>2026-04-11T14:27:04.627Z</time></trkpt><trkpt lat="45.5949159" lon="11.5374868"><ele>39.0</ele><time>2026-04-11T14:27:06.626Z</time></trkpt><trkpt lat="45.5948481" lon="11.537519"><ele>39.0</ele><time>2026-04-11T14:27:08.627Z</time></trkpt><trkpt lat="45.5947778" lon="11.537546"><ele>39.0</ele><time>2026-04-11T14:27:10.625Z</time></trkpt><trkpt lat="45.5947091" lon="11.5375768"><ele>39.0</ele><time>2026-04-11T14:27:12.626Z</time></trkpt><trkpt lat="45.5946331" lon="11.5376143"><ele>39.0</ele><time>2026-04-11T14:27:15.625Z</time></trkpt><trkpt lat="45.5945598" lon="11.5376509"><ele>39.0</ele><time>2026-04-11T14:27:18.626Z</time></trkpt><trkpt lat="45.5944912" lon="11.5376822"><ele>39.0</ele><time>2026-04-11T14:27:20.625Z</time></trkpt><trkpt lat="45.594421" lon="11.5377134"><ele>39.0</ele><time>2026-04-11T14:27:22.626Z</time></trkpt><trkpt lat="45.5943577" lon="11.5377498"><ele>39.0</ele><time>2026-04-11T14:27:24.626Z</time></trkpt><trkpt lat="45.5942983" lon="11.5377895"><ele>39.0</ele><time>2026-04-11T14:27:27.625Z</time></trkpt><trkpt lat="45.5942149" lon="11.5378311"><ele>39.0</ele><time>2026-04-11T14:27:31.625Z</time></trkpt><trkpt lat="45.5941375" lon="11.5378622"><ele>39.0</ele><time>2026-04-11T14:27:34.626Z</time></trkpt><trkpt lat="45.5940687" lon="11.5378968"><ele>39.0</ele><time>2026-04-11T14:27:37.625Z</time></trkpt><trkpt lat="45.5940075" lon="11.5379437"><ele>39.0</ele><time>2026-04-11T14:27:40.628Z</time></trkpt><trkpt lat="45.5939357" lon="11.5379851"><ele>39.0</ele><time>2026-04-11T14:27:43.627Z</time></trkpt><trkpt lat="45.5938748" lon="11.5380251"><ele>39.0</ele><time>2026-04-11T14:27:46.626Z</time></trkpt><trkpt lat="45.5938173" lon="11.5380687"><ele>39.0</ele><time>2026-04-11T14:27:49.627Z</time></trkpt><trkpt lat="45.5937511" lon="11.5380974"><ele>39.0</ele><time>2026-04-11T14:27:52.625Z</time></trkpt><trkpt lat="45.5936808" lon="11.5381398"><ele>39.0</ele><time>2026-04-11T14:27:55.626Z</time></trkpt><trkpt lat="45.5936" lon="11.538188"><ele>39.0</ele><time>2026-04-11T14:27:58.626Z</time></trkpt><trkpt lat="45.5935441" lon="11.5382313"><ele>39.0</ele><time>2026-04-11T14:28:00.625Z</time></trkpt><trkpt lat="45.5934884" lon="11.5382753"><ele>39.0</ele><time>2026-04-11T14:28:02.627Z</time></trkpt><trkpt lat="45.5934058" lon="11.53834"><ele>39.0</ele><time>2026-04-11T14:28:05.627Z</time></trkpt><trkpt lat="45.593327" lon="11.5383998"><ele>39.0</ele><time>2026-04-11T14:28:08.628Z</time></trkpt><trkpt lat="45.593266" lon="11.5384504"><ele>39.0</ele><time>2026-04-11T14:28:11.624Z</time></trkpt><trkpt lat="45.5932098" lon="11.5385019"><ele>39.0</ele><time>2026-04-11T14:28:14.625Z</time></trkpt><trkpt lat="45.5931365" lon="11.5385712"><ele>39.0</ele><time>2026-04-11T14:28:17.62Z</time></trkpt><trkpt lat="45.593081" lon="11.5386234"><ele>39.0</ele><time>2026-04-11T14:28:19.628Z</time></trkpt><trkpt lat="45.5930118" lon="11.5387037"><ele>39.0</ele><time>2026-04-11T14:28:22.619Z</time></trkpt><trkpt lat="45.5929397" lon="11.5387807"><ele>39.0</ele><time>2026-04-11T14:28:25.624Z</time></trkpt><trkpt lat="45.5928669" lon="11.5388541"><ele>38.85714285714286</ele><time>2026-04-11T14:28:28.625Z</time></trkpt><trkpt lat="45.5928157" lon="11.5389114"><ele>38.71428571428571</ele><time>2026-04-11T14:28:30.628Z</time></trkpt><trkpt lat="45.5927617" lon="11.5389702"><ele>38.57142857142857</ele><time>2026-04-11T14:28:32.628Z</time></trkpt><trkpt lat="45.5927115" lon="11.5390356"><ele>38.42857142857143</ele><time>2026-04-11T14:28:34.628Z</time></trkpt><trkpt lat="45.5926604" lon="11.5390941"><ele>38.28571428571429</ele><time>2026-04-11T14:28:36.628Z</time></trkpt><trkpt lat="45.5926144" lon="11.5391625"><ele>38.14285714285714</ele><time>2026-04-11T14:28:38.629Z</time></trkpt><trkpt lat="45.5925691" lon="11.5392307"><ele>38.0</ele><time>2026-04-11T14:28:40.627Z</time></trkpt><trkpt lat="45.5925173" lon="11.5392896"><ele>38.0</ele><time>2026-04-11T14:28:42.625Z</time></trkpt><trkpt lat="45.5924668" lon="11.5393564"><ele>38.0</ele><time>2026-04-11T14:28:44.625Z</time></trkpt><trkpt lat="45.592427" lon="11.5394301"><ele>38.0</ele><time>2026-04-11T14:28:46.625Z</time></trkpt><trkpt lat="45.592375" lon="11.539531"><ele>38.0</ele><time>2026-04-11T14:28:49.627Z</time></trkpt><trkpt lat="45.5923258" lon="11.5396035"><ele>38.0</ele><time>2026-04-11T14:28:52.625Z</time></trkpt><trkpt lat="45.5922764" lon="11.5396865"><ele>38.0</ele><time>2026-04-11T14:28:55.626Z</time></trkpt><trkpt lat="45.5922192" lon="11.5397809"><ele>38.0</ele><time>2026-04-11T14:28:58.627Z</time></trkpt><trkpt lat="45.592179" lon="11.5398647"><ele>38.0</ele><time>2026-04-11T14:29:01.626Z</time></trkpt><trkpt lat="45.5921231" lon="11.5399634"><ele>38.0</ele><time>2026-04-11T14:29:05.628Z</time></trkpt><trkpt lat="45.5920784" lon="11.5400433"><ele>38.0</ele><time>2026-04-11T14:29:08.626Z</time></trkpt><trkpt lat="45.5920237" lon="11.5401265"><ele>38.0</ele><time>2026-04-11T14:29:11.626Z</time></trkpt><trkpt lat="45.591974" lon="11.5402113"><ele>38.0</ele><time>2026-04-11T14:29:14.626Z</time></trkpt><trkpt lat="45.5919263" lon="11.5403046"><ele>38.166666666666664</ele><time>2026-04-11T14:29:17.625Z</time></trkpt><trkpt lat="45.5918753" lon="11.5404017"><ele>38.33333333333333</ele><time>2026-04-11T14:29:20.626Z</time></trkpt><trkpt lat="45.591821" lon="11.5405"><ele>38.5</ele><time>2026-04-11T14:29:23.624Z</time></trkpt><trkpt lat="45.5917603" lon="11.5405865"><ele>38.666666666666664</ele><time>2026-04-11T14:29:26.626Z</time></trkpt><trkpt lat="45.5916999" lon="11.5406784"><ele>38.833333333333336</ele><time>2026-04-11T14:29:29.626Z</time></trkpt><trkpt lat="45.5916416" lon="11.5407549"><ele>39.0</ele><time>2026-04-11T14:29:32.622Z</time></trkpt><trkpt lat="45.5916001" lon="11.5408246"><ele>39.0</ele><time>2026-04-11T14:29:35.628Z</time></trkpt><trkpt lat="45.59155" lon="11.5409099"><ele>39.0</ele><time>2026-04-11T14:29:38.628Z</time></trkpt><trkpt lat="45.5914977" lon="11.5410072"><ele>39.0</ele><time>2026-04-11T14:29:41.625Z</time></trkpt><trkpt lat="45.5914527" lon="11.5410905"><ele>39.0</ele><time>2026-04-11T14:29:44.626Z</time></trkpt><trkpt lat="45.5913978" lon="11.5411755"><ele>39.0</ele><time>2026-04-11T14:29:47.626Z</time></trkpt><trkpt lat="45.5913298" lon="11.5412694"><ele>39.0</ele><time>2026-04-11T14:29:50.625Z</time></trkpt><trkpt lat="45.591265" lon="11.5413604"><ele>38.833333333333336</ele><time>2026-04-11T14:29:53.628Z</time></trkpt><trkpt lat="45.5912125" lon="11.5414103"><ele>38.666666666666664</ele><time>2026-04-11T14:29:55.626Z</time></trkpt><trkpt lat="45.5911359" lon="11.5414676"><ele>38.5</ele><time>2026-04-11T14:29:58.627Z</time></trkpt><trkpt lat="45.5910573" lon="11.5415395"><ele>38.33333333333333</ele><time>2026-04-11T14:30:01.623Z</time></trkpt><trkpt lat="45.5909839" lon="11.5416092"><ele>38.166666666666664</ele><time>2026-04-11T14:30:04.623Z</time></trkpt><trkpt lat="45.5909115" lon="11.5416741"><ele>38.0</ele><time>2026-04-11T14:30:07.623Z</time></trkpt><trkpt lat="45.5908442" lon="11.5417438"><ele>38.0</ele><time>2026-04-11T14:30:10.624Z</time></trkpt><trkpt lat="45.5907678" lon="11.5418125"><ele>38.0</ele><time>2026-04-11T14:30:13.628Z</time></trkpt><trkpt lat="45.5906905" lon="11.5418643"><ele>38.0</ele><time>2026-04-11T14:30:16.627Z</time></trkpt><trkpt lat="45.5906164" lon="11.5419225"><ele>38.0</ele><time>2026-04-11T14:30:19.626Z</time></trkpt><trkpt lat="45.5905501" lon="11.541959"><ele>38.0</ele><time>2026-04-11T14:30:22.627Z</time></trkpt><trkpt lat="45.5904784" lon="11.5419445"><ele>38.0</ele><time>2026-04-11T14:30:25.627Z</time></trkpt><trkpt lat="45.5904329" lon="11.5418417"><ele>38.0</ele><time>2026-04-11T14:30:28.626Z</time></trkpt><trkpt lat="45.5904038" lon="11.5417584"><ele>38.0</ele><time>2026-04-11T14:30:31.625Z</time></trkpt><trkpt lat="45.5903361" lon="11.5416506"><ele>38.0</ele><time>2026-04-11T14:31:39.627Z</time></trkpt><trkpt lat="45.590278" lon="11.5415739"><ele>38.0</ele><time>2026-04-11T14:31:43.626Z</time></trkpt><trkpt lat="45.5902313" lon="11.5414916"><ele>38.0</ele><time>2026-04-11T14:31:46.627Z</time></trkpt><trkpt lat="45.5901842" lon="11.5414203"><ele>38.0</ele><time>2026-04-11T14:31:49.626Z</time></trkpt><trkpt lat="45.5901358" lon="11.5413307"><ele>38.0</ele><time>2026-04-11T14:31:52.623Z</time></trkpt><trkpt lat="45.5900829" lon="11.5412249"><ele>38.0</ele><time>2026-04-11T14:31:55.626Z</time></trkpt><trkpt lat="45.590032" lon="11.5411208"><ele>38.0</ele><time>2026-04-11T14:31:58.627Z</time></trkpt><trkpt lat="45.5899897" lon="11.5410402"><ele>38.0</ele><time>2026-04-11T14:32:01.624Z</time></trkpt><trkpt lat="45.5899445" lon="11.540967"><ele>38.0</ele><time>2026-04-11T14:32:04.627Z</time></trkpt><trkpt lat="45.589886" lon="11.5408814"><ele>38.0</ele><time>2026-04-11T14:32:07.627Z</time></trkpt><trkpt lat="45.5898335" lon="11.5408051"><ele>38.0</ele><time>2026-04-11T14:32:10.625Z</time></trkpt><trkpt lat="45.5897816" lon="11.5407331"><ele>38.0</ele><time>2026-04-11T14:32:14.626Z</time></trkpt><trkpt lat="45.5897433" lon="11.540659"><ele>38.0</ele><time>2026-04-11T14:32:18.627Z</time></trkpt><trkpt lat="45.5897044" lon="11.5405821"><ele>38.0</ele><time>2026-04-11T14:33:57.627Z</time></trkpt><trkpt lat="45.589656" lon="11.5404963"><ele>38.0</ele><time>2026-04-11T14:34:02.629Z</time></trkpt><trkpt lat="45.589631" lon="11.5404039"><ele>38.0</ele><time>2026-04-11T14:34:06.63Z</time></trkpt><trkpt lat="45.589582" lon="11.5403301"><ele>38.0</ele><time>2026-04-11T14:34:10.63Z</time></trkpt><trkpt lat="45.5895443" lon="11.5402333"><ele>38.166666666666664</ele><time>2026-04-11T14:34:36.629Z</time></trkpt><trkpt lat="45.5894888" lon="11.5401459"><ele>38.33333333333333</ele><time>2026-04-11T14:34:39.627Z</time></trkpt><trkpt lat="45.5894482" lon="11.5400669"><ele>38.5</ele><time>2026-04-11T14:34:43.627Z</time></trkpt><trkpt lat="45.5894066" lon="11.5399632"><ele>38.666666666666664</ele><time>2026-04-11T14:34:47.628Z</time></trkpt><trkpt lat="45.5893559" lon="11.5398553"><ele>38.833333333333336</ele><time>2026-04-11T14:34:51.626Z</time></trkpt><trkpt lat="45.5893141" lon="11.5397584"><ele>39.0</ele><time>2026-04-11T14:34:54.627Z</time></trkpt><trkpt lat="45.5892752" lon="11.5396708"><ele>39.0</ele><time>2026-04-11T14:34:57.627Z</time></trkpt><trkpt lat="45.5892334" lon="11.5395925"><ele>39.0</ele><time>2026-04-11T14:35:00.627Z</time></trkpt><trkpt lat="45.589192" lon="11.5395037"><ele>39.0</ele><time>2026-04-11T14:35:03.626Z</time></trkpt><trkpt lat="45.5891549" lon="11.5394161"><ele>39.0</ele><time>2026-04-11T14:35:06.626Z</time></trkpt><trkpt lat="45.5891236" lon="11.5393373"><ele>39.0</ele><time>2026-04-11T14:35:10.629Z</time></trkpt><trkpt lat="45.5890988" lon="11.5392451"><ele>39.0</ele><time>2026-04-11T14:35:15.626Z</time></trkpt><trkpt lat="45.5890574" lon="11.539165"><ele>39.0</ele><time>2026-04-11T14:35:21.624Z</time></trkpt><trkpt lat="45.5890163" lon="11.5390858"><ele>38.714285714285715</ele><time>2026-04-11T14:35:25.627Z</time></trkpt><trkpt lat="45.5889783" lon="11.5390066"><ele>38.42857142857142</ele><time>2026-04-11T14:35:29.626Z</time></trkpt><trkpt lat="45.5889341" lon="11.5389191"><ele>38.14285714285714</ele><time>2026-04-11T14:35:33.626Z</time></trkpt><trkpt lat="45.5888957" lon="11.5388274"><ele>37.85714285714286</ele><time>2026-04-11T14:35:37.628Z</time></trkpt><trkpt lat="45.5888532" lon="11.538758"><ele>37.57142857142857</ele><time>2026-04-11T14:35:40.627Z</time></trkpt><trkpt lat="45.5888047" lon="11.5386984"><ele>37.285714285714285</ele><time>2026-04-11T14:35:43.625Z</time></trkpt><trkpt lat="45.5887406" lon="11.5386263"><ele>37.0</ele><time>2026-04-11T14:35:47.627Z</time></trkpt><trkpt lat="45.58869" lon="11.5385702"><ele>37.142857142857146</ele><time>2026-04-11T14:35:50.626Z</time></trkpt><trkpt lat="45.5886409" lon="11.5385055"><ele>37.285714285714285</ele><time>2026-04-11T14:35:53.619Z</time></trkpt><trkpt lat="45.5885985" lon="11.5384341"><ele>37.42857142857143</ele><time>2026-04-11T14:35:56.626Z</time></trkpt><trkpt lat="45.5885446" lon="11.5383711"><ele>37.57142857142857</ele><time>2026-04-11T14:35:59.627Z</time></trkpt><trkpt lat="45.5884912" lon="11.5383147"><ele>37.714285714285715</ele><time>2026-04-11T14:36:02.629Z</time></trkpt><trkpt lat="45.5884434" lon="11.5382452"><ele>37.857142857142854</ele><time>2026-04-11T14:36:05.628Z</time></trkpt><trkpt lat="45.5883918" lon="11.5381765"><ele>38.0</ele><time>2026-04-11T14:36:08.628Z</time></trkpt><trkpt lat="45.5883325" lon="11.5381035"><ele>38.0</ele><time>2026-04-11T14:36:11.624Z</time></trkpt><trkpt lat="45.5882668" lon="11.5380316"><ele>38.0</ele><time>2026-04-11T14:36:14.627Z</time></trkpt><trkpt lat="45.5882019" lon="11.5379685"><ele>38.0</ele><time>2026-04-11T14:36:17.623Z</time></trkpt><trkpt lat="45.5881421" lon="11.5379035"><ele>38.0</ele><time>2026-04-11T14:36:20.625Z</time></trkpt><trkpt lat="45.5880849" lon="11.5378433"><ele>38.0</ele><time>2026-04-11T14:36:23.627Z</time></trkpt><trkpt lat="45.5880264" lon="11.5377702"><ele>38.0</ele><time>2026-04-11T14:36:26.625Z</time></trkpt><trkpt lat="45.5879507" lon="11.5376972"><ele>37.83333333333333</ele><time>2026-04-11T14:36:29.627Z</time></trkpt><trkpt lat="45.5878939" lon="11.537642"><ele>37.666666666666664</ele><time>2026-04-11T14:36:31.63Z</time></trkpt><trkpt lat="45.5878442" lon="11.537577"><ele>37.5</ele><time>2026-04-11T14:36:33.631Z</time></trkpt><trkpt lat="45.5877745" lon="11.5374859"><ele>37.333333333333336</ele><time>2026-04-11T14:36:36.63Z</time></trkpt><trkpt lat="45.5877056" lon="11.5374086"><ele>37.16666666666667</ele><time>2026-04-11T14:36:39.629Z</time></trkpt><trkpt lat="45.587638" lon="11.537331"><ele>37.0</ele><time>2026-04-11T14:36:42.623Z</time></trkpt><trkpt lat="45.5875755" lon="11.5372746"><ele>37.16666666666667</ele><time>2026-04-11T14:36:45.626Z</time></trkpt><trkpt lat="45.5875134" lon="11.5372099"><ele>37.333333333333336</ele><time>2026-04-11T14:36:48.626Z</time></trkpt><trkpt lat="45.5874584" lon="11.5371491"><ele>37.5</ele><time>2026-04-11T14:36:51.619Z</time></trkpt><trkpt lat="45.5873907" lon="11.5370912"><ele>37.666666666666664</ele><time>2026-04-11T14:36:55.627Z</time></trkpt><trkpt lat="45.587337" lon="11.5370334"><ele>37.83333333333333</ele><time>2026-04-11T14:36:58.627Z</time></trkpt><trkpt lat="45.5872772" lon="11.5369559"><ele>38.0</ele><time>2026-04-11T14:37:01.629Z</time></trkpt><trkpt lat="45.5872112" lon="11.5368924"><ele>38.0</ele><time>2026-04-11T14:37:04.628Z</time></trkpt><trkpt lat="45.5871372" lon="11.5368257"><ele>38.0</ele><time>2026-04-11T14:37:07.627Z</time></trkpt><trkpt lat="45.5870674" lon="11.5367614"><ele>38.0</ele><time>2026-04-11T14:37:10.627Z</time></trkpt><trkpt lat="45.5870082" lon="11.5367113"><ele>38.0</ele><time>2026-04-11T14:37:13.628Z</time></trkpt><trkpt lat="45.5869445" lon="11.5366509"><ele>38.0</ele><time>2026-04-11T14:37:16.624Z</time></trkpt><trkpt lat="45.5868761" lon="11.5365615"><ele>38.0</ele><time>2026-04-11T14:37:19.626Z</time></trkpt><trkpt lat="45.5868063" lon="11.536481"><ele>38.166666666666664</ele><time>2026-04-11T14:37:22.625Z</time></trkpt><trkpt lat="45.5867366" lon="11.5364141"><ele>38.33333333333333</ele><time>2026-04-11T14:37:25.626Z</time></trkpt><trkpt lat="45.5866549" lon="11.5363649"><ele>38.5</ele><time>2026-04-11T14:37:28.626Z</time></trkpt><trkpt lat="45.5865706" lon="11.536315"><ele>38.666666666666664</ele><time>2026-04-11T14:37:31.628Z</time></trkpt><trkpt lat="45.5865087" lon="11.5362942"><ele>38.833333333333336</ele><time>2026-04-11T14:37:33.627Z</time></trkpt><trkpt lat="45.5864239" lon="11.5362494"><ele>39.0</ele><time>2026-04-11T14:37:36.626Z</time></trkpt><trkpt lat="45.5863397" lon="11.5362007"><ele>38.833333333333336</ele><time>2026-04-11T14:37:39.629Z</time></trkpt><trkpt lat="45.5862693" lon="11.5361586"><ele>38.666666666666664</ele><time>2026-04-11T14:37:42.625Z</time></trkpt><trkpt lat="45.5861986" lon="11.5361262"><ele>38.5</ele><time>2026-04-11T14:37:45.626Z</time></trkpt><trkpt lat="45.5861186" lon="11.5360921"><ele>38.33333333333333</ele><time>2026-04-11T14:37:48.625Z</time></trkpt><trkpt lat="45.5860385" lon="11.5360533"><ele>38.166666666666664</ele><time>2026-04-11T14:37:51.626Z</time></trkpt><trkpt lat="45.5859625" lon="11.5360158"><ele>38.0</ele><time>2026-04-11T14:37:54.626Z</time></trkpt><trkpt lat="45.5858796" lon="11.5359959"><ele>38.0</ele><time>2026-04-11T14:37:57.626Z</time></trkpt><trkpt lat="45.585796" lon="11.5359716"><ele>38.0</ele><time>2026-04-11T14:38:00.624Z</time></trkpt><trkpt lat="45.5857168" lon="11.5359351"><ele>38.0</ele><time>2026-04-11T14:38:03.625Z</time></trkpt><trkpt lat="45.5856458" lon="11.5359107"><ele>38.0</ele><time>2026-04-11T14:38:06.625Z</time></trkpt><trkpt lat="45.585573" lon="11.5358868"><ele>38.0</ele><time>2026-04-11T14:38:09.627Z</time></trkpt><trkpt lat="45.585494" lon="11.5358788"><ele>38.0</ele><time>2026-04-11T14:38:12.625Z</time></trkpt><trkpt lat="45.5854125" lon="11.5358681"><ele>38.166666666666664</ele><time>2026-04-11T14:38:15.626Z</time></trkpt><trkpt lat="45.5853336" lon="11.5358554"><ele>38.33333333333333</ele><time>2026-04-11T14:38:18.626Z</time></trkpt><trkpt lat="45.5852538" lon="11.5358437"><ele>38.5</ele><time>2026-04-11T14:38:21.626Z</time></trkpt><trkpt lat="45.5851755" lon="11.5358283"><ele>38.666666666666664</ele><time>2026-04-11T14:38:24.626Z</time></trkpt><trkpt lat="45.5850992" lon="11.5358294"><ele>38.833333333333336</ele><time>2026-04-11T14:38:27.625Z</time></trkpt><trkpt lat="45.5850233" lon="11.5358289"><ele>39.0</ele><time>2026-04-11T14:38:30.626Z</time></trkpt><trkpt lat="45.5849465" lon="11.5358475"><ele>39.0</ele><time>2026-04-11T14:38:33.628Z</time></trkpt><trkpt lat="45.5848698" lon="11.5358606"><ele>39.0</ele><time>2026-04-11T14:38:36.628Z</time></trkpt><trkpt lat="45.5848002" lon="11.5358588"><ele>39.0</ele><time>2026-04-11T14:38:39.628Z</time></trkpt><trkpt lat="45.5847231" lon="11.5358382"><ele>39.0</ele><time>2026-04-11T14:38:42.627Z</time></trkpt><trkpt lat="45.5846427" lon="11.5358297"><ele>39.0</ele><time>2026-04-11T14:38:45.629Z</time></trkpt><trkpt lat="45.5845656" lon="11.5358265"><ele>39.0</ele><time>2026-04-11T14:38:48.625Z</time></trkpt><trkpt lat="45.5844865" lon="11.5358268"><ele>38.666666666666664</ele><time>2026-04-11T14:38:51.626Z</time></trkpt><trkpt lat="45.5844035" lon="11.535841"><ele>38.333333333333336</ele><time>2026-04-11T14:38:54.626Z</time></trkpt><trkpt lat="45.5843329" lon="11.535853"><ele>38.0</ele><time>2026-04-11T14:38:57.626Z</time></trkpt><trkpt lat="45.5842697" lon="11.5358552"><ele>37.66666666666667</ele><time>2026-04-11T14:39:00.624Z</time></trkpt><trkpt lat="45.5841858" lon="11.5358614"><ele>37.333333333333336</ele><time>2026-04-11T14:39:04.625Z</time></trkpt><trkpt lat="45.584105" lon="11.5358642"><ele>37.0</ele><time>2026-04-11T14:39:07.627Z</time></trkpt><trkpt lat="45.5840224" lon="11.5358478"><ele>37.0</ele><time>2026-04-11T14:39:10.627Z</time></trkpt><trkpt lat="45.5839344" lon="11.535845"><ele>37.0</ele><time>2026-04-11T14:39:13.626Z</time></trkpt><trkpt lat="45.583871" lon="11.5358484"><ele>37.0</ele><time>2026-04-11T14:39:15.624Z</time></trkpt><trkpt lat="45.5837849" lon="11.5358444"><ele>37.0</ele><time>2026-04-11T14:39:18.625Z</time></trkpt><trkpt lat="45.5837218" lon="11.5358401"><ele>37.0</ele><time>2026-04-11T14:39:20.626Z</time></trkpt><trkpt lat="45.5836311" lon="11.5358393"><ele>37.0</ele><time>2026-04-11T14:39:23.626Z</time></trkpt><trkpt lat="45.5835622" lon="11.5358495"><ele>37.16666666666667</ele><time>2026-04-11T14:39:25.627Z</time></trkpt><trkpt lat="45.5834981" lon="11.5358617"><ele>37.333333333333336</ele><time>2026-04-11T14:39:27.624Z</time></trkpt><trkpt lat="45.5834089" lon="11.535865"><ele>37.5</ele><time>2026-04-11T14:39:30.627Z</time></trkpt><trkpt lat="45.5833302" lon="11.5358539"><ele>37.666666666666664</ele><time>2026-04-11T14:39:33.625Z</time></trkpt><trkpt lat="45.5832532" lon="11.5358415"><ele>37.83333333333333</ele><time>2026-04-11T14:39:36.627Z</time></trkpt><trkpt lat="45.5831786" lon="11.535831"><ele>38.0</ele><time>2026-04-11T14:39:39.626Z</time></trkpt><trkpt lat="45.583091" lon="11.5358495"><ele>38.0</ele><time>2026-04-11T14:39:42.624Z</time></trkpt><trkpt lat="45.5830044" lon="11.5358431"><ele>38.0</ele><time>2026-04-11T14:39:45.625Z</time></trkpt><trkpt lat="45.5829141" lon="11.5358263"><ele>38.0</ele><time>2026-04-11T14:39:48.625Z</time></trkpt><trkpt lat="45.5828411" lon="11.535813"><ele>38.0</ele><time>2026-04-11T14:39:51.627Z</time></trkpt><trkpt lat="45.582777" lon="11.5357932"><ele>38.0</ele><time>2026-04-11T14:39:54.618Z</time></trkpt><trkpt lat="45.5827094" lon="11.5357699"><ele>38.0</ele><time>2026-04-11T14:39:58.624Z</time></trkpt><trkpt lat="45.582651" lon="11.5356926"><ele>38.0</ele><time>2026-04-11T14:42:27.628Z</time></trkpt><trkpt lat="45.5825679" lon="11.5356615"><ele>38.0</ele><time>2026-04-11T14:42:30.629Z</time></trkpt><trkpt lat="45.5824933" lon="11.5356482"><ele>38.0</ele><time>2026-04-11T14:42:33.627Z</time></trkpt><trkpt lat="45.5824271" lon="11.5356228"><ele>38.0</ele><time>2026-04-11T14:42:36.628Z</time></trkpt><trkpt lat="45.5823626" lon="11.5355887"><ele>38.0</ele><time>2026-04-11T14:42:39.632Z</time></trkpt><trkpt lat="45.5822841" lon="11.5355495"><ele>38.0</ele><time>2026-04-11T14:42:43.63Z</time></trkpt><trkpt lat="45.582199" lon="11.5355306"><ele>38.0</ele><time>2026-04-11T14:42:46.63Z</time></trkpt><trkpt lat="45.5821096" lon="11.5354892"><ele>38.0</ele><time>2026-04-11T14:42:49.629Z</time></trkpt><trkpt lat="45.5820308" lon="11.5354431"><ele>38.0</ele><time>2026-04-11T14:42:52.629Z</time></trkpt><trkpt lat="45.5819493" lon="11.5353864"><ele>38.0</ele><time>2026-04-11T14:42:55.632Z</time></trkpt><trkpt lat="45.5818798" lon="11.5353338"><ele>38.0</ele><time>2026-04-11T14:42:57.628Z</time></trkpt><trkpt lat="45.5818175" lon="11.5352858"><ele>38.0</ele><time>2026-04-11T14:42:59.63Z</time></trkpt><trkpt lat="45.5817484" lon="11.5352191"><ele>38.14285714285714</ele><time>2026-04-11T14:43:03.634Z</time></trkpt><trkpt lat="45.5816829" lon="11.5351628"><ele>38.28571428571429</ele><time>2026-04-11T14:43:06.632Z</time></trkpt><trkpt lat="45.581629" lon="11.5350843"><ele>38.42857142857143</ele><time>2026-04-11T14:43:08.632Z</time></trkpt><trkpt lat="45.5815819" lon="11.5350218"><ele>38.57142857142857</ele><time>2026-04-11T14:43:10.633Z</time></trkpt><trkpt lat="45.5815329" lon="11.5349426"><ele>38.71428571428571</ele><time>2026-04-11T14:43:13.634Z</time></trkpt><trkpt lat="45.5815205" lon="11.534839"><ele>38.85714285714286</ele><time>2026-04-11T14:44:04.631Z</time></trkpt><trkpt lat="45.5814821" lon="11.5347528"><ele>39.0</ele><time>2026-04-11T14:44:07.631Z</time></trkpt><trkpt lat="45.5814522" lon="11.5346196"><ele>38.833333333333336</ele><time>2026-04-11T14:44:10.634Z</time></trkpt><trkpt lat="45.5814414" lon="11.5345209"><ele>38.666666666666664</ele><time>2026-04-11T14:44:14.632Z</time></trkpt><trkpt lat="45.5814189" lon="11.5343403"><ele>38.5</ele><time>2026-04-11T14:44:16.629Z</time></trkpt><trkpt lat="45.5814094" lon="11.5342506"><ele>38.33333333333333</ele><time>2026-04-11T14:44:18.628Z</time></trkpt><trkpt lat="45.5813956" lon="11.534144"><ele>38.166666666666664</ele><time>2026-04-11T14:44:21.628Z</time></trkpt><trkpt lat="45.5813759" lon="11.5340275"><ele>38.0</ele><time>2026-04-11T14:44:24.627Z</time></trkpt><trkpt lat="45.5813659" lon="11.5339327"><ele>38.0</ele><time>2026-04-11T14:44:26.629Z</time></trkpt><trkpt lat="45.5813417" lon="11.5338088"><ele>38.0</ele><time>2026-04-11T14:44:29.62Z</time></trkpt><trkpt lat="45.5813338" lon="11.5336963"><ele>38.0</ele><time>2026-04-11T14:44:32.628Z</time></trkpt><trkpt lat="45.5813364" lon="11.5335938"><ele>38.0</ele><time>2026-04-11T14:44:35.626Z</time></trkpt><trkpt lat="45.5813431" lon="11.5334738"><ele>38.0</ele><time>2026-04-11T14:44:39.625Z</time></trkpt><trkpt lat="45.5813513" lon="11.5333738"><ele>38.0</ele><time>2026-04-11T14:44:42.629Z</time></trkpt><trkpt lat="45.5813636" lon="11.5332757"><ele>38.0</ele><time>2026-04-11T14:44:46.627Z</time></trkpt><trkpt lat="45.5813707" lon="11.5331828"><ele>38.0</ele><time>2026-04-11T14:44:49.626Z</time></trkpt><trkpt lat="45.5813554" lon="11.5330803"><ele>38.0</ele><time>2026-04-11T14:44:52.626Z</time></trkpt><trkpt lat="45.581308" lon="11.5330174"><ele>38.0</ele><time>2026-04-11T14:44:55.627Z</time></trkpt><trkpt lat="45.5812605" lon="11.5329211"><ele>38.0</ele><time>2026-04-11T14:44:58.626Z</time></trkpt><trkpt lat="45.581201" lon="11.5328202"><ele>38.0</ele><time>2026-04-11T14:45:01.624Z</time></trkpt><trkpt lat="45.581154" lon="11.5327444"><ele>38.0</ele><time>2026-04-11T14:45:03.627Z</time></trkpt><trkpt lat="45.5811025" lon="11.5326655"><ele>37.857142857142854</ele><time>2026-04-11T14:45:05.625Z</time></trkpt><trkpt lat="45.5810557" lon="11.5325806"><ele>37.714285714285715</ele><time>2026-04-11T14:45:07.626Z</time></trkpt><trkpt lat="45.5810158" lon="11.5324649"><ele>37.57142857142857</ele><time>2026-04-11T14:45:10.629Z</time></trkpt><trkpt lat="45.5809842" lon="11.5323769"><ele>37.42857142857143</ele><time>2026-04-11T14:45:14.626Z</time></trkpt><trkpt lat="45.580915" lon="11.532395"><ele>37.285714285714285</ele><time>2026-04-11T14:45:39.622Z</time></trkpt><trkpt lat="45.5808467" lon="11.532404"><ele>37.142857142857146</ele><time>2026-04-11T14:45:42.628Z</time></trkpt><trkpt lat="45.5807831" lon="11.5324062"><ele>37.0</ele><time>2026-04-11T14:45:45.627Z</time></trkpt><trkpt lat="45.5807037" lon="11.5324264"><ele>37.0</ele><time>2026-04-11T14:45:49.62Z</time></trkpt><trkpt lat="45.5806343" lon="11.5324472"><ele>37.0</ele><time>2026-04-11T14:45:52.629Z</time></trkpt><trkpt lat="45.5805637" lon="11.5324643"><ele>37.0</ele><time>2026-04-11T14:45:55.627Z</time></trkpt><trkpt lat="45.5804931" lon="11.5324975"><ele>37.0</ele><time>2026-04-11T14:45:59.627Z</time></trkpt><trkpt lat="45.5804271" lon="11.5325152"><ele>37.0</ele><time>2026-04-11T14:46:04.628Z</time></trkpt><trkpt lat="45.5803625" lon="11.5325604"><ele>37.0</ele><time>2026-04-11T14:46:10.628Z</time></trkpt><trkpt lat="45.5802934" lon="11.5325896"><ele>37.0</ele><time>2026-04-11T14:46:13.627Z</time></trkpt><trkpt lat="45.5802132" lon="11.5326266"><ele>36.66666666666667</ele><time>2026-04-11T14:46:16.628Z</time></trkpt><trkpt lat="45.5801421" lon="11.5326626"><ele>36.333333333333336</ele><time>2026-04-11T14:46:19.627Z</time></trkpt><trkpt lat="45.5800677" lon="11.5327001"><ele>36.0</ele><time>2026-04-11T14:46:22.627Z</time></trkpt><trkpt lat="45.5799907" lon="11.5327332"><ele>35.666666666666664</ele><time>2026-04-11T14:46:25.627Z</time></trkpt><trkpt lat="45.5799221" lon="11.5327684"><ele>35.33333333333333</ele><time>2026-04-11T14:46:28.62Z</time></trkpt><trkpt lat="45.5798402" lon="11.5328071"><ele>35.0</ele><time>2026-04-11T14:46:31.626Z</time></trkpt><trkpt lat="45.5797557" lon="11.5328371"><ele>35.0</ele><time>2026-04-11T14:46:34.625Z</time></trkpt><trkpt lat="45.5796766" lon="11.5328896"><ele>35.0</ele><time>2026-04-11T14:46:37.622Z</time></trkpt><trkpt lat="45.5795997" lon="11.5329248"><ele>35.0</ele><time>2026-04-11T14:46:40.624Z</time></trkpt><trkpt lat="45.5795259" lon="11.5329396"><ele>35.0</ele><time>2026-04-11T14:46:44.626Z</time></trkpt><trkpt lat="45.5794612" lon="11.5329739"><ele>35.0</ele><time>2026-04-11T14:46:48.627Z</time></trkpt><trkpt lat="45.5793932" lon="11.5330125"><ele>35.0</ele><time>2026-04-11T14:46:51.627Z</time></trkpt><trkpt lat="45.5793167" lon="11.5330518"><ele>34.83333333333333</ele><time>2026-04-11T14:46:54.627Z</time></trkpt><trkpt lat="45.5792495" lon="11.5330956"><ele>34.666666666666664</ele><time>2026-04-11T14:46:57.628Z</time></trkpt><trkpt lat="45.5791721" lon="11.5331421"><ele>34.5</ele><time>2026-04-11T14:47:00.626Z</time></trkpt><trkpt lat="45.5790868" lon="11.5331738"><ele>34.333333333333336</ele><time>2026-04-11T14:47:03.625Z</time></trkpt><trkpt lat="45.5790153" lon="11.5332181"><ele>34.16666666666667</ele><time>2026-04-11T14:47:06.625Z</time></trkpt><trkpt lat="45.5789569" lon="11.5332595"><ele>34.0</ele><time>2026-04-11T14:47:11.625Z</time></trkpt><trkpt lat="45.5788842" lon="11.5332706"><ele>33.99999999999999</ele><time>2026-04-11T14:47:17.627Z</time></trkpt><trkpt lat="45.5788168" lon="11.533302"><ele>34.0</ele><time>2026-04-11T14:47:20.627Z</time></trkpt><trkpt lat="45.5787521" lon="11.533308"><ele>34.0</ele><time>2026-04-11T14:47:23.629Z</time></trkpt><trkpt lat="45.5786902" lon="11.5333413"><ele>34.0</ele><time>2026-04-11T14:47:26.627Z</time></trkpt><trkpt lat="45.5786168" lon="11.5333783"><ele>34.0</ele><time>2026-04-11T14:47:29.627Z</time></trkpt><trkpt lat="45.5785453" lon="11.5334164"><ele>33.99999999999999</ele><time>2026-04-11T14:47:32.623Z</time></trkpt><trkpt lat="45.5784832" lon="11.5334514"><ele>34.0</ele><time>2026-04-11T14:47:35.624Z</time></trkpt><trkpt lat="45.5784433" lon="11.5335581"><ele>34.5</ele><time>2026-04-11T14:47:39.624Z</time></trkpt><trkpt lat="45.5784428" lon="11.5336485"><ele>35.0</ele><time>2026-04-11T14:47:42.626Z</time></trkpt><trkpt lat="45.5784383" lon="11.5337677"><ele>35.5</ele><time>2026-04-11T14:47:46.627Z</time></trkpt><trkpt lat="45.5784103" lon="11.5338515"><ele>36.0</ele><time>2026-04-11T14:47:49.619Z</time></trkpt><trkpt lat="45.5783466" lon="11.5338731"><ele>36.5</ele><time>2026-04-11T14:47:52.626Z</time></trkpt><trkpt lat="45.5782541" lon="11.533858"><ele>37.0</ele><time>2026-04-11T14:47:55.62Z</time></trkpt><trkpt lat="45.578161" lon="11.5338463"><ele>37.0</ele><time>2026-04-11T14:47:58.629Z</time></trkpt><trkpt lat="45.5780723" lon="11.5338445"><ele>37.0</ele><time>2026-04-11T14:48:01.621Z</time></trkpt><trkpt lat="45.5779825" lon="11.5338353"><ele>37.0</ele><time>2026-04-11T14:48:04.623Z</time></trkpt><trkpt lat="45.5778911" lon="11.5338231"><ele>37.0</ele><time>2026-04-11T14:48:07.623Z</time></trkpt><trkpt lat="45.5778035" lon="11.533825"><ele>37.0</ele><time>2026-04-11T14:48:10.622Z</time></trkpt><trkpt lat="45.5777221" lon="11.533819"><ele>37.0</ele><time>2026-04-11T14:48:13.626Z</time></trkpt><trkpt lat="45.5776325" lon="11.533805"><ele>36.66666666666667</ele><time>2026-04-11T14:48:16.629Z</time></trkpt><trkpt lat="45.5775411" lon="11.5338028"><ele>36.333333333333336</ele><time>2026-04-11T14:48:19.629Z</time></trkpt><trkpt lat="45.5774616" lon="11.5338087"><ele>36.0</ele><time>2026-04-11T14:48:22.628Z</time></trkpt><trkpt lat="45.5773765" lon="11.5337983"><ele>35.666666666666664</ele><time>2026-04-11T14:48:25.627Z</time></trkpt><trkpt lat="45.5772876" lon="11.5337915"><ele>35.33333333333333</ele><time>2026-04-11T14:48:28.627Z</time></trkpt><trkpt lat="45.577209" lon="11.5337901"><ele>35.0</ele><time>2026-04-11T14:48:31.621Z</time></trkpt><trkpt lat="45.5771357" lon="11.5338044"><ele>35.0</ele><time>2026-04-11T14:48:34.621Z</time></trkpt><trkpt lat="45.5770651" lon="11.5338111"><ele>35.0</ele><time>2026-04-11T14:48:37.622Z</time></trkpt><trkpt lat="45.5769924" lon="11.5337851"><ele>35.0</ele><time>2026-04-11T14:48:40.622Z</time></trkpt><trkpt lat="45.5769114" lon="11.5337736"><ele>35.0</ele><time>2026-04-11T14:48:43.628Z</time></trkpt><trkpt lat="45.5768307" lon="11.5337637"><ele>35.0</ele><time>2026-04-11T14:48:46.626Z</time></trkpt><trkpt lat="45.5767567" lon="11.5337651"><ele>35.0</ele><time>2026-04-11T14:48:49.626Z</time></trkpt><trkpt lat="45.5766722" lon="11.5337823"><ele>35.33333333333333</ele><time>2026-04-11T14:48:52.626Z</time></trkpt><trkpt lat="45.576581" lon="11.5337977"><ele>35.666666666666664</ele><time>2026-04-11T14:48:55.626Z</time></trkpt><trkpt lat="45.5765176" lon="11.5337903"><ele>36.0</ele><time>2026-04-11T14:48:57.625Z</time></trkpt><trkpt lat="45.5764524" lon="11.5337719"><ele>36.333333333333336</ele><time>2026-04-11T14:48:59.626Z</time></trkpt><trkpt lat="45.5763653" lon="11.5337636"><ele>36.66666666666667</ele><time>2026-04-11T14:49:02.621Z</time></trkpt><trkpt lat="45.5762923" lon="11.5337603"><ele>37.0</ele><time>2026-04-11T14:49:05.62Z</time></trkpt><trkpt lat="45.5762176" lon="11.5337597"><ele>37.0</ele><time>2026-04-11T14:49:08.618Z</time></trkpt><trkpt lat="45.5761251" lon="11.5337685"><ele>37.0</ele><time>2026-04-11T14:49:11.62Z</time></trkpt><trkpt lat="45.5760309" lon="11.5337846"><ele>37.0</ele><time>2026-04-11T14:49:14.622Z</time></trkpt><trkpt lat="45.5759679" lon="11.5337971"><ele>37.0</ele><time>2026-04-11T14:49:16.622Z</time></trkpt><trkpt lat="45.5758876" lon="11.5338063"><ele>37.0</ele><time>2026-04-11T14:49:19.623Z</time></trkpt><trkpt lat="45.5758082" lon="11.5337974"><ele>37.0</ele><time>2026-04-11T14:49:22.625Z</time></trkpt><trkpt lat="45.5757203" lon="11.5337897"><ele>37.0</ele><time>2026-04-11T14:49:25.623Z</time></trkpt><trkpt lat="45.5756348" lon="11.5337777"><ele>37.0</ele><time>2026-04-11T14:49:28.622Z</time></trkpt><trkpt lat="45.5755424" lon="11.5337837"><ele>37.0</ele><time>2026-04-11T14:49:31.62Z</time></trkpt><trkpt lat="45.5754796" lon="11.5337935"><ele>37.0</ele><time>2026-04-11T14:49:33.62Z</time></trkpt><trkpt lat="45.5753932" lon="11.5338029"><ele>37.0</ele><time>2026-04-11T14:49:36.622Z</time></trkpt><trkpt lat="45.5753045" lon="11.5338215"><ele>37.0</ele><time>2026-04-11T14:49:39.619Z</time></trkpt><trkpt lat="45.5752109" lon="11.5338265"><ele>36.66666666666667</ele><time>2026-04-11T14:49:42.624Z</time></trkpt><trkpt lat="45.575148" lon="11.5338199"><ele>36.333333333333336</ele><time>2026-04-11T14:49:44.624Z</time></trkpt><trkpt lat="45.5750723" lon="11.5337773"><ele>36.0</ele><time>2026-04-11T14:49:47.622Z</time></trkpt><trkpt lat="45.5750015" lon="11.5337625"><ele>35.666666666666664</ele><time>2026-04-11T14:49:50.622Z</time></trkpt><trkpt lat="45.5749287" lon="11.5337612"><ele>35.33333333333333</ele><time>2026-04-11T14:49:53.623Z</time></trkpt><trkpt lat="45.574848" lon="11.5337668"><ele>35.0</ele><time>2026-04-11T14:49:56.627Z</time></trkpt><trkpt lat="45.5747607" lon="11.5337562"><ele>35.0</ele><time>2026-04-11T14:49:59.624Z</time></trkpt><trkpt lat="45.5746816" lon="11.5337423"><ele>35.0</ele><time>2026-04-11T14:50:02.618Z</time></trkpt><trkpt lat="45.574612" lon="11.5337479"><ele>35.0</ele><time>2026-04-11T14:50:05.622Z</time></trkpt><trkpt lat="45.5745423" lon="11.5337472"><ele>35.0</ele><time>2026-04-11T14:50:08.62Z</time></trkpt><trkpt lat="45.5744722" lon="11.5337592"><ele>35.0</ele><time>2026-04-11T14:50:11.623Z</time></trkpt><trkpt lat="45.5743912" lon="11.5337649"><ele>35.0</ele><time>2026-04-11T14:50:14.623Z</time></trkpt><trkpt lat="45.5743162" lon="11.5337475"><ele>35.0</ele><time>2026-04-11T14:50:17.626Z</time></trkpt><trkpt lat="45.57423" lon="11.5337539"><ele>35.166666666666664</ele><time>2026-04-11T14:50:20.625Z</time></trkpt><trkpt lat="45.5741421" lon="11.5337608"><ele>35.33333333333333</ele><time>2026-04-11T14:50:23.627Z</time></trkpt><trkpt lat="45.5740624" lon="11.5337787"><ele>35.5</ele><time>2026-04-11T14:50:26.625Z</time></trkpt><trkpt lat="45.5739923" lon="11.5337702"><ele>35.666666666666664</ele><time>2026-04-11T14:50:29.625Z</time></trkpt><trkpt lat="45.5739259" lon="11.5337448"><ele>35.833333333333336</ele><time>2026-04-11T14:50:32.622Z</time></trkpt><trkpt lat="45.5738515" lon="11.5337192"><ele>36.0</ele><time>2026-04-11T14:50:35.621Z</time></trkpt><trkpt lat="45.573773" lon="11.5337173"><ele>36.166666666666664</ele><time>2026-04-11T14:50:38.622Z</time></trkpt><trkpt lat="45.573688" lon="11.533709"><ele>36.333333333333336</ele><time>2026-04-11T14:50:41.622Z</time></trkpt><trkpt lat="45.5736156" lon="11.5336992"><ele>36.5</ele><time>2026-04-11T14:50:44.623Z</time></trkpt><trkpt lat="45.5735531" lon="11.5336768"><ele>36.66666666666667</ele><time>2026-04-11T14:50:47.619Z</time></trkpt><trkpt lat="45.5734861" lon="11.5336663"><ele>36.833333333333336</ele><time>2026-04-11T14:50:50.623Z</time></trkpt><trkpt lat="45.5734028" lon="11.5336789"><ele>37.0</ele><time>2026-04-11T14:50:54.622Z</time></trkpt><trkpt lat="45.5733202" lon="11.5336757"><ele>37.0</ele><time>2026-04-11T14:50:57.623Z</time></trkpt><trkpt lat="45.5732313" lon="11.5336751"><ele>37.0</ele><time>2026-04-11T14:51:00.624Z</time></trkpt><trkpt lat="45.5731547" lon="11.53369"><ele>37.0</ele><time>2026-04-11T14:51:03.622Z</time></trkpt><trkpt lat="45.5730789" lon="11.5336942"><ele>37.0</ele><time>2026-04-11T14:51:06.621Z</time></trkpt><trkpt lat="45.572998" lon="11.5337002"><ele>37.0</ele><time>2026-04-11T14:51:09.623Z</time></trkpt><trkpt lat="45.5729197" lon="11.5336893"><ele>37.0</ele><time>2026-04-11T14:51:12.621Z</time></trkpt><trkpt lat="45.5728536" lon="11.5336854"><ele>36.57142857142857</ele><time>2026-04-11T14:51:15.624Z</time></trkpt><trkpt lat="45.5727897" lon="11.5336885"><ele>36.14285714285714</ele><time>2026-04-11T14:51:18.622Z</time></trkpt><trkpt lat="45.5727143" lon="11.5336942"><ele>35.71428571428571</ele><time>2026-04-11T14:51:22.626Z</time></trkpt><trkpt lat="45.5726516" lon="11.5336834"><ele>35.285714285714285</ele><time>2026-04-11T14:51:25.624Z</time></trkpt><trkpt lat="45.5725689" lon="11.5336709"><ele>34.857142857142854</ele><time>2026-04-11T14:51:29.623Z</time></trkpt><trkpt lat="45.572491" lon="11.5336782"><ele>34.42857142857142</ele><time>2026-04-11T14:51:32.622Z</time></trkpt><trkpt lat="45.5724081" lon="11.5336855"><ele>34.0</ele><time>2026-04-11T14:51:35.623Z</time></trkpt><trkpt lat="45.5723362" lon="11.5336884"><ele>33.99999999999999</ele><time>2026-04-11T14:51:38.622Z</time></trkpt><trkpt lat="45.5722649" lon="11.5336878"><ele>34.0</ele><time>2026-04-11T14:51:41.624Z</time></trkpt><trkpt lat="45.5721944" lon="11.5336714"><ele>34.0</ele><time>2026-04-11T14:51:44.623Z</time></trkpt><trkpt lat="45.5721178" lon="11.5336623"><ele>34.0</ele><time>2026-04-11T14:51:47.623Z</time></trkpt><trkpt lat="45.5720436" lon="11.5336623"><ele>34.0</ele><time>2026-04-11T14:51:50.621Z</time></trkpt><trkpt lat="45.5719759" lon="11.5336605"><ele>33.99999999999999</ele><time>2026-04-11T14:51:53.61Z</time></trkpt><trkpt lat="45.5719016" lon="11.533656"><ele>34.0</ele><time>2026-04-11T14:51:56.617Z</time></trkpt><trkpt lat="45.571826" lon="11.5336712"><ele>34.14285714285714</ele><time>2026-04-11T14:51:59.621Z</time></trkpt><trkpt lat="45.5717479" lon="11.533667"><ele>34.285714285714285</ele><time>2026-04-11T14:52:02.623Z</time></trkpt><trkpt lat="45.5716702" lon="11.5336536"><ele>34.42857142857143</ele><time>2026-04-11T14:52:05.622Z</time></trkpt><trkpt lat="45.571594" lon="11.5336533"><ele>34.57142857142857</ele><time>2026-04-11T14:52:08.624Z</time></trkpt><trkpt lat="45.5715221" lon="11.5336707"><ele>34.714285714285715</ele><time>2026-04-11T14:52:12.615Z</time></trkpt><trkpt lat="45.5714561" lon="11.5336628"><ele>34.857142857142854</ele><time>2026-04-11T14:52:16.622Z</time></trkpt><trkpt lat="45.5713812" lon="11.5336634"><ele>35.0</ele><time>2026-04-11T14:52:21.622Z</time></trkpt><trkpt lat="45.5712938" lon="11.5336612"><ele>35.0</ele><time>2026-04-11T14:52:25.624Z</time></trkpt><trkpt lat="45.571211" lon="11.5336303"><ele>35.0</ele><time>2026-04-11T14:52:28.621Z</time></trkpt><trkpt lat="45.5711263" lon="11.5336344"><ele>35.0</ele><time>2026-04-11T14:52:31.619Z</time></trkpt><trkpt lat="45.571044" lon="11.5336432"><ele>35.0</ele><time>2026-04-11T14:52:34.621Z</time></trkpt><trkpt lat="45.5709672" lon="11.5336491"><ele>35.0</ele><time>2026-04-11T14:52:37.619Z</time></trkpt><trkpt lat="45.5708978" lon="11.5336422"><ele>35.0</ele><time>2026-04-11T14:52:40.619Z</time></trkpt><trkpt lat="45.5708249" lon="11.5336313"><ele>35.166666666666664</ele><time>2026-04-11T14:52:43.623Z</time></trkpt><trkpt lat="45.5707482" lon="11.5336264"><ele>35.33333333333333</ele><time>2026-04-11T14:52:46.624Z</time></trkpt><trkpt lat="45.5706751" lon="11.5336163"><ele>35.5</ele><time>2026-04-11T14:52:49.625Z</time></trkpt><trkpt lat="45.5705899" lon="11.5335908"><ele>35.666666666666664</ele><time>2026-04-11T14:52:52.624Z</time></trkpt><trkpt lat="45.5705097" lon="11.5335906"><ele>35.833333333333336</ele><time>2026-04-11T14:52:55.623Z</time></trkpt><trkpt lat="45.5704316" lon="11.5335836"><ele>36.0</ele><time>2026-04-11T14:52:58.624Z</time></trkpt><trkpt lat="45.5703554" lon="11.5335897"><ele>35.666666666666664</ele><time>2026-04-11T14:53:01.622Z</time></trkpt><trkpt lat="45.570283" lon="11.5335866"><ele>35.333333333333336</ele><time>2026-04-11T14:53:04.622Z</time></trkpt><trkpt lat="45.5702021" lon="11.5335977"><ele>35.0</ele><time>2026-04-11T14:53:07.621Z</time></trkpt><trkpt lat="45.5701278" lon="11.5336059"><ele>34.66666666666667</ele><time>2026-04-11T14:53:10.621Z</time></trkpt><trkpt lat="45.5700535" lon="11.533624"><ele>34.333333333333336</ele><time>2026-04-11T14:53:13.623Z</time></trkpt><trkpt lat="45.5699664" lon="11.5336238"><ele>34.0</ele><time>2026-04-11T14:53:16.622Z</time></trkpt><trkpt lat="45.5698881" lon="11.5336097"><ele>33.99999999999999</ele><time>2026-04-11T14:53:19.624Z</time></trkpt><trkpt lat="45.5698199" lon="11.5336123"><ele>34.0</ele><time>2026-04-11T14:53:22.622Z</time></trkpt><trkpt lat="45.5697432" lon="11.5336191"><ele>34.0</ele><time>2026-04-11T14:53:25.622Z</time></trkpt><trkpt lat="45.569673" lon="11.5336296"><ele>34.0</ele><time>2026-04-11T14:53:28.623Z</time></trkpt><trkpt lat="45.5695937" lon="11.5336252"><ele>34.0</ele><time>2026-04-11T14:53:31.62Z</time></trkpt><trkpt lat="45.5695173" lon="11.5336144"><ele>33.99999999999999</ele><time>2026-04-11T14:53:34.621Z</time></trkpt><trkpt lat="45.569445" lon="11.5336013"><ele>34.0</ele><time>2026-04-11T14:53:37.621Z</time></trkpt><trkpt lat="45.5693669" lon="11.5335941"><ele>34.16666666666667</ele><time>2026-04-11T14:53:40.621Z</time></trkpt><trkpt lat="45.5692832" lon="11.5335966"><ele>34.333333333333336</ele><time>2026-04-11T14:53:43.622Z</time></trkpt><trkpt lat="45.5691991" lon="11.5335994"><ele>34.5</ele><time>2026-04-11T14:53:46.621Z</time></trkpt><trkpt lat="45.5691171" lon="11.5335942"><ele>34.666666666666664</ele><time>2026-04-11T14:53:49.623Z</time></trkpt><trkpt lat="45.5690432" lon="11.533601"><ele>34.83333333333333</ele><time>2026-04-11T14:53:52.621Z</time></trkpt><trkpt lat="45.5689648" lon="11.533597"><ele>35.0</ele><time>2026-04-11T14:53:55.623Z</time></trkpt><trkpt lat="45.5688937" lon="11.533596"><ele>35.0</ele><time>2026-04-11T14:53:58.625Z</time></trkpt><trkpt lat="45.5688203" lon="11.5335972"><ele>35.0</ele><time>2026-04-11T14:55:54.626Z</time></trkpt><trkpt lat="45.5687486" lon="11.5335874"><ele>35.0</ele><time>2026-04-11T14:55:58.625Z</time></trkpt><trkpt lat="45.5686965" lon="11.5336412"><ele>35.0</ele><time>2026-04-11T14:56:02.624Z</time></trkpt><trkpt lat="45.5686184" lon="11.533613"><ele>35.0</ele><time>2026-04-11T14:57:03.624Z</time></trkpt><trkpt lat="45.5685525" lon="11.5335752"><ele>35.0</ele><time>2026-04-11T14:57:06.623Z</time></trkpt><trkpt lat="45.5684719" lon="11.5335646"><ele>35.0</ele><time>2026-04-11T14:57:10.623Z</time></trkpt><trkpt lat="45.568403" lon="11.5335626"><ele>35.0</ele><time>2026-04-11T14:57:14.624Z</time></trkpt><trkpt lat="45.5683361" lon="11.5335608"><ele>35.0</ele><time>2026-04-11T14:57:18.624Z</time></trkpt><trkpt lat="45.5682659" lon="11.5335519"><ele>35.0</ele><time>2026-04-11T14:57:22.622Z</time></trkpt><trkpt lat="45.5681822" lon="11.5335531"><ele>35.0</ele><time>2026-04-11T14:57:26.623Z</time></trkpt><trkpt lat="45.5681184" lon="11.5335468"><ele>35.0</ele><time>2026-04-11T14:57:29.622Z</time></trkpt><trkpt lat="45.5680469" lon="11.5335255"><ele>35.0</ele><time>2026-04-11T14:57:33.621Z</time></trkpt><trkpt lat="45.5679796" lon="11.5334681"><ele>35.0</ele><time>2026-04-11T14:57:38.623Z</time></trkpt><trkpt lat="45.5679309" lon="11.5334085"><ele>35.0</ele><time>2026-04-11T14:57:41.621Z</time></trkpt><trkpt lat="45.5678668" lon="11.5333572"><ele>35.0</ele><time>2026-04-11T14:57:44.622Z</time></trkpt><trkpt lat="45.5678439" lon="11.5332709"><ele>35.0</ele><time>2026-04-11T14:57:48.622Z</time></trkpt><trkpt lat="45.5678149" lon="11.5331867"><ele>35.0</ele><time>2026-04-11T14:57:52.624Z</time></trkpt><trkpt lat="45.5677697" lon="11.5330893"><ele>35.0</ele><time>2026-04-11T14:57:56.628Z</time></trkpt><trkpt lat="45.5677336" lon="11.5329959"><ele>35.0</ele><time>2026-04-11T14:57:59.623Z</time></trkpt><trkpt lat="45.5676984" lon="11.5328762"><ele>34.83333333333333</ele><time>2026-04-11T14:58:02.617Z</time></trkpt><trkpt lat="45.5676729" lon="11.5327522"><ele>34.666666666666664</ele><time>2026-04-11T14:58:05.621Z</time></trkpt><trkpt lat="45.5676417" lon="11.5326447"><ele>34.5</ele><time>2026-04-11T14:58:08.623Z</time></trkpt><trkpt lat="45.5676065" lon="11.5325485"><ele>34.333333333333336</ele><time>2026-04-11T14:58:11.619Z</time></trkpt><trkpt lat="45.5675825" lon="11.5324619"><ele>34.16666666666667</ele><time>2026-04-11T14:58:13.621Z</time></trkpt><trkpt lat="45.5675603" lon="11.5323709"><ele>34.0</ele><time>2026-04-11T14:58:15.62Z</time></trkpt><trkpt lat="45.5675421" lon="11.5322708"><ele>34.0</ele><time>2026-04-11T14:58:18.62Z</time></trkpt><trkpt lat="45.5675168" lon="11.5321816"><ele>34.0</ele><time>2026-04-11T14:58:21.621Z</time></trkpt><trkpt lat="45.5674696" lon="11.5320755"><ele>34.0</ele><time>2026-04-11T14:58:24.622Z</time></trkpt><trkpt lat="45.5674297" lon="11.5319598"><ele>34.0</ele><time>2026-04-11T14:58:27.623Z</time></trkpt><trkpt lat="45.5674048" lon="11.5318321"><ele>34.0</ele><time>2026-04-11T14:58:30.621Z</time></trkpt><trkpt lat="45.5673902" lon="11.531736"><ele>34.0</ele><time>2026-04-11T14:58:32.622Z</time></trkpt><trkpt lat="45.5673663" lon="11.5316198"><ele>34.333333333333336</ele><time>2026-04-11T14:58:35.621Z</time></trkpt><trkpt lat="45.567341" lon="11.5315069"><ele>34.66666666666667</ele><time>2026-04-11T14:58:38.623Z</time></trkpt><trkpt lat="45.5673008" lon="11.5313911"><ele>35.0</ele><time>2026-04-11T14:58:41.633Z</time></trkpt><trkpt lat="45.5672672" lon="11.531277"><ele>35.333333333333336</ele><time>2026-04-11T14:58:44.629Z</time></trkpt><trkpt lat="45.5672351" lon="11.5311648"><ele>35.666666666666664</ele><time>2026-04-11T14:58:47.621Z</time></trkpt><trkpt lat="45.5671994" lon="11.531047"><ele>36.0</ele><time>2026-04-11T14:58:50.62Z</time></trkpt><trkpt lat="45.5671793" lon="11.5309535"><ele>36.166666666666664</ele><time>2026-04-11T14:58:53.621Z</time></trkpt><trkpt lat="45.5671702" lon="11.5308501"><ele>36.333333333333336</ele><time>2026-04-11T14:58:56.622Z</time></trkpt><trkpt lat="45.5671438" lon="11.5307462"><ele>36.5</ele><time>2026-04-11T14:58:59.623Z</time></trkpt><trkpt lat="45.5671176" lon="11.5306447"><ele>36.66666666666667</ele><time>2026-04-11T14:59:03.624Z</time></trkpt><trkpt lat="45.5670875" lon="11.5305347"><ele>36.833333333333336</ele><time>2026-04-11T14:59:07.623Z</time></trkpt><trkpt lat="45.567073" lon="11.5304356"><ele>37.0</ele><time>2026-04-11T14:59:10.623Z</time></trkpt><trkpt lat="45.5670539" lon="11.5303322"><ele>37.0</ele><time>2026-04-11T14:59:13.622Z</time></trkpt><trkpt lat="45.5670277" lon="11.530239"><ele>37.0</ele><time>2026-04-11T14:59:19.622Z</time></trkpt><trkpt lat="45.567083" lon="11.5301893"><ele>37.0</ele><time>2026-04-11T14:59:25.615Z</time></trkpt><trkpt lat="45.5671487" lon="11.5301761"><ele>37.0</ele><time>2026-04-11T14:59:32.622Z</time></trkpt><trkpt lat="45.5672167" lon="11.530189"><ele>37.0</ele><time>2026-04-11T14:59:37.622Z</time></trkpt><trkpt lat="45.5672602" lon="11.5301081"><ele>37.0</ele><time>2026-04-11T14:59:43.623Z</time></trkpt><trkpt lat="45.5671949" lon="11.5300881"><ele>37.0</ele><time>2026-04-11T14:59:49.62Z</time></trkpt><trkpt lat="45.567187" lon="11.5301965"><ele>37.0</ele><time>2026-04-11T14:59:53.618Z</time></trkpt><trkpt lat="45.5672514" lon="11.5302449"><ele>37.0</ele><time>2026-04-11T14:59:56.619Z</time></trkpt><trkpt lat="45.5673307" lon="11.5302359"><ele>37.0</ele><time>2026-04-11T15:00:00.618Z</time></trkpt><trkpt lat="45.5674065" lon="11.5302278"><ele>37.0</ele><time>2026-04-11T15:00:07.616Z</time></trkpt><trkpt lat="45.5674566" lon="11.5301524"><ele>37.0</ele><time>2026-04-11T15:00:13.617Z</time></trkpt><trkpt lat="45.5674889" lon="11.5300597"><ele>37.0</ele><time>2026-04-11T15:00:20.62Z</time></trkpt><trkpt lat="45.5675379" lon="11.529992"><ele>37.0</ele><time>2026-04-11T15:00:27.616Z</time></trkpt><trkpt lat="45.5675915" lon="11.5299377"><ele>37.0</ele><time>2026-04-11T15:00:36.619Z</time></trkpt><trkpt lat="45.5676424" lon="11.5299929"><ele>37.0</ele><time>2026-04-11T15:00:44.619Z</time></trkpt><trkpt lat="45.5676708" lon="11.5299004"><ele>37.0</ele><time>2026-04-11T15:00:50.621Z</time></trkpt><trkpt lat="45.5676044" lon="11.529897"><ele>37.0</ele><time>2026-04-11T15:00:55.621Z</time></trkpt><trkpt lat="45.567534" lon="11.5299018"><ele>37.0</ele><time>2026-04-11T15:01:01.619Z</time></trkpt><trkpt lat="45.567469" lon="11.5299124"><ele>37.0</ele><time>2026-04-11T15:01:05.621Z</time></trkpt><trkpt lat="45.5674059" lon="11.529932"><ele>37.0</ele><time>2026-04-11T15:01:08.62Z</time></trkpt><trkpt lat="45.567344" lon="11.5299548"><ele>37.0</ele><time>2026-04-11T15:01:11.619Z</time></trkpt><trkpt lat="45.5672682" lon="11.5299705"><ele>37.0</ele><time>2026-04-11T15:01:15.618Z</time></trkpt><trkpt lat="45.5672031" lon="11.529952"><ele>37.0</ele><time>2026-04-11T15:01:19.622Z</time></trkpt><trkpt lat="45.567166" lon="11.5298659"><ele>37.0</ele><time>2026-04-11T15:01:24.621Z</time></trkpt><trkpt lat="45.5671668" lon="11.5297672"><ele>37.0</ele><time>2026-04-11T15:01:28.62Z</time></trkpt><trkpt lat="45.5670928" lon="11.5297778"><ele>37.0</ele><time>2026-04-11T15:01:33.619Z</time></trkpt><trkpt lat="45.5670885" lon="11.5298825"><ele>37.0</ele><time>2026-04-11T15:01:38.622Z</time></trkpt><trkpt lat="45.5670931" lon="11.5299794"><ele>37.0</ele><time>2026-04-11T15:01:44.619Z</time></trkpt><trkpt lat="45.5671524" lon="11.5300103"><ele>37.0</ele><time>2026-04-11T15:01:49.619Z</time></trkpt><trkpt lat="45.5671954" lon="11.5299436"><ele>37.0</ele><time>2026-04-11T15:01:59.62Z</time></trkpt><trkpt lat="45.5672691" lon="11.5299593"><ele>37.0</ele><time>2026-04-11T15:05:56.624Z</time></trkpt><trkpt lat="45.5673446" lon="11.529981"><ele>37.0</ele><time>2026-04-11T15:05:58.625Z</time></trkpt><trkpt lat="45.5674086" lon="11.5299863"><ele>37.0</ele><time>2026-04-11T15:06:00.624Z</time></trkpt><trkpt lat="45.5674879" lon="11.5299931"><ele>37.0</ele><time>2026-04-11T15:06:03.628Z</time></trkpt><trkpt lat="45.5675583" lon="11.5300095"><ele>37.0</ele><time>2026-04-11T15:06:06.626Z</time></trkpt><trkpt lat="45.5676338" lon="11.5300044"><ele>37.0</ele><time>2026-04-11T15:06:09.624Z</time></trkpt><trkpt lat="45.5677123" lon="11.5300095"><ele>37.0</ele><time>2026-04-11T15:06:12.623Z</time></trkpt><trkpt lat="45.5678039" lon="11.5300091"><ele>37.0</ele><time>2026-04-11T15:06:15.624Z</time></trkpt><trkpt lat="45.5678833" lon="11.5300138"><ele>37.0</ele><time>2026-04-11T15:06:18.625Z</time></trkpt><trkpt lat="45.5679495" lon="11.5300217"><ele>37.0</ele><time>2026-04-11T15:06:21.626Z</time></trkpt><trkpt lat="45.5680308" lon="11.5300259"><ele>36.5</ele><time>2026-04-11T15:06:24.624Z</time></trkpt><trkpt lat="45.5681155" lon="11.5300382"><ele>36.0</ele><time>2026-04-11T15:06:27.624Z</time></trkpt><trkpt lat="45.5682051" lon="11.5300377"><ele>35.5</ele><time>2026-04-11T15:06:30.626Z</time></trkpt><trkpt lat="45.5682829" lon="11.5300278"><ele>35.0</ele><time>2026-04-11T15:06:33.624Z</time></trkpt><trkpt lat="45.5683656" lon="11.5300217"><ele>34.5</ele><time>2026-04-11T15:06:36.624Z</time></trkpt><trkpt lat="45.5684461" lon="11.5300209"><ele>34.0</ele><time>2026-04-11T15:06:39.626Z</time></trkpt><trkpt lat="45.5685256" lon="11.5300305"><ele>34.0</ele><time>2026-04-11T15:06:42.624Z</time></trkpt><trkpt lat="45.568601" lon="11.5300312"><ele>34.0</ele><time>2026-04-11T15:06:45.626Z</time></trkpt><trkpt lat="45.5686768" lon="11.530038"><ele>34.0</ele><time>2026-04-11T15:06:48.624Z</time></trkpt><trkpt lat="45.5687423" lon="11.5300296"><ele>34.0</ele><time>2026-04-11T15:06:51.623Z</time></trkpt><trkpt lat="45.5688192" lon="11.5300177"><ele>34.0</ele><time>2026-04-11T15:06:54.624Z</time></trkpt><trkpt lat="45.5689131" lon="11.5300113"><ele>34.0</ele><time>2026-04-11T15:06:57.624Z</time></trkpt><trkpt lat="45.5689794" lon="11.530009"><ele>33.5</ele><time>2026-04-11T15:06:59.624Z</time></trkpt><trkpt lat="45.5690659" lon="11.5299944"><ele>33.0</ele><time>2026-04-11T15:07:02.624Z</time></trkpt><trkpt lat="45.5691471" lon="11.5299995"><ele>32.5</ele><time>2026-04-11T15:07:05.624Z</time></trkpt><trkpt lat="45.5692359" lon="11.5300071"><ele>32.0</ele><time>2026-04-11T15:07:08.624Z</time></trkpt><trkpt lat="45.5693266" lon="11.5300112"><ele>31.500000000000004</ele><time>2026-04-11T15:07:11.622Z</time></trkpt><trkpt lat="45.5694131" lon="11.5300203"><ele>31.0</ele><time>2026-04-11T15:07:14.624Z</time></trkpt><trkpt lat="45.5694978" lon="11.530013"><ele>31.500000000000004</ele><time>2026-04-11T15:07:17.624Z</time></trkpt><trkpt lat="45.5695862" lon="11.530007"><ele>32.0</ele><time>2026-04-11T15:07:20.625Z</time></trkpt><trkpt lat="45.5696805" lon="11.5299969"><ele>32.5</ele><time>2026-04-11T15:07:23.617Z</time></trkpt><trkpt lat="45.5697444" lon="11.529993"><ele>33.0</ele><time>2026-04-11T15:07:25.624Z</time></trkpt><trkpt lat="45.5698082" lon="11.529992"><ele>33.5</ele><time>2026-04-11T15:07:27.623Z</time></trkpt><trkpt lat="45.5698734" lon="11.5299937"><ele>34.0</ele><time>2026-04-11T15:07:29.624Z</time></trkpt><trkpt lat="45.5699587" lon="11.5299949"><ele>34.0</ele><time>2026-04-11T15:07:32.623Z</time></trkpt><trkpt lat="45.5700373" lon="11.529998"><ele>34.0</ele><time>2026-04-11T15:07:35.626Z</time></trkpt><trkpt lat="45.5701315" lon="11.5299995"><ele>34.0</ele><time>2026-04-11T15:07:38.623Z</time></trkpt><trkpt lat="45.5702121" lon="11.5300093"><ele>34.0</ele><time>2026-04-11T15:07:41.623Z</time></trkpt><trkpt lat="45.570281" lon="11.5300098"><ele>34.0</ele><time>2026-04-11T15:07:44.624Z</time></trkpt><trkpt lat="45.5703496" lon="11.5300188"><ele>34.0</ele><time>2026-04-11T15:07:47.624Z</time></trkpt><trkpt lat="45.5704182" lon="11.5300747"><ele>34.71428571428571</ele><time>2026-04-11T15:07:51.623Z</time></trkpt><trkpt lat="45.5704865" lon="11.5300909"><ele>35.42857142857143</ele><time>2026-04-11T15:07:56.621Z</time></trkpt><trkpt lat="45.5705444" lon="11.530054"><ele>36.14285714285714</ele><time>2026-04-11T15:07:59.621Z</time></trkpt><trkpt lat="45.5706255" lon="11.5300488"><ele>36.857142857142854</ele><time>2026-04-11T15:08:03.627Z</time></trkpt><trkpt lat="45.5706939" lon="11.5300712"><ele>37.57142857142857</ele><time>2026-04-11T15:08:06.627Z</time></trkpt><trkpt lat="45.5707645" lon="11.5301135"><ele>38.285714285714285</ele><time>2026-04-11T15:08:09.626Z</time></trkpt><trkpt lat="45.5708286" lon="11.5301762"><ele>39.0</ele><time>2026-04-11T15:08:12.621Z</time></trkpt><trkpt lat="45.5708755" lon="11.5302633"><ele>39.0</ele><time>2026-04-11T15:08:15.624Z</time></trkpt><trkpt lat="45.5709465" lon="11.5303354"><ele>39.0</ele><time>2026-04-11T15:08:19.624Z</time></trkpt><trkpt lat="45.571028" lon="11.5303422"><ele>39.0</ele><time>2026-04-11T15:08:22.624Z</time></trkpt><trkpt lat="45.5711027" lon="11.5303457"><ele>39.0</ele><time>2026-04-11T15:08:25.625Z</time></trkpt><trkpt lat="45.5711899" lon="11.5303595"><ele>39.0</ele><time>2026-04-11T15:08:28.625Z</time></trkpt><trkpt lat="45.5712769" lon="11.5303632"><ele>39.0</ele><time>2026-04-11T15:08:31.626Z</time></trkpt><trkpt lat="45.5713673" lon="11.530372"><ele>38.42857142857143</ele><time>2026-04-11T15:08:34.625Z</time></trkpt><trkpt lat="45.5714538" lon="11.5303933"><ele>37.857142857142854</ele><time>2026-04-11T15:08:37.624Z</time></trkpt><trkpt lat="45.5715363" lon="11.5304128"><ele>37.285714285714285</ele><time>2026-04-11T15:08:40.625Z</time></trkpt><trkpt lat="45.5716153" lon="11.5304152"><ele>36.714285714285715</ele><time>2026-04-11T15:08:43.618Z</time></trkpt><trkpt lat="45.5716805" lon="11.5304281"><ele>36.14285714285714</ele><time>2026-04-11T15:08:45.624Z</time></trkpt><trkpt lat="45.5717464" lon="11.5304311"><ele>35.57142857142857</ele><time>2026-04-11T15:08:47.623Z</time></trkpt><trkpt lat="45.5718134" lon="11.5304381"><ele>35.0</ele><time>2026-04-11T15:08:49.625Z</time></trkpt><trkpt lat="45.5718877" lon="11.5304477"><ele>35.0</ele><time>2026-04-11T15:08:51.622Z</time></trkpt><trkpt lat="45.5719584" lon="11.5304586"><ele>35.0</ele><time>2026-04-11T15:08:53.623Z</time></trkpt><trkpt lat="45.5720469" lon="11.5304746"><ele>35.0</ele><time>2026-04-11T15:08:56.622Z</time></trkpt><trkpt lat="45.5721345" lon="11.5304929"><ele>35.0</ele><time>2026-04-11T15:08:59.623Z</time></trkpt><trkpt lat="45.5721998" lon="11.5305074"><ele>35.0</ele><time>2026-04-11T15:09:01.626Z</time></trkpt><trkpt lat="45.5722716" lon="11.5305225"><ele>35.0</ele><time>2026-04-11T15:09:03.625Z</time></trkpt><trkpt lat="45.5723441" lon="11.5305327"><ele>35.142857142857146</ele><time>2026-04-11T15:09:05.625Z</time></trkpt><trkpt lat="45.5724122" lon="11.530549"><ele>35.285714285714285</ele><time>2026-04-11T15:09:07.625Z</time></trkpt><trkpt lat="45.5724781" lon="11.5305619"><ele>35.42857142857143</ele><time>2026-04-11T15:09:09.624Z</time></trkpt><trkpt lat="45.5725423" lon="11.5305677"><ele>35.57142857142857</ele><time>2026-04-11T15:09:11.618Z</time></trkpt><trkpt lat="45.5726347" lon="11.5305736"><ele>35.714285714285715</ele><time>2026-04-11T15:09:14.623Z</time></trkpt><trkpt lat="45.5727002" lon="11.5305794"><ele>35.85714285714286</ele><time>2026-04-11T15:09:16.623Z</time></trkpt><trkpt lat="45.5727682" lon="11.5305901"><ele>36.0</ele><time>2026-04-11T15:09:18.622Z</time></trkpt><trkpt lat="45.5728367" lon="11.5305948"><ele>36.00000000000001</ele><time>2026-04-11T15:09:20.615Z</time></trkpt><trkpt lat="45.5729061" lon="11.5306101"><ele>36.0</ele><time>2026-04-11T15:09:22.624Z</time></trkpt><trkpt lat="45.5729779" lon="11.530625"><ele>36.0</ele><time>2026-04-11T15:09:24.621Z</time></trkpt><trkpt lat="45.5730423" lon="11.5306409"><ele>36.0</ele><time>2026-04-11T15:09:26.624Z</time></trkpt><trkpt lat="45.5731074" lon="11.5306488"><ele>36.0</ele><time>2026-04-11T15:09:28.623Z</time></trkpt><trkpt lat="45.5731905" lon="11.5306665"><ele>36.00000000000001</ele><time>2026-04-11T15:09:31.626Z</time></trkpt><trkpt lat="45.5732705" lon="11.5306797"><ele>36.0</ele><time>2026-04-11T15:09:34.623Z</time></trkpt><trkpt lat="45.5733481" lon="11.5306843"><ele>36.0</ele><time>2026-04-11T15:09:37.624Z</time></trkpt><trkpt lat="45.5734154" lon="11.530697"><ele>36.0</ele><time>2026-04-11T15:09:40.623Z</time></trkpt><trkpt lat="45.5735562" lon="11.5307238"><ele>36.0</ele><time>2026-04-11T15:13:17.627Z</time></trkpt><trkpt lat="45.5736489" lon="11.530723"><ele>36.0</ele><time>2026-04-11T15:13:47.627Z</time></trkpt><trkpt lat="45.5737737" lon="11.5307646"><ele>36.0</ele><time>2026-04-11T15:15:37.625Z</time></trkpt><trkpt lat="45.573844" lon="11.5307881"><ele>36.0</ele><time>2026-04-11T15:15:40.625Z</time></trkpt><trkpt lat="45.5739147" lon="11.5307985"><ele>36.0</ele><time>2026-04-11T15:15:43.624Z</time></trkpt><trkpt lat="45.5739895" lon="11.5308082"><ele>36.0</ele><time>2026-04-11T15:15:46.623Z</time></trkpt><trkpt lat="45.5740754" lon="11.5307979"><ele>36.0</ele><time>2026-04-11T15:15:49.623Z</time></trkpt><trkpt lat="45.5741535" lon="11.5308098"><ele>36.0</ele><time>2026-04-11T15:15:52.624Z</time></trkpt><trkpt lat="45.574218" lon="11.530838"><ele>36.0</ele><time>2026-04-11T15:15:55.624Z</time></trkpt><trkpt lat="45.5742974" lon="11.5308446"><ele>36.00000000000001</ele><time>2026-04-11T15:15:59.625Z</time></trkpt><trkpt lat="45.5743774" lon="11.5308388"><ele>36.0</ele><time>2026-04-11T15:16:03.625Z</time></trkpt><trkpt lat="45.5744491" lon="11.5308543"><ele>36.0</ele><time>2026-04-11T15:16:06.624Z</time></trkpt><trkpt lat="45.574524" lon="11.530864"><ele>36.0</ele><time>2026-04-11T15:16:09.625Z</time></trkpt><trkpt lat="45.5745997" lon="11.5308724"><ele>36.0</ele><time>2026-04-11T15:16:12.62Z</time></trkpt><trkpt lat="45.5746657" lon="11.5309018"><ele>36.00000000000001</ele><time>2026-04-11T15:16:16.621Z</time></trkpt><trkpt lat="45.5747292" lon="11.5308995"><ele>36.0</ele><time>2026-04-11T15:16:32.625Z</time></trkpt><trkpt lat="45.5747992" lon="11.5309263"><ele>35.85714285714286</ele><time>2026-04-11T15:16:35.627Z</time></trkpt><trkpt lat="45.5748614" lon="11.530947"><ele>35.714285714285715</ele><time>2026-04-11T15:16:38.625Z</time></trkpt><trkpt lat="45.5749345" lon="11.53095"><ele>35.57142857142857</ele><time>2026-04-11T15:16:41.623Z</time></trkpt><trkpt lat="45.5750124" lon="11.5309724"><ele>35.42857142857143</ele><time>2026-04-11T15:16:44.625Z</time></trkpt><trkpt lat="45.5750792" lon="11.53099"><ele>35.285714285714285</ele><time>2026-04-11T15:16:46.622Z</time></trkpt><trkpt lat="45.5751588" lon="11.531002"><ele>35.142857142857146</ele><time>2026-04-11T15:16:48.623Z</time></trkpt><trkpt lat="45.5752318" lon="11.5310039"><ele>35.0</ele><time>2026-04-11T15:16:50.623Z</time></trkpt><trkpt lat="45.5753124" lon="11.5310163"><ele>34.666666666666664</ele><time>2026-04-11T15:16:53.624Z</time></trkpt><trkpt lat="45.5753968" lon="11.5310175"><ele>34.33333333333333</ele><time>2026-04-11T15:16:57.623Z</time></trkpt><trkpt lat="45.575474" lon="11.5310241"><ele>34.0</ele><time>2026-04-11T15:17:00.623Z</time></trkpt><trkpt lat="45.5755544" lon="11.5310368"><ele>33.666666666666664</ele><time>2026-04-11T15:17:03.624Z</time></trkpt><trkpt lat="45.5756239" lon="11.5310453"><ele>33.333333333333336</ele><time>2026-04-11T15:17:06.623Z</time></trkpt><trkpt lat="45.5757019" lon="11.5310566"><ele>33.0</ele><time>2026-04-11T15:17:09.622Z</time></trkpt><trkpt lat="45.5757961" lon="11.5310781"><ele>33.0</ele><time>2026-04-11T15:17:12.622Z</time></trkpt><trkpt lat="45.5758606" lon="11.5310954"><ele>33.0</ele><time>2026-04-11T15:17:14.622Z</time></trkpt><trkpt lat="45.5759455" lon="11.5311078"><ele>33.0</ele><time>2026-04-11T15:17:17.623Z</time></trkpt><trkpt lat="45.5760236" lon="11.5311198"><ele>33.0</ele><time>2026-04-11T15:17:20.622Z</time></trkpt><trkpt lat="45.576087" lon="11.531133"><ele>33.0</ele><time>2026-04-11T15:17:23.624Z</time></trkpt><trkpt lat="45.5761598" lon="11.5311402"><ele>33.0</ele><time>2026-04-11T15:17:46.627Z</time></trkpt><trkpt lat="45.5762237" lon="11.5311553"><ele>33.0</ele><time>2026-04-11T15:17:48.624Z</time></trkpt><trkpt lat="45.576305" lon="11.5311719"><ele>33.333333333333336</ele><time>2026-04-11T15:17:50.616Z</time></trkpt><trkpt lat="45.5763957" lon="11.531183"><ele>33.666666666666664</ele><time>2026-04-11T15:17:52.625Z</time></trkpt><trkpt lat="45.5764783" lon="11.531188"><ele>34.0</ele><time>2026-04-11T15:17:54.622Z</time></trkpt><trkpt lat="45.5765531" lon="11.5311924"><ele>34.33333333333333</ele><time>2026-04-11T15:17:56.619Z</time></trkpt><trkpt lat="45.5766265" lon="11.5311955"><ele>34.666666666666664</ele><time>2026-04-11T15:17:58.623Z</time></trkpt><trkpt lat="45.5766965" lon="11.5312051"><ele>35.0</ele><time>2026-04-11T15:18:00.638Z</time></trkpt><trkpt lat="45.5767606" lon="11.5312226"><ele>35.0</ele><time>2026-04-11T15:18:02.632Z</time></trkpt><trkpt lat="45.5768173" lon="11.5312984"><ele>35.0</ele><time>2026-04-11T15:18:05.622Z</time></trkpt><trkpt lat="45.5768334" lon="11.5314101"><ele>35.0</ele><time>2026-04-11T15:18:08.625Z</time></trkpt><trkpt lat="45.5768451" lon="11.5315246"><ele>35.0</ele><time>2026-04-11T15:18:11.624Z</time></trkpt><trkpt lat="45.5768692" lon="11.5316289"><ele>35.0</ele><time>2026-04-11T15:18:14.623Z</time></trkpt><trkpt lat="45.5768832" lon="11.5317193"><ele>35.0</ele><time>2026-04-11T15:18:17.623Z</time></trkpt><trkpt lat="45.5768991" lon="11.5318087"><ele>35.0</ele><time>2026-04-11T15:18:21.623Z</time></trkpt><trkpt lat="45.5769121" lon="11.531902"><ele>35.0</ele><time>2026-04-11T15:18:44.627Z</time></trkpt><trkpt lat="45.5769869" lon="11.531893"><ele>35.0</ele><time>2026-04-11T15:19:08.625Z</time></trkpt><trkpt lat="45.5770722" lon="11.5318963"><ele>35.0</ele><time>2026-04-11T15:19:11.623Z</time></trkpt><trkpt lat="45.5771648" lon="11.5319123"><ele>35.0</ele><time>2026-04-11T15:19:14.619Z</time></trkpt><trkpt lat="45.5772544" lon="11.5319171"><ele>35.0</ele><time>2026-04-11T15:19:17.623Z</time></trkpt><trkpt lat="45.5773437" lon="11.5319163"><ele>35.0</ele><time>2026-04-11T15:19:20.625Z</time></trkpt><trkpt lat="45.5774106" lon="11.5319104"><ele>35.142857142857146</ele><time>2026-04-11T15:19:22.623Z</time></trkpt><trkpt lat="45.577482" lon="11.5319094"><ele>35.285714285714285</ele><time>2026-04-11T15:19:24.624Z</time></trkpt><trkpt lat="45.5775466" lon="11.5319021"><ele>35.42857142857143</ele><time>2026-04-11T15:19:26.624Z</time></trkpt><trkpt lat="45.5776149" lon="11.5319049"><ele>35.57142857142857</ele><time>2026-04-11T15:19:29.621Z</time></trkpt><trkpt lat="45.5776801" lon="11.5318999"><ele>35.714285714285715</ele><time>2026-04-11T15:19:32.626Z</time></trkpt><trkpt lat="45.5777516" lon="11.5319"><ele>35.85714285714286</ele><time>2026-04-11T15:19:34.626Z</time></trkpt><trkpt lat="45.5778436" lon="11.5318926"><ele>36.0</ele><time>2026-04-11T15:19:37.626Z</time></trkpt><trkpt lat="45.5779121" lon="11.5318781"><ele>36.0</ele><time>2026-04-11T15:19:39.624Z</time></trkpt><trkpt lat="45.5779993" lon="11.531869"><ele>36.0</ele><time>2026-04-11T15:19:44.625Z</time></trkpt><trkpt lat="45.5780669" lon="11.5318655"><ele>36.0</ele><time>2026-04-11T15:19:48.625Z</time></trkpt><trkpt lat="45.578126" lon="11.5319203"><ele>36.0</ele><time>2026-04-11T15:20:09.625Z</time></trkpt><trkpt lat="45.5782045" lon="11.531895"><ele>36.0</ele><time>2026-04-11T15:20:14.624Z</time></trkpt><trkpt lat="45.5782721" lon="11.5319084"><ele>36.0</ele><time>2026-04-11T15:20:16.625Z</time></trkpt><trkpt lat="45.5783471" lon="11.531891"><ele>36.0</ele><time>2026-04-11T15:20:19.624Z</time></trkpt><trkpt lat="45.5784347" lon="11.5318775"><ele>36.0</ele><time>2026-04-11T15:20:22.623Z</time></trkpt><trkpt lat="45.5785231" lon="11.5318712"><ele>36.0</ele><time>2026-04-11T15:20:25.623Z</time></trkpt><trkpt lat="45.5786106" lon="11.5318708"><ele>36.0</ele><time>2026-04-11T15:20:28.624Z</time></trkpt><trkpt lat="45.5786937" lon="11.5318711"><ele>36.0</ele><time>2026-04-11T15:20:31.625Z</time></trkpt><trkpt lat="45.5787802" lon="11.5318615"><ele>36.0</ele><time>2026-04-11T15:20:34.624Z</time></trkpt><trkpt lat="45.5788543" lon="11.5318653"><ele>36.0</ele><time>2026-04-11T15:20:37.626Z</time></trkpt><trkpt lat="45.5789188" lon="11.53188"><ele>36.0</ele><time>2026-04-11T15:20:42.624Z</time></trkpt><trkpt lat="45.5787586" lon="11.5318304"><ele>36.0</ele><time>2026-04-11T15:26:41.626Z</time></trkpt><trkpt lat="45.5786794" lon="11.5318226"><ele>36.0</ele><time>2026-04-11T15:26:44.626Z</time></trkpt><trkpt lat="45.5785888" lon="11.5318129"><ele>36.0</ele><time>2026-04-11T15:26:47.626Z</time></trkpt><trkpt lat="45.5785246" lon="11.5318133"><ele>36.0</ele><time>2026-04-11T15:26:49.627Z</time></trkpt><trkpt lat="45.578455" lon="11.5318131"><ele>36.0</ele><time>2026-04-11T15:26:51.626Z</time></trkpt><trkpt lat="45.5783826" lon="11.5318106"><ele>36.0</ele><time>2026-04-11T15:26:53.626Z</time></trkpt><trkpt lat="45.5783072" lon="11.5318125"><ele>36.0</ele><time>2026-04-11T15:26:55.626Z</time></trkpt><trkpt lat="45.5782293" lon="11.5318145"><ele>36.0</ele><time>2026-04-11T15:26:57.626Z</time></trkpt><trkpt lat="45.5781499" lon="11.5318188"><ele>36.0</ele><time>2026-04-11T15:26:59.626Z</time></trkpt><trkpt lat="45.5780721" lon="11.5318169"><ele>36.0</ele><time>2026-04-11T15:27:01.624Z</time></trkpt><trkpt lat="45.5779932" lon="11.531808"><ele>36.0</ele><time>2026-04-11T15:27:03.624Z</time></trkpt><trkpt lat="45.5779091" lon="11.5318064"><ele>36.0</ele><time>2026-04-11T15:27:05.623Z</time></trkpt><trkpt lat="45.5778163" lon="11.5318219"><ele>36.0</ele><time>2026-04-11T15:27:07.625Z</time></trkpt><trkpt lat="45.5777074" lon="11.5318412"><ele>36.0</ele><time>2026-04-11T15:27:09.623Z</time></trkpt><trkpt lat="45.5775879" lon="11.5318517"><ele>36.0</ele><time>2026-04-11T15:27:11.624Z</time></trkpt><trkpt lat="45.5774748" lon="11.5318496"><ele>36.0</ele><time>2026-04-11T15:27:13.628Z</time></trkpt><trkpt lat="45.5773607" lon="11.5318563"><ele>36.0</ele><time>2026-04-11T15:27:15.625Z</time></trkpt><trkpt lat="45.57726" lon="11.5318655"><ele>36.0</ele><time>2026-04-11T15:27:17.624Z</time></trkpt><trkpt lat="45.5771593" lon="11.5318817"><ele>36.0</ele><time>2026-04-11T15:27:19.625Z</time></trkpt><trkpt lat="45.5770607" lon="11.5318886"><ele>35.85714285714286</ele><time>2026-04-11T15:27:21.624Z</time></trkpt><trkpt lat="45.5769761" lon="11.5318988"><ele>35.714285714285715</ele><time>2026-04-11T15:27:23.627Z</time></trkpt><trkpt lat="45.5768929" lon="11.5318716"><ele>35.57142857142857</ele><time>2026-04-11T15:27:26.625Z</time></trkpt><trkpt lat="45.5768761" lon="11.5317839"><ele>35.42857142857143</ele><time>2026-04-11T15:27:28.623Z</time></trkpt><trkpt lat="45.5768673" lon="11.5316877"><ele>35.285714285714285</ele><time>2026-04-11T15:27:30.625Z</time></trkpt><trkpt lat="45.5768527" lon="11.5315883"><ele>35.142857142857146</ele><time>2026-04-11T15:27:32.622Z</time></trkpt><trkpt lat="45.5768326" lon="11.5314876"><ele>35.0</ele><time>2026-04-11T15:27:34.624Z</time></trkpt><trkpt lat="45.5768124" lon="11.5313935"><ele>35.0</ele><time>2026-04-11T15:27:36.625Z</time></trkpt><trkpt lat="45.5767931" lon="11.5312705"><ele>35.0</ele><time>2026-04-11T15:27:39.624Z</time></trkpt><trkpt lat="45.5768305" lon="11.53119"><ele>35.0</ele><time>2026-04-11T15:27:42.623Z</time></trkpt><trkpt lat="45.5768884" lon="11.5312301"><ele>35.0</ele><time>2026-04-11T15:27:44.623Z</time></trkpt><trkpt lat="45.5769662" lon="11.5312753"><ele>35.0</ele><time>2026-04-11T15:27:47.623Z</time></trkpt><trkpt lat="45.5770495" lon="11.5312897"><ele>35.0</ele><time>2026-04-11T15:27:50.617Z</time></trkpt><trkpt lat="45.5771436" lon="11.5312939"><ele>35.166666666666664</ele><time>2026-04-11T15:27:53.623Z</time></trkpt><trkpt lat="45.5772087" lon="11.5312861"><ele>35.33333333333333</ele><time>2026-04-11T15:27:55.624Z</time></trkpt><trkpt lat="45.5773014" lon="11.5313054"><ele>35.5</ele><time>2026-04-11T15:27:58.622Z</time></trkpt><trkpt lat="45.5773664" lon="11.5313206"><ele>35.666666666666664</ele><time>2026-04-11T15:28:00.623Z</time></trkpt><trkpt lat="45.5774316" lon="11.5313289"><ele>35.833333333333336</ele><time>2026-04-11T15:28:02.622Z</time></trkpt><trkpt lat="45.5775242" lon="11.5313481"><ele>36.0</ele><time>2026-04-11T15:28:05.622Z</time></trkpt><trkpt lat="45.5775899" lon="11.5313529"><ele>36.0</ele><time>2026-04-11T15:28:07.623Z</time></trkpt><trkpt lat="45.5776555" lon="11.5313675"><ele>36.0</ele><time>2026-04-11T15:28:09.622Z</time></trkpt><trkpt lat="45.5777499" lon="11.5313799"><ele>36.0</ele><time>2026-04-11T15:28:12.622Z</time></trkpt><trkpt lat="45.5778216" lon="11.5314017"><ele>36.0</ele><time>2026-04-11T15:28:14.624Z</time></trkpt><trkpt lat="45.5778884" lon="11.5314044"><ele>36.0</ele><time>2026-04-11T15:28:16.622Z</time></trkpt><trkpt lat="45.577953" lon="11.5314092"><ele>36.0</ele><time>2026-04-11T15:28:18.623Z</time></trkpt><trkpt lat="45.5780401" lon="11.5314334"><ele>36.00000000000001</ele><time>2026-04-11T15:28:21.623Z</time></trkpt><trkpt lat="45.5781027" lon="11.5314445"><ele>36.0</ele><time>2026-04-11T15:28:23.623Z</time></trkpt><trkpt lat="45.5781714" lon="11.5314491"><ele>36.0</ele><time>2026-04-11T15:28:25.624Z</time></trkpt><trkpt lat="45.5782403" lon="11.5314686"><ele>36.0</ele><time>2026-04-11T15:28:27.623Z</time></trkpt><trkpt lat="45.5783038" lon="11.531485"><ele>36.0</ele><time>2026-04-11T15:28:29.623Z</time></trkpt><trkpt lat="45.5783806" lon="11.5314944"><ele>36.00000000000001</ele><time>2026-04-11T15:28:32.619Z</time></trkpt><trkpt lat="45.578448" lon="11.5314872"><ele>36.0</ele><time>2026-04-11T15:28:35.62Z</time></trkpt><trkpt lat="45.578534" lon="11.5314864"><ele>36.00000000000001</ele><time>2026-04-11T15:28:38.622Z</time></trkpt><trkpt lat="45.5786003" lon="11.5314901"><ele>36.0</ele><time>2026-04-11T15:28:40.622Z</time></trkpt><trkpt lat="45.5786653" lon="11.5315005"><ele>36.0</ele><time>2026-04-11T15:28:42.62Z</time></trkpt><trkpt lat="45.5787317" lon="11.5315193"><ele>36.0</ele><time>2026-04-11T15:28:44.623Z</time></trkpt><trkpt lat="45.5787997" lon="11.5315364"><ele>36.0</ele><time>2026-04-11T15:28:46.623Z</time></trkpt><trkpt lat="45.5788702" lon="11.5315489"><ele>36.00000000000001</ele><time>2026-04-11T15:28:48.622Z</time></trkpt><trkpt lat="45.5789419" lon="11.5315616"><ele>36.0</ele><time>2026-04-11T15:28:50.622Z</time></trkpt><trkpt lat="45.5790132" lon="11.5315723"><ele>36.00000000000001</ele><time>2026-04-11T15:28:52.621Z</time></trkpt><trkpt lat="45.5790861" lon="11.5315765"><ele>36.0</ele><time>2026-04-11T15:28:54.623Z</time></trkpt><trkpt lat="45.5791605" lon="11.5315838"><ele>36.0</ele><time>2026-04-11T15:28:56.623Z</time></trkpt><trkpt lat="45.5792342" lon="11.5315967"><ele>36.0</ele><time>2026-04-11T15:28:58.622Z</time></trkpt><trkpt lat="45.5793084" lon="11.5316108"><ele>36.0</ele><time>2026-04-11T15:29:00.623Z</time></trkpt><trkpt lat="45.5793785" lon="11.5316172"><ele>36.00000000000001</ele><time>2026-04-11T15:29:02.62Z</time></trkpt><trkpt lat="45.579451" lon="11.5316176"><ele>36.0</ele><time>2026-04-11T15:29:04.62Z</time></trkpt><trkpt lat="45.5795196" lon="11.5316257"><ele>36.0</ele><time>2026-04-11T15:29:06.621Z</time></trkpt><trkpt lat="45.5795892" lon="11.5316385"><ele>36.0</ele><time>2026-04-11T15:29:08.622Z</time></trkpt><trkpt lat="45.5796662" lon="11.5316567"><ele>36.0</ele><time>2026-04-11T15:29:10.623Z</time></trkpt><trkpt lat="45.5797402" lon="11.5316659"><ele>36.0</ele><time>2026-04-11T15:29:12.622Z</time></trkpt><trkpt lat="45.5798116" lon="11.5316788"><ele>36.0</ele><time>2026-04-11T15:29:14.623Z</time></trkpt><trkpt lat="45.5798766" lon="11.5316943"><ele>36.0</ele><time>2026-04-11T15:29:16.623Z</time></trkpt><trkpt lat="45.5799673" lon="11.5317124"><ele>36.0</ele><time>2026-04-11T15:29:19.622Z</time></trkpt><trkpt lat="45.5800509" lon="11.5317237"><ele>36.0</ele><time>2026-04-11T15:29:22.621Z</time></trkpt><trkpt lat="45.5801146" lon="11.5317242"><ele>36.0</ele><time>2026-04-11T15:29:25.62Z</time></trkpt><trkpt lat="45.5801856" lon="11.5317374"><ele>36.0</ele><time>2026-04-11T15:29:29.622Z</time></trkpt><trkpt lat="45.5802683" lon="11.5317468"><ele>36.0</ele><time>2026-04-11T15:29:33.618Z</time></trkpt><trkpt lat="45.5803386" lon="11.5317668"><ele>36.0</ele><time>2026-04-11T15:29:36.619Z</time></trkpt><trkpt lat="45.58042" lon="11.5317631"><ele>36.166666666666664</ele><time>2026-04-11T15:29:39.621Z</time></trkpt><trkpt lat="45.5805092" lon="11.5317678"><ele>36.333333333333336</ele><time>2026-04-11T15:29:42.622Z</time></trkpt><trkpt lat="45.5805988" lon="11.5317828"><ele>36.5</ele><time>2026-04-11T15:29:45.622Z</time></trkpt><trkpt lat="45.5806824" lon="11.5317983"><ele>36.66666666666667</ele><time>2026-04-11T15:29:48.622Z</time></trkpt><trkpt lat="45.5807623" lon="11.5318039"><ele>36.833333333333336</ele><time>2026-04-11T15:29:51.622Z</time></trkpt><trkpt lat="45.580835" lon="11.5318179"><ele>37.0</ele><time>2026-04-11T15:29:54.623Z</time></trkpt><trkpt lat="45.5809031" lon="11.5318383"><ele>37.0</ele><time>2026-04-11T15:29:58.621Z</time></trkpt><trkpt lat="45.5809489" lon="11.531901"><ele>37.0</ele><time>2026-04-11T15:30:03.618Z</time></trkpt><trkpt lat="45.5809524" lon="11.5320053"><ele>37.0</ele><time>2026-04-11T15:30:07.62Z</time></trkpt><trkpt lat="45.5809827" lon="11.5320938"><ele>37.0</ele><time>2026-04-11T15:30:10.622Z</time></trkpt><trkpt lat="45.5809711" lon="11.5321882"><ele>37.0</ele><time>2026-04-11T15:30:13.625Z</time></trkpt><trkpt lat="45.5809803" lon="11.532281"><ele>37.0</ele><time>2026-04-11T15:30:16.627Z</time></trkpt><trkpt lat="45.5809866" lon="11.5323761"><ele>37.0</ele><time>2026-04-11T15:30:19.626Z</time></trkpt><trkpt lat="45.581004" lon="11.5324795"><ele>37.0</ele><time>2026-04-11T15:30:23.626Z</time></trkpt><trkpt lat="45.5810203" lon="11.5325776"><ele>37.0</ele><time>2026-04-11T15:30:27.626Z</time></trkpt><trkpt lat="45.5810836" lon="11.5326365"><ele>37.0</ele><time>2026-04-11T15:30:30.622Z</time></trkpt><trkpt lat="45.5811346" lon="11.5327216"><ele>37.0</ele><time>2026-04-11T15:30:34.623Z</time></trkpt><trkpt lat="45.5811988" lon="11.5327954"><ele>37.0</ele><time>2026-04-11T15:30:38.621Z</time></trkpt><trkpt lat="45.5812454" lon="11.5328748"><ele>37.0</ele><time>2026-04-11T15:30:41.623Z</time></trkpt><trkpt lat="45.5812995" lon="11.532973"><ele>37.16666666666667</ele><time>2026-04-11T15:30:44.622Z</time></trkpt><trkpt lat="45.5813483" lon="11.5330708"><ele>37.333333333333336</ele><time>2026-04-11T15:30:47.624Z</time></trkpt><trkpt lat="45.5813835" lon="11.5331466"><ele>37.5</ele><time>2026-04-11T15:30:50.624Z</time></trkpt><trkpt lat="45.5813906" lon="11.5332632"><ele>37.666666666666664</ele><time>2026-04-11T15:30:54.624Z</time></trkpt><trkpt lat="45.5813665" lon="11.5333655"><ele>37.83333333333333</ele><time>2026-04-11T15:30:58.625Z</time></trkpt><trkpt lat="45.581345" lon="11.5334758"><ele>38.0</ele><time>2026-04-11T15:34:03.623Z</time></trkpt><trkpt lat="45.5813404" lon="11.5336016"><ele>38.0</ele><time>2026-04-11T15:34:06.623Z</time></trkpt><trkpt lat="45.5813459" lon="11.5337074"><ele>38.0</ele><time>2026-04-11T15:34:08.622Z</time></trkpt><trkpt lat="45.5813549" lon="11.5338212"><ele>38.0</ele><time>2026-04-11T15:34:10.619Z</time></trkpt><trkpt lat="45.5813616" lon="11.5339145"><ele>38.0</ele><time>2026-04-11T15:34:12.62Z</time></trkpt><trkpt lat="45.5813696" lon="11.534005"><ele>38.0</ele><time>2026-04-11T15:34:14.62Z</time></trkpt><trkpt lat="45.5813803" lon="11.5341182"><ele>38.0</ele><time>2026-04-11T15:34:16.622Z</time></trkpt><trkpt lat="45.5813925" lon="11.534237"><ele>38.0</ele><time>2026-04-11T15:34:18.621Z</time></trkpt><trkpt lat="45.5814083" lon="11.5343396"><ele>38.0</ele><time>2026-04-11T15:34:20.62Z</time></trkpt><trkpt lat="45.5814228" lon="11.5344322"><ele>38.0</ele><time>2026-04-11T15:34:22.619Z</time></trkpt><trkpt lat="45.5814459" lon="11.5345529"><ele>38.0</ele><time>2026-04-11T15:34:25.619Z</time></trkpt><trkpt lat="45.5814661" lon="11.5346702"><ele>38.0</ele><time>2026-04-11T15:34:29.621Z</time></trkpt><trkpt lat="45.581473" lon="11.5347628"><ele>38.0</ele><time>2026-04-11T15:34:33.622Z</time></trkpt><trkpt lat="45.5815081" lon="11.5348386"><ele>38.0</ele><time>2026-04-11T15:34:43.623Z</time></trkpt><trkpt lat="45.5815176" lon="11.5349333"><ele>38.0</ele><time>2026-04-11T15:34:50.623Z</time></trkpt><trkpt lat="45.5815488" lon="11.5350473"><ele>38.0</ele><time>2026-04-11T15:34:54.624Z</time></trkpt><trkpt lat="45.5815988" lon="11.5351132"><ele>38.0</ele><time>2026-04-11T15:34:56.621Z</time></trkpt><trkpt lat="45.5816625" lon="11.5351875"><ele>38.0</ele><time>2026-04-11T15:34:59.623Z</time></trkpt><trkpt lat="45.5817211" lon="11.5352535"><ele>38.0</ele><time>2026-04-11T15:35:03.619Z</time></trkpt><trkpt lat="45.5817766" lon="11.5353237"><ele>38.0</ele><time>2026-04-11T15:35:07.62Z</time></trkpt><trkpt lat="45.5818373" lon="11.5354073"><ele>38.0</ele><time>2026-04-11T15:35:49.62Z</time></trkpt><trkpt lat="45.5819148" lon="11.5354609"><ele>38.0</ele><time>2026-04-11T15:35:51.621Z</time></trkpt><trkpt lat="45.5819958" lon="11.5355047"><ele>38.0</ele><time>2026-04-11T15:35:53.622Z</time></trkpt><trkpt lat="45.5820688" lon="11.5355428"><ele>38.0</ele><time>2026-04-11T15:35:55.62Z</time></trkpt><trkpt lat="45.5821283" lon="11.5355788"><ele>38.0</ele><time>2026-04-11T15:35:57.62Z</time></trkpt><trkpt lat="45.582202" lon="11.5356123"><ele>38.0</ele><time>2026-04-11T15:36:00.621Z</time></trkpt><trkpt lat="45.5822828" lon="11.5356364"><ele>38.0</ele><time>2026-04-11T15:36:04.619Z</time></trkpt><trkpt lat="45.5823449" lon="11.5356577"><ele>38.0</ele><time>2026-04-11T15:36:07.619Z</time></trkpt><trkpt lat="45.5824099" lon="11.535686"><ele>38.0</ele><time>2026-04-11T15:36:10.62Z</time></trkpt><trkpt lat="45.5824868" lon="11.535715"><ele>38.0</ele><time>2026-04-11T15:36:13.619Z</time></trkpt><trkpt lat="45.5825608" lon="11.535739"><ele>38.0</ele><time>2026-04-11T15:36:16.619Z</time></trkpt><trkpt lat="45.5826321" lon="11.5357511"><ele>38.0</ele><time>2026-04-11T15:36:19.621Z</time></trkpt><trkpt lat="45.5827094" lon="11.5357687"><ele>38.0</ele><time>2026-04-11T15:36:22.621Z</time></trkpt><trkpt lat="45.5827886" lon="11.5357935"><ele>38.0</ele><time>2026-04-11T15:36:25.62Z</time></trkpt><trkpt lat="45.5828723" lon="11.5358231"><ele>38.0</ele><time>2026-04-11T15:36:28.619Z</time></trkpt><trkpt lat="45.5829562" lon="11.5358466"><ele>38.0</ele><time>2026-04-11T15:36:35.621Z</time></trkpt><trkpt lat="45.5830153" lon="11.535879"><ele>38.0</ele><time>2026-04-11T15:36:37.621Z</time></trkpt><trkpt lat="45.5831056" lon="11.5359147"><ele>38.0</ele><time>2026-04-11T15:36:40.619Z</time></trkpt><trkpt lat="45.5831714" lon="11.5359241"><ele>38.0</ele><time>2026-04-11T15:36:42.619Z</time></trkpt><trkpt lat="45.5832626" lon="11.5359362"><ele>38.0</ele><time>2026-04-11T15:36:45.621Z</time></trkpt><trkpt lat="45.5833312" lon="11.5359299"><ele>38.0</ele><time>2026-04-11T15:36:47.622Z</time></trkpt><trkpt lat="45.5834124" lon="11.5359169"><ele>38.0</ele><time>2026-04-11T15:36:51.62Z</time></trkpt><trkpt lat="45.5834874" lon="11.5359004"><ele>38.0</ele><time>2026-04-11T15:36:54.614Z</time></trkpt><trkpt lat="45.5835557" lon="11.5358912"><ele>38.0</ele><time>2026-04-11T15:36:56.619Z</time></trkpt><trkpt lat="45.5836263" lon="11.5358852"><ele>38.0</ele><time>2026-04-11T15:36:58.621Z</time></trkpt><trkpt lat="45.5837133" lon="11.5358793"><ele>37.83333333333333</ele><time>2026-04-11T15:37:01.619Z</time></trkpt><trkpt lat="45.5837862" lon="11.5358684"><ele>37.666666666666664</ele><time>2026-04-11T15:37:04.618Z</time></trkpt><trkpt lat="45.583874" lon="11.5358737"><ele>37.5</ele><time>2026-04-11T15:37:07.619Z</time></trkpt><trkpt lat="45.5839664" lon="11.535878"><ele>37.333333333333336</ele><time>2026-04-11T15:37:10.62Z</time></trkpt><trkpt lat="45.5840391" lon="11.5358657"><ele>37.16666666666667</ele><time>2026-04-11T15:37:13.62Z</time></trkpt><trkpt lat="45.5841047" lon="11.5358615"><ele>37.0</ele><time>2026-04-11T15:37:16.62Z</time></trkpt><trkpt lat="45.5841751" lon="11.5358613"><ele>37.0</ele><time>2026-04-11T15:37:19.62Z</time></trkpt><trkpt lat="45.5842572" lon="11.5358219"><ele>37.0</ele><time>2026-04-11T15:37:22.619Z</time></trkpt><trkpt lat="45.5843456" lon="11.5358171"><ele>37.0</ele><time>2026-04-11T15:37:25.62Z</time></trkpt><trkpt lat="45.5844122" lon="11.5358098"><ele>37.0</ele><time>2026-04-11T15:37:27.618Z</time></trkpt><trkpt lat="45.5845054" lon="11.5357844"><ele>37.0</ele><time>2026-04-11T15:37:30.62Z</time></trkpt><trkpt lat="45.5845902" lon="11.5357789"><ele>37.0</ele><time>2026-04-11T15:37:33.619Z</time></trkpt><trkpt lat="45.584661" lon="11.5357723"><ele>37.333333333333336</ele><time>2026-04-11T15:37:36.619Z</time></trkpt><trkpt lat="45.5847427" lon="11.535773"><ele>37.66666666666667</ele><time>2026-04-11T15:37:40.62Z</time></trkpt><trkpt lat="45.5848071" lon="11.5357767"><ele>38.0</ele><time>2026-04-11T15:37:43.619Z</time></trkpt><trkpt lat="45.5848753" lon="11.5357862"><ele>38.333333333333336</ele><time>2026-04-11T15:37:46.62Z</time></trkpt><trkpt lat="45.5849595" lon="11.5357917"><ele>38.666666666666664</ele><time>2026-04-11T15:37:49.62Z</time></trkpt><trkpt lat="45.5850382" lon="11.5357822"><ele>39.0</ele><time>2026-04-11T15:37:52.619Z</time></trkpt><trkpt lat="45.585122" lon="11.5358034"><ele>39.0</ele><time>2026-04-11T15:37:55.62Z</time></trkpt><trkpt lat="45.5852104" lon="11.5358005"><ele>39.0</ele><time>2026-04-11T15:37:58.619Z</time></trkpt><trkpt lat="45.5852988" lon="11.5357946"><ele>39.0</ele><time>2026-04-11T15:38:01.621Z</time></trkpt><trkpt lat="45.5853637" lon="11.5358048"><ele>39.0</ele><time>2026-04-11T15:38:03.62Z</time></trkpt><trkpt lat="45.585427" lon="11.5358309"><ele>39.0</ele><time>2026-04-11T15:38:05.619Z</time></trkpt><trkpt lat="45.5855179" lon="11.5358564"><ele>39.0</ele><time>2026-04-11T15:38:08.62Z</time></trkpt><trkpt lat="45.5856068" lon="11.535883"><ele>38.833333333333336</ele><time>2026-04-11T15:38:11.616Z</time></trkpt><trkpt lat="45.585693" lon="11.5359007"><ele>38.666666666666664</ele><time>2026-04-11T15:38:14.619Z</time></trkpt><trkpt lat="45.5857622" lon="11.5359329"><ele>38.5</ele><time>2026-04-11T15:38:17.62Z</time></trkpt><trkpt lat="45.5858326" lon="11.5359616"><ele>38.33333333333333</ele><time>2026-04-11T15:38:21.62Z</time></trkpt><trkpt lat="45.5859008" lon="11.5359797"><ele>38.166666666666664</ele><time>2026-04-11T15:38:25.621Z</time></trkpt><trkpt lat="45.5859814" lon="11.5360236"><ele>38.0</ele><time>2026-04-11T15:39:16.622Z</time></trkpt><trkpt lat="45.5860678" lon="11.5360636"><ele>38.0</ele><time>2026-04-11T15:39:19.619Z</time></trkpt><trkpt lat="45.5861471" lon="11.5361033"><ele>38.0</ele><time>2026-04-11T15:39:22.621Z</time></trkpt><trkpt lat="45.5862071" lon="11.5361347"><ele>38.0</ele><time>2026-04-11T15:39:25.62Z</time></trkpt><trkpt lat="45.5862897" lon="11.5361791"><ele>38.0</ele><time>2026-04-11T15:39:28.622Z</time></trkpt><trkpt lat="45.5863645" lon="11.5362362"><ele>38.0</ele><time>2026-04-11T15:39:31.614Z</time></trkpt><trkpt lat="45.5864498" lon="11.536286"><ele>38.0</ele><time>2026-04-11T15:39:34.621Z</time></trkpt><trkpt lat="45.5865102" lon="11.5363153"><ele>38.14285714285714</ele><time>2026-04-11T15:39:36.615Z</time></trkpt><trkpt lat="45.5865795" lon="11.5363506"><ele>38.28571428571429</ele><time>2026-04-11T15:39:38.622Z</time></trkpt><trkpt lat="45.5866522" lon="11.5363905"><ele>38.42857142857143</ele><time>2026-04-11T15:39:40.62Z</time></trkpt><trkpt lat="45.5867104" lon="11.5364269"><ele>38.57142857142857</ele><time>2026-04-11T15:39:42.617Z</time></trkpt><trkpt lat="45.5867798" lon="11.5364784"><ele>38.71428571428571</ele><time>2026-04-11T15:39:45.62Z</time></trkpt><trkpt lat="45.586841" lon="11.5365328"><ele>38.85714285714286</ele><time>2026-04-11T15:39:48.622Z</time></trkpt><trkpt lat="45.5868933" lon="11.5365886"><ele>39.0</ele><time>2026-04-11T15:39:50.62Z</time></trkpt><trkpt lat="45.5869453" lon="11.5366493"><ele>39.0</ele><time>2026-04-11T15:39:52.62Z</time></trkpt><trkpt lat="45.5870014" lon="11.5367"><ele>39.0</ele><time>2026-04-11T15:39:54.623Z</time></trkpt><trkpt lat="45.5870595" lon="11.5367528"><ele>39.0</ele><time>2026-04-11T15:39:56.62Z</time></trkpt><trkpt lat="45.5871214" lon="11.5368124"><ele>39.0</ele><time>2026-04-11T15:39:58.619Z</time></trkpt><trkpt lat="45.5871884" lon="11.5368773"><ele>39.0</ele><time>2026-04-11T15:40:01.625Z</time></trkpt><trkpt lat="45.5872442" lon="11.5369376"><ele>39.0</ele><time>2026-04-11T15:40:04.624Z</time></trkpt><trkpt lat="45.5872891" lon="11.5370143"><ele>39.0</ele><time>2026-04-11T15:40:07.624Z</time></trkpt><trkpt lat="45.5873552" lon="11.5370887"><ele>39.0</ele><time>2026-04-11T15:40:10.624Z</time></trkpt><trkpt lat="45.5874092" lon="11.5371555"><ele>39.0</ele><time>2026-04-11T15:40:13.623Z</time></trkpt><trkpt lat="45.587457" lon="11.537217"><ele>39.0</ele><time>2026-04-11T15:40:16.622Z</time></trkpt><trkpt lat="45.5875121" lon="11.5372883"><ele>39.0</ele><time>2026-04-11T15:40:20.622Z</time></trkpt><trkpt lat="45.5875706" lon="11.5373645"><ele>39.0</ele><time>2026-04-11T15:40:23.622Z</time></trkpt><trkpt lat="45.5876408" lon="11.5374015"><ele>39.0</ele><time>2026-04-11T15:40:26.621Z</time></trkpt><trkpt lat="45.5877039" lon="11.537423"><ele>39.0</ele><time>2026-04-11T15:40:47.627Z</time></trkpt><trkpt lat="45.5877397" lon="11.5375055"><ele>39.0</ele><time>2026-04-11T15:40:50.625Z</time></trkpt><trkpt lat="45.5877835" lon="11.5375905"><ele>39.0</ele><time>2026-04-11T15:40:53.624Z</time></trkpt><trkpt lat="45.587857" lon="11.5376448"><ele>39.0</ele><time>2026-04-11T15:40:56.622Z</time></trkpt><trkpt lat="45.5879237" lon="11.5377211"><ele>39.0</ele><time>2026-04-11T15:40:59.622Z</time></trkpt><trkpt lat="45.5879783" lon="11.5377886"><ele>39.0</ele><time>2026-04-11T15:41:02.621Z</time></trkpt><trkpt lat="45.5880262" lon="11.5378525"><ele>39.0</ele><time>2026-04-11T15:41:05.621Z</time></trkpt><trkpt lat="45.5880989" lon="11.5379318"><ele>38.833333333333336</ele><time>2026-04-11T15:41:43.623Z</time></trkpt><trkpt lat="45.5881701" lon="11.538014"><ele>38.666666666666664</ele><time>2026-04-11T15:41:46.622Z</time></trkpt><trkpt lat="45.588225" lon="11.5380805"><ele>38.5</ele><time>2026-04-11T15:41:48.622Z</time></trkpt><trkpt lat="45.5882816" lon="11.538145"><ele>38.33333333333333</ele><time>2026-04-11T15:41:50.621Z</time></trkpt><trkpt lat="45.5883512" lon="11.5382257"><ele>38.166666666666664</ele><time>2026-04-11T15:41:53.622Z</time></trkpt><trkpt lat="45.5884048" lon="11.5382922"><ele>38.0</ele><time>2026-04-11T15:41:56.62Z</time></trkpt><trkpt lat="45.5884647" lon="11.5383646"><ele>38.0</ele><time>2026-04-11T15:41:59.622Z</time></trkpt><trkpt lat="45.5885433" lon="11.5384405"><ele>38.0</ele><time>2026-04-11T15:42:02.623Z</time></trkpt><trkpt lat="45.588602" lon="11.538503"><ele>38.0</ele><time>2026-04-11T15:42:05.624Z</time></trkpt><trkpt lat="45.588668" lon="11.5385781"><ele>38.0</ele><time>2026-04-11T15:42:12.619Z</time></trkpt><trkpt lat="45.5887426" lon="11.5386603"><ele>38.0</ele><time>2026-04-11T15:42:15.622Z</time></trkpt><trkpt lat="45.5888085" lon="11.5387378"><ele>38.0</ele><time>2026-04-11T15:42:18.621Z</time></trkpt><trkpt lat="45.5888666" lon="11.5388283"><ele>37.83333333333333</ele><time>2026-04-11T15:42:21.622Z</time></trkpt><trkpt lat="45.5889155" lon="11.5389142"><ele>37.666666666666664</ele><time>2026-04-11T15:42:24.621Z</time></trkpt><trkpt lat="45.5889463" lon="11.5390012"><ele>37.5</ele><time>2026-04-11T15:42:27.622Z</time></trkpt><trkpt lat="45.5890081" lon="11.539155"><ele>37.333333333333336</ele><time>2026-04-11T15:42:30.623Z</time></trkpt><trkpt lat="45.5890533" lon="11.539231"><ele>37.16666666666667</ele><time>2026-04-11T15:42:33.622Z</time></trkpt><trkpt lat="45.5890921" lon="11.5393308"><ele>37.0</ele><time>2026-04-11T15:42:36.623Z</time></trkpt><trkpt lat="45.5891354" lon="11.5394425"><ele>37.0</ele><time>2026-04-11T15:42:39.624Z</time></trkpt><trkpt lat="45.5891672" lon="11.5395426"><ele>37.0</ele><time>2026-04-11T15:42:42.622Z</time></trkpt><trkpt lat="45.5892033" lon="11.5396275"><ele>37.0</ele><time>2026-04-11T15:42:45.623Z</time></trkpt><trkpt lat="45.5892731" lon="11.5397095"><ele>37.0</ele><time>2026-04-11T15:42:49.621Z</time></trkpt><trkpt lat="45.5893126" lon="11.5397979"><ele>37.0</ele><time>2026-04-11T15:42:52.623Z</time></trkpt><trkpt lat="45.5893651" lon="11.5398878"><ele>37.0</ele><time>2026-04-11T15:42:55.621Z</time></trkpt><trkpt lat="45.5894026" lon="11.5399696"><ele>37.16666666666667</ele><time>2026-04-11T15:42:58.623Z</time></trkpt><trkpt lat="45.5894583" lon="11.5400822"><ele>37.333333333333336</ele><time>2026-04-11T15:43:01.623Z</time></trkpt><trkpt lat="45.5894998" lon="11.5401554"><ele>37.5</ele><time>2026-04-11T15:43:04.623Z</time></trkpt><trkpt lat="45.5895445" lon="11.5402381"><ele>37.666666666666664</ele><time>2026-04-11T15:43:10.621Z</time></trkpt><trkpt lat="45.5895782" lon="11.5403256"><ele>37.83333333333333</ele><time>2026-04-11T15:43:17.621Z</time></trkpt><trkpt lat="45.5896215" lon="11.5403914"><ele>38.0</ele><time>2026-04-11T15:43:21.621Z</time></trkpt><trkpt lat="45.5896848" lon="11.5404667"><ele>38.0</ele><time>2026-04-11T15:43:24.623Z</time></trkpt><trkpt lat="45.589732" lon="11.5405532"><ele>38.0</ele><time>2026-04-11T15:43:27.622Z</time></trkpt><trkpt lat="45.5897711" lon="11.540656"><ele>38.0</ele><time>2026-04-11T15:43:31.624Z</time></trkpt><trkpt lat="45.5898172" lon="11.5407499"><ele>38.0</ele><time>2026-04-11T15:43:34.624Z</time></trkpt><trkpt lat="45.5898733" lon="11.5408484"><ele>38.0</ele><time>2026-04-11T15:43:37.622Z</time></trkpt><trkpt lat="45.5899051" lon="11.5409416"><ele>38.0</ele><time>2026-04-11T15:43:40.622Z</time></trkpt><trkpt lat="45.5899508" lon="11.5410188"><ele>38.0</ele><time>2026-04-11T15:43:43.621Z</time></trkpt><trkpt lat="45.5899777" lon="11.5411216"><ele>38.0</ele><time>2026-04-11T15:43:48.622Z</time></trkpt><trkpt lat="45.5900177" lon="11.5412181"><ele>38.0</ele><time>2026-04-11T15:43:52.62Z</time></trkpt><trkpt lat="45.5900657" lon="11.5412832"><ele>38.0</ele><time>2026-04-11T15:43:55.622Z</time></trkpt><trkpt lat="45.5901198" lon="11.5413672"><ele>38.0</ele><time>2026-04-11T15:43:58.621Z</time></trkpt><trkpt lat="45.59017" lon="11.541465"><ele>38.0</ele><time>2026-04-11T15:44:01.623Z</time></trkpt><trkpt lat="45.5902227" lon="11.5415706"><ele>38.0</ele><time>2026-04-11T15:44:04.623Z</time></trkpt><trkpt lat="45.5902628" lon="11.5416468"><ele>38.0</ele><time>2026-04-11T15:44:06.62Z</time></trkpt><trkpt lat="45.5903221" lon="11.5417486"><ele>38.0</ele><time>2026-04-11T15:44:09.622Z</time></trkpt><trkpt lat="45.5903735" lon="11.541855"><ele>38.0</ele><time>2026-04-11T15:44:12.621Z</time></trkpt><trkpt lat="45.5904138" lon="11.5419313"><ele>38.0</ele><time>2026-04-11T15:44:15.621Z</time></trkpt><trkpt lat="45.590455" lon="11.5420248"><ele>38.0</ele><time>2026-04-11T15:44:19.62Z</time></trkpt><trkpt lat="45.590539" lon="11.5419802"><ele>38.0</ele><time>2026-04-11T15:44:22.62Z</time></trkpt><trkpt lat="45.5906059" lon="11.5419181"><ele>38.0</ele><time>2026-04-11T15:44:25.62Z</time></trkpt><trkpt lat="45.590654" lon="11.541844"><ele>38.0</ele><time>2026-04-11T15:44:30.623Z</time></trkpt><trkpt lat="45.5907147" lon="11.5417819"><ele>38.0</ele><time>2026-04-11T15:44:35.623Z</time></trkpt><trkpt lat="45.5907651" lon="11.5417235"><ele>38.0</ele><time>2026-04-11T15:44:38.623Z</time></trkpt><trkpt lat="45.5908066" lon="11.5416525"><ele>38.0</ele><time>2026-04-11T15:44:41.619Z</time></trkpt><trkpt lat="45.5908654" lon="11.5415939"><ele>38.0</ele><time>2026-04-11T15:44:44.622Z</time></trkpt><trkpt lat="45.5909073" lon="11.5415222"><ele>38.0</ele><time>2026-04-11T15:44:47.619Z</time></trkpt><trkpt lat="45.5909518" lon="11.5414443"><ele>38.0</ele><time>2026-04-11T15:44:53.622Z</time></trkpt><trkpt lat="45.5910256" lon="11.5414059"><ele>38.0</ele><time>2026-04-11T15:44:58.619Z</time></trkpt><trkpt lat="45.5910869" lon="11.5413207"><ele>38.0</ele><time>2026-04-11T15:45:01.613Z</time></trkpt><trkpt lat="45.5911363" lon="11.5412358"><ele>38.0</ele><time>2026-04-11T15:45:04.621Z</time></trkpt><trkpt lat="45.591187" lon="11.5411609"><ele>38.0</ele><time>2026-04-11T15:45:07.619Z</time></trkpt><trkpt lat="45.5912372" lon="11.5410592"><ele>38.14285714285714</ele><time>2026-04-11T15:45:10.622Z</time></trkpt><trkpt lat="45.5912863" lon="11.5409687"><ele>38.28571428571429</ele><time>2026-04-11T15:45:13.622Z</time></trkpt><trkpt lat="45.5913265" lon="11.5408829"><ele>38.42857142857143</ele><time>2026-04-11T15:45:16.621Z</time></trkpt><trkpt lat="45.5913756" lon="11.5408003"><ele>38.57142857142857</ele><time>2026-04-11T15:45:19.622Z</time></trkpt><trkpt lat="45.5914323" lon="11.5407472"><ele>38.71428571428571</ele><time>2026-04-11T15:45:22.621Z</time></trkpt><trkpt lat="45.5914863" lon="11.5406837"><ele>38.85714285714286</ele><time>2026-04-11T15:45:25.623Z</time></trkpt><trkpt lat="45.5915377" lon="11.5406278"><ele>39.0</ele><time>2026-04-11T15:45:28.624Z</time></trkpt><trkpt lat="45.5916003" lon="11.5405944"><ele>39.0</ele><time>2026-04-11T15:45:32.621Z</time></trkpt><trkpt lat="45.5916453" lon="11.5405233"><ele>39.0</ele><time>2026-04-11T15:45:38.62Z</time></trkpt><trkpt lat="45.5917052" lon="11.5405718"><ele>39.0</ele><time>2026-04-11T15:47:41.625Z</time></trkpt><trkpt lat="45.5917331" lon="11.5404835"><ele>39.0</ele><time>2026-04-11T15:49:03.628Z</time></trkpt><trkpt lat="45.5917752" lon="11.5404031"><ele>39.0</ele><time>2026-04-11T15:49:10.629Z</time></trkpt><trkpt lat="45.591841" lon="11.5403083"><ele>39.0</ele><time>2026-04-11T15:49:14.626Z</time></trkpt><trkpt lat="45.5918996" lon="11.5402179"><ele>39.0</ele><time>2026-04-11T15:49:17.629Z</time></trkpt><trkpt lat="45.5919512" lon="11.5401538"><ele>39.0</ele><time>2026-04-11T15:49:21.629Z</time></trkpt><trkpt lat="45.5920033" lon="11.540085"><ele>39.0</ele><time>2026-04-11T15:49:28.628Z</time></trkpt><trkpt lat="45.592056" lon="11.540011"><ele>39.0</ele><time>2026-04-11T15:49:32.628Z</time></trkpt><trkpt lat="45.5921005" lon="11.5399458"><ele>39.0</ele><time>2026-04-11T15:49:35.629Z</time></trkpt><trkpt lat="45.5921472" lon="11.5398557"><ele>39.0</ele><time>2026-04-11T15:49:39.628Z</time></trkpt><trkpt lat="45.5921874" lon="11.5397786"><ele>39.0</ele><time>2026-04-11T15:49:42.627Z</time></trkpt><trkpt lat="45.5922359" lon="11.5396999"><ele>38.85714285714286</ele><time>2026-04-11T15:49:45.626Z</time></trkpt><trkpt lat="45.5922848" lon="11.5395896"><ele>38.71428571428571</ele><time>2026-04-11T15:49:48.627Z</time></trkpt><trkpt lat="45.5923234" lon="11.539517"><ele>38.57142857142857</ele><time>2026-04-11T15:49:51.626Z</time></trkpt><trkpt lat="45.5923733" lon="11.5394403"><ele>38.42857142857143</ele><time>2026-04-11T15:49:56.627Z</time></trkpt><trkpt lat="45.5924209" lon="11.5393625"><ele>38.28571428571429</ele><time>2026-04-11T15:49:59.628Z</time></trkpt><trkpt lat="45.5924644" lon="11.5392812"><ele>38.14285714285714</ele><time>2026-04-11T15:50:02.627Z</time></trkpt><trkpt lat="45.5925095" lon="11.5392129"><ele>38.0</ele><time>2026-04-11T15:50:07.627Z</time></trkpt><trkpt lat="45.5925649" lon="11.539144"><ele>38.0</ele><time>2026-04-11T15:52:24.628Z</time></trkpt><trkpt lat="45.5926306" lon="11.5390738"><ele>38.0</ele><time>2026-04-11T15:52:27.627Z</time></trkpt><trkpt lat="45.5926731" lon="11.5390007"><ele>38.0</ele><time>2026-04-11T15:52:30.628Z</time></trkpt><trkpt lat="45.5927385" lon="11.538923"><ele>38.0</ele><time>2026-04-11T15:52:33.622Z</time></trkpt><trkpt lat="45.5928095" lon="11.5388573"><ele>38.0</ele><time>2026-04-11T15:52:36.624Z</time></trkpt><trkpt lat="45.5928765" lon="11.5387892"><ele>38.0</ele><time>2026-04-11T15:52:39.617Z</time></trkpt><trkpt lat="45.5929581" lon="11.5387307"><ele>38.166666666666664</ele><time>2026-04-11T15:52:42.621Z</time></trkpt><trkpt lat="45.593032" lon="11.5386614"><ele>38.33333333333333</ele><time>2026-04-11T15:52:45.624Z</time></trkpt><trkpt lat="45.593109" lon="11.5385919"><ele>38.5</ele><time>2026-04-11T15:52:48.624Z</time></trkpt><trkpt lat="45.5931781" lon="11.5385236"><ele>38.666666666666664</ele><time>2026-04-11T15:52:51.626Z</time></trkpt><trkpt lat="45.593257" lon="11.5384623"><ele>38.833333333333336</ele><time>2026-04-11T15:52:54.625Z</time></trkpt><trkpt lat="45.5933314" lon="11.5383958"><ele>39.0</ele><time>2026-04-11T15:52:57.623Z</time></trkpt><trkpt lat="45.5933871" lon="11.5383367"><ele>39.0</ele><time>2026-04-11T15:52:59.623Z</time></trkpt><trkpt lat="45.59346" lon="11.5382663"><ele>39.0</ele><time>2026-04-11T15:53:02.622Z</time></trkpt><trkpt lat="45.5935208" lon="11.5382074"><ele>39.0</ele><time>2026-04-11T15:53:05.621Z</time></trkpt><trkpt lat="45.5935781" lon="11.5381539"><ele>39.0</ele><time>2026-04-11T15:53:08.622Z</time></trkpt><trkpt lat="45.5936555" lon="11.5381164"><ele>39.0</ele><time>2026-04-11T15:53:11.621Z</time></trkpt><trkpt lat="45.5937384" lon="11.5380667"><ele>39.0</ele><time>2026-04-11T15:53:14.624Z</time></trkpt><trkpt lat="45.5938162" lon="11.5380114"><ele>39.0</ele><time>2026-04-11T15:53:17.624Z</time></trkpt><trkpt lat="45.5938886" lon="11.5379647"><ele>39.0</ele><time>2026-04-11T15:53:20.624Z</time></trkpt><trkpt lat="45.5939618" lon="11.5379388"><ele>39.0</ele><time>2026-04-11T15:53:23.617Z</time></trkpt><trkpt lat="45.5940475" lon="11.5379064"><ele>39.0</ele><time>2026-04-11T15:53:26.623Z</time></trkpt><trkpt lat="45.594123" lon="11.5378559"><ele>39.0</ele><time>2026-04-11T15:53:29.624Z</time></trkpt><trkpt lat="45.594194" lon="11.5377801"><ele>39.0</ele><time>2026-04-11T15:53:32.623Z</time></trkpt><trkpt lat="45.594269" lon="11.5377255"><ele>39.0</ele><time>2026-04-11T15:53:35.623Z</time></trkpt><trkpt lat="45.5943478" lon="11.5376784"><ele>39.0</ele><time>2026-04-11T15:53:38.625Z</time></trkpt><trkpt lat="45.5944298" lon="11.5376378"><ele>39.0</ele><time>2026-04-11T15:53:41.624Z</time></trkpt><trkpt lat="45.5945109" lon="11.5375925"><ele>39.0</ele><time>2026-04-11T15:53:44.623Z</time></trkpt><trkpt lat="45.5945809" lon="11.5375812"><ele>39.0</ele><time>2026-04-11T15:53:47.623Z</time></trkpt><trkpt lat="45.5946487" lon="11.5375594"><ele>39.0</ele><time>2026-04-11T15:53:53.623Z</time></trkpt><trkpt lat="45.5947087" lon="11.5375279"><ele>39.0</ele><time>2026-04-11T15:53:58.624Z</time></trkpt><trkpt lat="45.594785" lon="11.537504"><ele>39.0</ele><time>2026-04-11T15:54:01.624Z</time></trkpt><trkpt lat="45.5948625" lon="11.5375111"><ele>39.0</ele><time>2026-04-11T15:54:04.622Z</time></trkpt><trkpt lat="45.5949328" lon="11.5374951"><ele>39.0</ele><time>2026-04-11T15:54:10.624Z</time></trkpt><trkpt lat="45.5949858" lon="11.5374465"><ele>39.0</ele><time>2026-04-11T15:54:14.622Z</time></trkpt><trkpt lat="45.5950509" lon="11.5374145"><ele>39.0</ele><time>2026-04-11T15:54:18.623Z</time></trkpt><trkpt lat="45.5951214" lon="11.5373839"><ele>39.0</ele><time>2026-04-11T15:54:22.624Z</time></trkpt><trkpt lat="45.5951964" lon="11.5373456"><ele>39.0</ele><time>2026-04-11T15:54:26.624Z</time></trkpt><trkpt lat="45.5952623" lon="11.5373189"><ele>39.0</ele><time>2026-04-11T15:54:30.623Z</time></trkpt><trkpt lat="45.5953318" lon="11.5372941"><ele>39.0</ele><time>2026-04-11T15:54:34.624Z</time></trkpt><trkpt lat="45.5954036" lon="11.5372569"><ele>39.0</ele><time>2026-04-11T15:54:38.622Z</time></trkpt><trkpt lat="45.5954718" lon="11.5372222"><ele>39.0</ele><time>2026-04-11T15:54:42.623Z</time></trkpt><trkpt lat="45.5955375" lon="11.5372037"><ele>39.0</ele><time>2026-04-11T15:54:45.623Z</time></trkpt><trkpt lat="45.5956166" lon="11.5371765"><ele>39.0</ele><time>2026-04-11T15:54:49.62Z</time></trkpt><trkpt lat="45.5956942" lon="11.537135"><ele>39.0</ele><time>2026-04-11T15:54:53.626Z</time></trkpt><trkpt lat="45.5957637" lon="11.5371045"><ele>39.0</ele><time>2026-04-11T15:54:56.622Z</time></trkpt><trkpt lat="45.5958312" lon="11.5370886"><ele>39.0</ele><time>2026-04-11T15:54:59.625Z</time></trkpt><trkpt lat="45.595897" lon="11.5370563"><ele>39.0</ele><time>2026-04-11T15:55:02.617Z</time></trkpt><trkpt lat="45.5959542" lon="11.5370168"><ele>39.0</ele><time>2026-04-11T15:55:05.622Z</time></trkpt><trkpt lat="45.5960073" lon="11.5369527"><ele>39.0</ele><time>2026-04-11T15:55:08.623Z</time></trkpt><trkpt lat="45.5960686" lon="11.536877"><ele>39.0</ele><time>2026-04-11T15:55:11.619Z</time></trkpt><trkpt lat="45.5961322" lon="11.536782"><ele>38.666666666666664</ele><time>2026-04-11T15:55:14.616Z</time></trkpt><trkpt lat="45.5961988" lon="11.5367222"><ele>38.333333333333336</ele><time>2026-04-11T15:55:17.62Z</time></trkpt><trkpt lat="45.5962766" lon="11.5366696"><ele>38.0</ele><time>2026-04-11T15:55:20.621Z</time></trkpt><trkpt lat="45.5963465" lon="11.5366195"><ele>37.66666666666667</ele><time>2026-04-11T15:55:23.621Z</time></trkpt><trkpt lat="45.5964159" lon="11.5365729"><ele>37.333333333333336</ele><time>2026-04-11T15:55:26.622Z</time></trkpt><trkpt lat="45.5964968" lon="11.5365406"><ele>37.0</ele><time>2026-04-11T15:55:29.623Z</time></trkpt><trkpt lat="45.5965773" lon="11.5365275"><ele>37.0</ele><time>2026-04-11T15:55:32.622Z</time></trkpt><trkpt lat="45.5966572" lon="11.5364947"><ele>37.0</ele><time>2026-04-11T15:55:35.62Z</time></trkpt><trkpt lat="45.5967402" lon="11.5364769"><ele>37.0</ele><time>2026-04-11T15:55:38.62Z</time></trkpt><trkpt lat="45.5968269" lon="11.5364644"><ele>37.0</ele><time>2026-04-11T15:55:41.619Z</time></trkpt><trkpt lat="45.5969074" lon="11.5364339"><ele>37.0</ele><time>2026-04-11T15:55:44.62Z</time></trkpt><trkpt lat="45.5969932" lon="11.5364431"><ele>37.0</ele><time>2026-04-11T15:55:47.621Z</time></trkpt><trkpt lat="45.5970678" lon="11.5364614"><ele>37.142857142857146</ele><time>2026-04-11T15:55:50.622Z</time></trkpt><trkpt lat="45.5971346" lon="11.5364533"><ele>37.285714285714285</ele><time>2026-04-11T15:55:54.62Z</time></trkpt><trkpt lat="45.5972028" lon="11.5364849"><ele>37.42857142857143</ele><time>2026-04-11T15:55:57.619Z</time></trkpt><trkpt lat="45.5972771" lon="11.5364974"><ele>37.57142857142857</ele><time>2026-04-11T15:56:00.622Z</time></trkpt><trkpt lat="45.5973477" lon="11.5364809"><ele>37.714285714285715</ele><time>2026-04-11T15:56:03.622Z</time></trkpt><trkpt lat="45.5974236" lon="11.5365166"><ele>37.857142857142854</ele><time>2026-04-11T15:56:06.622Z</time></trkpt><trkpt lat="45.5974975" lon="11.5365603"><ele>38.0</ele><time>2026-04-11T15:56:09.619Z</time></trkpt><trkpt lat="45.5975724" lon="11.5365467"><ele>38.0</ele><time>2026-04-11T15:56:13.62Z</time></trkpt><trkpt lat="45.5976591" lon="11.5365725"><ele>38.0</ele><time>2026-04-11T15:56:17.619Z</time></trkpt><trkpt lat="45.5977355" lon="11.5365763"><ele>38.0</ele><time>2026-04-11T15:56:20.622Z</time></trkpt><trkpt lat="45.5978189" lon="11.5365725"><ele>38.0</ele><time>2026-04-11T15:56:23.62Z</time></trkpt><trkpt lat="45.5978927" lon="11.5365785"><ele>38.0</ele><time>2026-04-11T15:56:26.622Z</time></trkpt><trkpt lat="45.5979652" lon="11.5365616"><ele>38.0</ele><time>2026-04-11T15:56:29.621Z</time></trkpt><trkpt lat="45.5980428" lon="11.5365639"><ele>38.166666666666664</ele><time>2026-04-11T15:56:32.615Z</time></trkpt><trkpt lat="45.5981294" lon="11.5365566"><ele>38.33333333333333</ele><time>2026-04-11T15:56:36.615Z</time></trkpt><trkpt lat="45.5982022" lon="11.536547"><ele>38.5</ele><time>2026-04-11T15:56:39.622Z</time></trkpt><trkpt lat="45.5982761" lon="11.5365362"><ele>38.666666666666664</ele><time>2026-04-11T15:56:42.622Z</time></trkpt><trkpt lat="45.5983406" lon="11.5365186"><ele>38.833333333333336</ele><time>2026-04-11T15:56:44.623Z</time></trkpt><trkpt lat="45.5984305" lon="11.5365135"><ele>39.0</ele><time>2026-04-11T15:56:47.621Z</time></trkpt><trkpt lat="45.598517" lon="11.5365246"><ele>39.0</ele><time>2026-04-11T15:56:50.622Z</time></trkpt><trkpt lat="45.5985794" lon="11.5365427"><ele>39.0</ele><time>2026-04-11T15:56:52.624Z</time></trkpt><trkpt lat="45.5986422" lon="11.5365733"><ele>39.0</ele><time>2026-04-11T15:56:54.622Z</time></trkpt><trkpt lat="45.598719" lon="11.5365841"><ele>39.0</ele><time>2026-04-11T15:56:57.623Z</time></trkpt><trkpt lat="45.5987912" lon="11.5366208"><ele>39.0</ele><time>2026-04-11T15:57:02.622Z</time></trkpt><trkpt lat="45.5988517" lon="11.536669"><ele>39.0</ele><time>2026-04-11T15:57:05.615Z</time></trkpt><trkpt lat="45.5989072" lon="11.5367199"><ele>39.0</ele><time>2026-04-11T15:57:11.622Z</time></trkpt><trkpt lat="45.5989285" lon="11.536625"><ele>39.142857142857146</ele><time>2026-04-11T15:59:04.626Z</time></trkpt><trkpt lat="45.5989455" lon="11.5365308"><ele>39.285714285714285</ele><time>2026-04-11T15:59:12.624Z</time></trkpt><trkpt lat="45.5989565" lon="11.5366319"><ele>39.42857142857143</ele><time>2026-04-11T16:00:53.63Z</time></trkpt><trkpt lat="45.5989653" lon="11.5367317"><ele>39.57142857142857</ele><time>2026-04-11T16:00:58.628Z</time></trkpt><trkpt lat="45.5989442" lon="11.5366079"><ele>39.714285714285715</ele><time>2026-04-11T16:01:51.624Z</time></trkpt><trkpt lat="45.5989745" lon="11.5365265"><ele>39.857142857142854</ele><time>2026-04-11T16:01:56.623Z</time></trkpt><trkpt lat="45.5989711" lon="11.5364153"><ele>40.0</ele><time>2026-04-11T16:02:00.626Z</time></trkpt><trkpt lat="45.5989698" lon="11.5363051"><ele>40.0</ele><time>2026-04-11T16:02:02.624Z</time></trkpt><trkpt lat="45.5989815" lon="11.5362064"><ele>40.0</ele><time>2026-04-11T16:02:04.621Z</time></trkpt><trkpt lat="45.5989633" lon="11.5363493"><ele>40.0</ele><time>2026-04-11T16:03:17.627Z</time></trkpt><trkpt lat="45.5989603" lon="11.5364406"><ele>40.0</ele><time>2026-04-11T16:03:35.625Z</time></trkpt><trkpt lat="45.59895" lon="11.5365349"><ele>40.0</ele><time>2026-04-11T16:03:39.626Z</time></trkpt><trkpt lat="45.5989535" lon="11.5366473"><ele>40.0</ele><time>2026-04-11T16:03:43.632Z</time></trkpt><trkpt lat="45.5989537" lon="11.5367571"><ele>40.0</ele><time>2026-04-11T16:03:48.631Z</time></trkpt><trkpt lat="45.5989624" lon="11.5368504"><ele>40.0</ele><time>2026-04-11T16:03:53.63Z</time></trkpt><trkpt lat="45.5989474" lon="11.5367362"><ele>40.0</ele><time>2026-04-11T16:04:38.627Z</time></trkpt><trkpt lat="45.5989525" lon="11.5366341"><ele>40.0</ele><time>2026-04-11T16:04:46.628Z</time></trkpt><trkpt lat="45.598946" lon="11.5365197"><ele>40.0</ele><time>2026-04-11T16:04:50.628Z</time></trkpt><trkpt lat="45.5989732" lon="11.5366108"><ele>40.0</ele><time>2026-04-11T16:05:31.665Z</time></trkpt><trkpt lat="45.5989902" lon="11.5367071"><ele>40.0</ele><time>2026-04-11T16:05:35.621Z</time></trkpt><trkpt lat="45.5989967" lon="11.5368019"><ele>40.0</ele><time>2026-04-11T16:05:40.622Z</time></trkpt><trkpt lat="45.5990598" lon="11.5368015"><ele>40.0</ele><time>2026-04-11T16:08:53.625Z</time></trkpt><trkpt lat="45.5991213" lon="11.536771"><ele>40.0</ele><time>2026-04-11T16:08:58.665Z</time></trkpt><trkpt lat="45.5992175" lon="11.5367549"><ele>40.0</ele><time>2026-04-11T16:09:07.627Z</time></trkpt><trkpt lat="45.5992996" lon="11.536728"><ele>40.0</ele><time>2026-04-11T16:09:12.626Z</time></trkpt><trkpt lat="45.5993779" lon="11.5367006"><ele>40.0</ele><time>2026-04-11T16:09:16.624Z</time></trkpt><trkpt lat="45.5994409" lon="11.5366919"><ele>40.0</ele><time>2026-04-11T16:09:19.623Z</time></trkpt><trkpt lat="45.5995107" lon="11.5366898"><ele>40.0</ele><time>2026-04-11T16:09:23.624Z</time></trkpt><trkpt lat="45.5995768" lon="11.5366867"><ele>40.0</ele><time>2026-04-11T16:09:26.624Z</time></trkpt><trkpt lat="45.5996526" lon="11.5366896"><ele>40.0</ele><time>2026-04-11T16:09:30.624Z</time></trkpt><trkpt lat="45.5997296" lon="11.5366963"><ele>40.0</ele><time>2026-04-11T16:09:34.627Z</time></trkpt><trkpt lat="45.5998006" lon="11.5367268"><ele>40.0</ele><time>2026-04-11T16:09:38.626Z</time></trkpt><trkpt lat="45.5998708" lon="11.5367421"><ele>40.0</ele><time>2026-04-11T16:09:41.623Z</time></trkpt><trkpt lat="45.5999354" lon="11.5367591"><ele>40.0</ele><time>2026-04-11T16:09:45.623Z</time></trkpt><trkpt lat="45.6000143" lon="11.5367737"><ele>40.0</ele><time>2026-04-11T16:09:49.623Z</time></trkpt><trkpt lat="45.600081" lon="11.5367804"><ele>40.0</ele><time>2026-04-11T16:09:52.622Z</time></trkpt><trkpt lat="45.6001578" lon="11.5368007"><ele>40.0</ele><time>2026-04-11T16:09:56.623Z</time></trkpt><trkpt lat="45.6002152" lon="11.5368379"><ele>40.0</ele><time>2026-04-11T16:10:01.624Z</time></trkpt><trkpt lat="45.6002902" lon="11.5368385"><ele>40.0</ele><time>2026-04-11T16:11:06.627Z</time></trkpt><trkpt lat="45.6003488" lon="11.5368725"><ele>40.0</ele><time>2026-04-11T16:11:10.627Z</time></trkpt><trkpt lat="45.60042" lon="11.5368965"><ele>39.833333333333336</ele><time>2026-04-11T16:11:13.625Z</time></trkpt><trkpt lat="45.600503" lon="11.5369037"><ele>39.66666666666667</ele><time>2026-04-11T16:11:16.623Z</time></trkpt><trkpt lat="45.6005779" lon="11.5369394"><ele>39.5</ele><time>2026-04-11T16:11:19.624Z</time></trkpt><trkpt lat="45.6006393" lon="11.5369843"><ele>39.333333333333336</ele><time>2026-04-11T16:11:23.622Z</time></trkpt><trkpt lat="45.6006927" lon="11.53708"><ele>39.166666666666664</ele><time>2026-04-11T16:11:27.622Z</time></trkpt><trkpt lat="45.6007325" lon="11.5371903"><ele>39.0</ele><time>2026-04-11T16:11:30.624Z</time></trkpt><trkpt lat="45.6007441" lon="11.5372858"><ele>39.285714285714285</ele><time>2026-04-11T16:11:33.629Z</time></trkpt><trkpt lat="45.6007586" lon="11.5373841"><ele>39.57142857142857</ele><time>2026-04-11T16:11:36.628Z</time></trkpt><trkpt lat="45.6007837" lon="11.5374945"><ele>39.857142857142854</ele><time>2026-04-11T16:11:39.628Z</time></trkpt><trkpt lat="45.6007968" lon="11.5375932"><ele>40.14285714285714</ele><time>2026-04-11T16:11:42.618Z</time></trkpt><trkpt lat="45.6008047" lon="11.5377071"><ele>40.42857142857143</ele><time>2026-04-11T16:11:46.625Z</time></trkpt><trkpt lat="45.6008154" lon="11.5378066"><ele>40.71428571428571</ele><time>2026-04-11T16:11:49.624Z</time></trkpt><trkpt lat="45.6008452" lon="11.5378998"><ele>41.0</ele><time>2026-04-11T16:11:52.627Z</time></trkpt><trkpt lat="45.6008709" lon="11.5380042"><ele>40.99999999999999</ele><time>2026-04-11T16:11:56.626Z</time></trkpt><trkpt lat="45.6008858" lon="11.5381011"><ele>41.0</ele><time>2026-04-11T16:11:59.624Z</time></trkpt><trkpt lat="45.600916" lon="11.5382028"><ele>41.0</ele><time>2026-04-11T16:12:02.625Z</time></trkpt><trkpt lat="45.600939" lon="11.5383034"><ele>41.0</ele><time>2026-04-11T16:12:05.626Z</time></trkpt><trkpt lat="45.6009583" lon="11.5384034"><ele>41.0</ele><time>2026-04-11T16:12:08.625Z</time></trkpt><trkpt lat="45.6009723" lon="11.5385024"><ele>40.99999999999999</ele><time>2026-04-11T16:12:11.623Z</time></trkpt><trkpt lat="45.6010036" lon="11.5386018"><ele>41.0</ele><time>2026-04-11T16:12:14.623Z</time></trkpt><trkpt lat="45.601035" lon="11.5386929"><ele>41.0</ele><time>2026-04-11T16:12:17.622Z</time></trkpt><trkpt lat="45.6010496" lon="11.5387948"><ele>41.0</ele><time>2026-04-11T16:12:20.623Z</time></trkpt><trkpt lat="45.6010717" lon="11.538905"><ele>41.0</ele><time>2026-04-11T16:12:23.622Z</time></trkpt><trkpt lat="45.6011116" lon="11.5390077"><ele>41.0</ele><time>2026-04-11T16:12:26.624Z</time></trkpt><trkpt lat="45.6011476" lon="11.5390948"><ele>41.0</ele><time>2026-04-11T16:12:29.622Z</time></trkpt><trkpt lat="45.6011841" lon="11.5391966"><ele>41.0</ele><time>2026-04-11T16:12:32.624Z</time></trkpt><trkpt lat="45.601225" lon="11.5392842"><ele>40.99999999999999</ele><time>2026-04-11T16:12:35.625Z</time></trkpt><trkpt lat="45.6012684" lon="11.5393587"><ele>41.0</ele><time>2026-04-11T16:12:38.624Z</time></trkpt><trkpt lat="45.6013127" lon="11.5394234"><ele>41.0</ele><time>2026-04-11T16:12:41.621Z</time></trkpt><trkpt lat="45.6013781" lon="11.5395024"><ele>41.0</ele><time>2026-04-11T16:12:45.622Z</time></trkpt><trkpt lat="45.6014318" lon="11.5395687"><ele>41.0</ele><time>2026-04-11T16:12:48.623Z</time></trkpt><trkpt lat="45.6014895" lon="11.5396322"><ele>40.99999999999999</ele><time>2026-04-11T16:12:51.623Z</time></trkpt><trkpt lat="45.601561" lon="11.5396939"><ele>41.0</ele><time>2026-04-11T16:12:55.623Z</time></trkpt><trkpt lat="45.6016415" lon="11.539721"><ele>40.99999999999999</ele><time>2026-04-11T16:12:59.624Z</time></trkpt><trkpt lat="45.6017088" lon="11.5397324"><ele>41.0</ele><time>2026-04-11T16:13:03.625Z</time></trkpt><trkpt lat="45.6017868" lon="11.5397208"><ele>41.0</ele><time>2026-04-11T16:13:09.624Z</time></trkpt><trkpt lat="45.6018511" lon="11.5396896"><ele>41.0</ele><time>2026-04-11T16:13:14.623Z</time></trkpt><trkpt lat="45.6019254" lon="11.5397184"><ele>41.0</ele><time>2026-04-11T16:13:21.624Z</time></trkpt><trkpt lat="45.6020038" lon="11.5396938"><ele>40.99999999999999</ele><time>2026-04-11T16:13:24.623Z</time></trkpt><trkpt lat="45.6020773" lon="11.5396795"><ele>41.0</ele><time>2026-04-11T16:13:26.623Z</time></trkpt><trkpt lat="45.6021495" lon="11.5396762"><ele>40.99999999999999</ele><time>2026-04-11T16:13:28.621Z</time></trkpt><trkpt lat="45.6022318" lon="11.5396709"><ele>41.0</ele><time>2026-04-11T16:13:31.624Z</time></trkpt><trkpt lat="45.602298" lon="11.5396696"><ele>41.0</ele><time>2026-04-11T16:13:34.625Z</time></trkpt><trkpt lat="45.6023592" lon="11.5397106"><ele>41.0</ele><time>2026-04-11T16:13:37.625Z</time></trkpt><trkpt lat="45.6024311" lon="11.5397117"><ele>41.0</ele><time>2026-04-11T16:13:42.621Z</time></trkpt><trkpt lat="45.6024961" lon="11.5397109"><ele>40.99999999999999</ele><time>2026-04-11T16:13:45.623Z</time></trkpt><trkpt lat="45.6025678" lon="11.5396989"><ele>41.0</ele><time>2026-04-11T16:13:49.624Z</time></trkpt><trkpt lat="45.6026456" lon="11.5396936"><ele>41.0</ele><time>2026-04-11T16:13:54.616Z</time></trkpt><trkpt lat="45.6027275" lon="11.5396715"><ele>41.0</ele><time>2026-04-11T16:13:58.623Z</time></trkpt><trkpt lat="45.6028014" lon="11.5396749"><ele>41.0</ele><time>2026-04-11T16:14:02.624Z</time></trkpt><trkpt lat="45.6028694" lon="11.5396307"><ele>41.0</ele><time>2026-04-11T16:14:08.624Z</time></trkpt><trkpt lat="45.6029447" lon="11.5396125"><ele>41.0</ele><time>2026-04-11T16:14:14.622Z</time></trkpt><trkpt lat="45.6030194" lon="11.5396101"><ele>41.0</ele><time>2026-04-11T16:14:19.622Z</time></trkpt><trkpt lat="45.6030925" lon="11.5396025"><ele>40.857142857142854</ele><time>2026-04-11T16:14:24.622Z</time></trkpt><trkpt lat="45.6031533" lon="11.539635"><ele>40.714285714285715</ele><time>2026-04-11T16:15:39.627Z</time></trkpt><trkpt lat="45.6032346" lon="11.5396332"><ele>40.57142857142857</ele><time>2026-04-11T16:15:43.626Z</time></trkpt><trkpt lat="45.6033033" lon="11.539611"><ele>40.42857142857143</ele><time>2026-04-11T16:15:46.624Z</time></trkpt><trkpt lat="45.6033782" lon="11.5396139"><ele>40.285714285714285</ele><time>2026-04-11T16:15:50.624Z</time></trkpt><trkpt lat="45.6034477" lon="11.5396283"><ele>40.14285714285714</ele><time>2026-04-11T16:15:53.624Z</time></trkpt><trkpt lat="45.6035218" lon="11.5396626"><ele>40.0</ele><time>2026-04-11T16:15:56.626Z</time></trkpt><trkpt lat="45.6036015" lon="11.5397006"><ele>39.833333333333336</ele><time>2026-04-11T16:15:59.623Z</time></trkpt><trkpt lat="45.6036902" lon="11.5397555"><ele>39.66666666666667</ele><time>2026-04-11T16:16:02.623Z</time></trkpt><trkpt lat="45.603765" lon="11.5398007"><ele>39.5</ele><time>2026-04-11T16:16:05.622Z</time></trkpt><trkpt lat="45.6038502" lon="11.5398704"><ele>39.333333333333336</ele><time>2026-04-11T16:16:08.625Z</time></trkpt><trkpt lat="45.6039216" lon="11.5399169"><ele>39.166666666666664</ele><time>2026-04-11T16:16:11.623Z</time></trkpt><trkpt lat="45.6039915" lon="11.5399589"><ele>39.0</ele><time>2026-04-11T16:16:14.624Z</time></trkpt><trkpt lat="45.6040719" lon="11.5399983"><ele>39.0</ele><time>2026-04-11T16:16:17.623Z</time></trkpt><trkpt lat="45.6041549" lon="11.5400434"><ele>39.0</ele><time>2026-04-11T16:16:20.622Z</time></trkpt><trkpt lat="45.604219" lon="11.5400856"><ele>39.0</ele><time>2026-04-11T16:16:23.622Z</time></trkpt><trkpt lat="45.6042824" lon="11.5401414"><ele>39.0</ele><time>2026-04-11T16:16:26.622Z</time></trkpt><trkpt lat="45.6043528" lon="11.5402117"><ele>39.0</ele><time>2026-04-11T16:16:29.622Z</time></trkpt><trkpt lat="45.604426" lon="11.5402735"><ele>39.0</ele><time>2026-04-11T16:16:32.619Z</time></trkpt><trkpt lat="45.604482" lon="11.5403162"><ele>39.166666666666664</ele><time>2026-04-11T16:16:34.625Z</time></trkpt><trkpt lat="45.604566" lon="11.5403611"><ele>39.333333333333336</ele><time>2026-04-11T16:16:37.626Z</time></trkpt><trkpt lat="45.6046463" lon="11.5404146"><ele>39.5</ele><time>2026-04-11T16:16:40.625Z</time></trkpt><trkpt lat="45.6047181" lon="11.5404742"><ele>39.66666666666667</ele><time>2026-04-11T16:16:43.624Z</time></trkpt><trkpt lat="45.6048045" lon="11.5405314"><ele>39.833333333333336</ele><time>2026-04-11T16:16:46.623Z</time></trkpt><trkpt lat="45.6048637" lon="11.5405884"><ele>40.0</ele><time>2026-04-11T16:16:48.622Z</time></trkpt><trkpt lat="45.604949" lon="11.5406412"><ele>40.0</ele><time>2026-04-11T16:16:51.623Z</time></trkpt><trkpt lat="45.6050132" lon="11.5406799"><ele>40.0</ele><time>2026-04-11T16:16:53.622Z</time></trkpt><trkpt lat="45.6050811" lon="11.5407174"><ele>40.0</ele><time>2026-04-11T16:16:55.624Z</time></trkpt><trkpt lat="45.6051455" lon="11.5407562"><ele>40.0</ele><time>2026-04-11T16:16:57.624Z</time></trkpt><trkpt lat="45.6052047" lon="11.5407903"><ele>40.0</ele><time>2026-04-11T16:16:59.624Z</time></trkpt><trkpt lat="45.6052897" lon="11.5408409"><ele>40.0</ele><time>2026-04-11T16:17:02.626Z</time></trkpt><trkpt lat="45.6053555" lon="11.5408772"><ele>40.0</ele><time>2026-04-11T16:17:04.62Z</time></trkpt><trkpt lat="45.6054221" lon="11.5409127"><ele>40.333333333333336</ele><time>2026-04-11T16:17:06.626Z</time></trkpt><trkpt lat="45.6054864" lon="11.5409563"><ele>40.66666666666667</ele><time>2026-04-11T16:17:08.626Z</time></trkpt><trkpt lat="45.6055489" lon="11.5409911"><ele>41.0</ele><time>2026-04-11T16:17:10.624Z</time></trkpt><trkpt lat="45.605634" lon="11.5410337"><ele>41.333333333333336</ele><time>2026-04-11T16:17:13.623Z</time></trkpt><trkpt lat="45.605691" lon="11.5410739"><ele>41.666666666666664</ele><time>2026-04-11T16:17:15.625Z</time></trkpt><trkpt lat="45.6057765" lon="11.5411169"><ele>42.0</ele><time>2026-04-11T16:17:18.626Z</time></trkpt><trkpt lat="45.6058551" lon="11.5411614"><ele>41.833333333333336</ele><time>2026-04-11T16:17:21.624Z</time></trkpt><trkpt lat="45.6059082" lon="11.5412219"><ele>41.666666666666664</ele><time>2026-04-11T16:17:24.624Z</time></trkpt><trkpt lat="45.6059699" lon="11.5412776"><ele>41.5</ele><time>2026-04-11T16:17:27.617Z</time></trkpt><trkpt lat="45.6060527" lon="11.5413314"><ele>41.33333333333333</ele><time>2026-04-11T16:17:30.623Z</time></trkpt><trkpt lat="45.606113" lon="11.5413634"><ele>41.166666666666664</ele><time>2026-04-11T16:17:32.623Z</time></trkpt><trkpt lat="45.6061701" lon="11.5414027"><ele>41.0</ele><time>2026-04-11T16:17:34.624Z</time></trkpt><trkpt lat="45.6062582" lon="11.5414455"><ele>40.99999999999999</ele><time>2026-04-11T16:17:37.622Z</time></trkpt><trkpt lat="45.6063226" lon="11.5414643"><ele>41.0</ele><time>2026-04-11T16:17:39.621Z</time></trkpt><trkpt lat="45.606392" lon="11.5414947"><ele>41.0</ele><time>2026-04-11T16:17:41.616Z</time></trkpt><trkpt lat="45.6064538" lon="11.5415279"><ele>41.0</ele><time>2026-04-11T16:17:43.624Z</time></trkpt><trkpt lat="45.6065132" lon="11.541564"><ele>41.0</ele><time>2026-04-11T16:17:45.624Z</time></trkpt><trkpt lat="45.6065755" lon="11.5416003"><ele>40.99999999999999</ele><time>2026-04-11T16:17:47.624Z</time></trkpt><trkpt lat="45.60664" lon="11.5416356"><ele>41.0</ele><time>2026-04-11T16:17:49.618Z</time></trkpt><trkpt lat="45.6067034" lon="11.5416685"><ele>41.0</ele><time>2026-04-11T16:17:51.622Z</time></trkpt><trkpt lat="45.6067677" lon="11.5417036"><ele>41.0</ele><time>2026-04-11T16:17:53.625Z</time></trkpt><trkpt lat="45.6068271" lon="11.5417601"><ele>41.0</ele><time>2026-04-11T16:17:55.623Z</time></trkpt><trkpt lat="45.6069078" lon="11.541818"><ele>41.0</ele><time>2026-04-11T16:17:58.623Z</time></trkpt><trkpt lat="45.6069944" lon="11.5418582"><ele>41.0</ele><time>2026-04-11T16:18:01.623Z</time></trkpt><trkpt lat="45.6070641" lon="11.541888"><ele>41.0</ele><time>2026-04-11T16:18:03.621Z</time></trkpt><trkpt lat="45.6071308" lon="11.5419403"><ele>40.71428571428571</ele><time>2026-04-11T16:18:05.621Z</time></trkpt><trkpt lat="45.6071839" lon="11.5420001"><ele>40.42857142857143</ele><time>2026-04-11T16:18:07.621Z</time></trkpt><trkpt lat="45.6072454" lon="11.542045"><ele>40.14285714285714</ele><time>2026-04-11T16:18:10.622Z</time></trkpt><trkpt lat="45.6073134" lon="11.5420767"><ele>39.857142857142854</ele><time>2026-04-11T16:19:38.624Z</time></trkpt><trkpt lat="45.6073723" lon="11.5421108"><ele>39.57142857142857</ele><time>2026-04-11T16:19:41.624Z</time></trkpt><trkpt lat="45.6074404" lon="11.5421594"><ele>39.285714285714285</ele><time>2026-04-11T16:19:45.625Z</time></trkpt><trkpt lat="45.6075142" lon="11.5422013"><ele>39.0</ele><time>2026-04-11T16:19:48.625Z</time></trkpt><trkpt lat="45.6076064" lon="11.542243"><ele>39.0</ele><time>2026-04-11T16:19:51.623Z</time></trkpt><trkpt lat="45.607667" lon="11.5422722"><ele>39.0</ele><time>2026-04-11T16:19:53.625Z</time></trkpt><trkpt lat="45.6077323" lon="11.5422993"><ele>39.0</ele><time>2026-04-11T16:19:55.624Z</time></trkpt><trkpt lat="45.6078182" lon="11.5423416"><ele>39.0</ele><time>2026-04-11T16:19:58.623Z</time></trkpt><trkpt lat="45.6079052" lon="11.5423845"><ele>39.0</ele><time>2026-04-11T16:20:01.625Z</time></trkpt><trkpt lat="45.6079678" lon="11.5424204"><ele>39.0</ele><time>2026-04-11T16:20:03.624Z</time></trkpt><trkpt lat="45.6080346" lon="11.5424676"><ele>39.285714285714285</ele><time>2026-04-11T16:20:06.623Z</time></trkpt><trkpt lat="45.6081109" lon="11.5425161"><ele>39.57142857142857</ele><time>2026-04-11T16:20:09.623Z</time></trkpt><trkpt lat="45.6081682" lon="11.5425543"><ele>39.857142857142854</ele><time>2026-04-11T16:20:11.623Z</time></trkpt><trkpt lat="45.6082361" lon="11.5425891"><ele>40.14285714285714</ele><time>2026-04-11T16:20:13.623Z</time></trkpt><trkpt lat="45.6083001" lon="11.5426276"><ele>40.42857142857143</ele><time>2026-04-11T16:20:15.624Z</time></trkpt><trkpt lat="45.6083753" lon="11.5426805"><ele>40.71428571428571</ele><time>2026-04-11T16:20:17.625Z</time></trkpt><trkpt lat="45.6084382" lon="11.5427251"><ele>41.0</ele><time>2026-04-11T16:20:19.622Z</time></trkpt><trkpt lat="45.6085101" lon="11.5427733"><ele>40.99999999999999</ele><time>2026-04-11T16:20:21.623Z</time></trkpt><trkpt lat="45.6085781" lon="11.5428338"><ele>41.0</ele><time>2026-04-11T16:20:23.624Z</time></trkpt><trkpt lat="45.6086457" lon="11.5428777"><ele>41.0</ele><time>2026-04-11T16:20:25.623Z</time></trkpt><trkpt lat="45.6087153" lon="11.5429162"><ele>41.0</ele><time>2026-04-11T16:20:27.623Z</time></trkpt><trkpt lat="45.6087915" lon="11.5429446"><ele>41.0</ele><time>2026-04-11T16:20:29.622Z</time></trkpt><trkpt lat="45.6088593" lon="11.5429776"><ele>40.99999999999999</ele><time>2026-04-11T16:20:31.623Z</time></trkpt><trkpt lat="45.6089234" lon="11.5430158"><ele>41.0</ele><time>2026-04-11T16:20:33.623Z</time></trkpt><trkpt lat="45.6089886" lon="11.543059"><ele>41.166666666666664</ele><time>2026-04-11T16:20:35.623Z</time></trkpt><trkpt lat="45.6090547" lon="11.5431053"><ele>41.33333333333333</ele><time>2026-04-11T16:20:37.621Z</time></trkpt><trkpt lat="45.6091222" lon="11.5431431"><ele>41.5</ele><time>2026-04-11T16:20:39.623Z</time></trkpt><trkpt lat="45.6091889" lon="11.5431855"><ele>41.666666666666664</ele><time>2026-04-11T16:20:41.621Z</time></trkpt><trkpt lat="45.6092585" lon="11.5432256"><ele>41.833333333333336</ele><time>2026-04-11T16:20:43.622Z</time></trkpt><trkpt lat="45.6093309" lon="11.5432754"><ele>42.0</ele><time>2026-04-11T16:20:45.622Z</time></trkpt><trkpt lat="45.6094058" lon="11.5433214"><ele>42.0</ele><time>2026-04-11T16:20:47.622Z</time></trkpt><trkpt lat="45.6094813" lon="11.5433594"><ele>42.0</ele><time>2026-04-11T16:20:49.624Z</time></trkpt><trkpt lat="45.609555" lon="11.5434003"><ele>42.0</ele><time>2026-04-11T16:20:51.621Z</time></trkpt><trkpt lat="45.6096269" lon="11.5434452"><ele>42.0</ele><time>2026-04-11T16:20:53.625Z</time></trkpt><trkpt lat="45.6097029" lon="11.5434878"><ele>42.0</ele><time>2026-04-11T16:20:55.623Z</time></trkpt><trkpt lat="45.6097775" lon="11.5435334"><ele>42.0</ele><time>2026-04-11T16:20:57.616Z</time></trkpt><trkpt lat="45.6098423" lon="11.5435884"><ele>42.0</ele><time>2026-04-11T16:20:59.622Z</time></trkpt><trkpt lat="45.6099029" lon="11.5436249"><ele>42.0</ele><time>2026-04-11T16:21:01.623Z</time></trkpt><trkpt lat="45.609976" lon="11.5436868"><ele>42.0</ele><time>2026-04-11T16:21:04.623Z</time></trkpt><trkpt lat="45.6100229" lon="11.5437505"><ele>42.0</ele><time>2026-04-11T16:22:12.625Z</time></trkpt><trkpt lat="45.61003" lon="11.5438595"><ele>42.0</ele><time>2026-04-11T16:22:17.626Z</time></trkpt><trkpt lat="45.6100285" lon="11.5439735"><ele>42.0</ele><time>2026-04-11T16:22:20.628Z</time></trkpt><trkpt lat="45.6100224" lon="11.5440637"><ele>42.0</ele><time>2026-04-11T16:22:22.627Z</time></trkpt><trkpt lat="45.6100102" lon="11.5441588"><ele>42.0</ele><time>2026-04-11T16:22:24.628Z</time></trkpt><trkpt lat="45.6100015" lon="11.5442666"><ele>42.0</ele><time>2026-04-11T16:22:26.625Z</time></trkpt><trkpt lat="45.6099934" lon="11.5443822"><ele>42.0</ele><time>2026-04-11T16:22:28.626Z</time></trkpt><trkpt lat="45.6099826" lon="11.5444898"><ele>42.0</ele><time>2026-04-11T16:22:30.626Z</time></trkpt><trkpt lat="45.6099652" lon="11.5445857"><ele>42.0</ele><time>2026-04-11T16:22:33.624Z</time></trkpt><trkpt lat="45.6100126" lon="11.5446658"><ele>42.0</ele><time>2026-04-11T16:22:45.625Z</time></trkpt><trkpt lat="45.6100723" lon="11.5447367"><ele>42.166666666666664</ele><time>2026-04-11T16:22:49.624Z</time></trkpt><trkpt lat="45.6101487" lon="11.5448026"><ele>42.333333333333336</ele><time>2026-04-11T16:22:52.623Z</time></trkpt><trkpt lat="45.6102349" lon="11.5448034"><ele>42.5</ele><time>2026-04-11T16:22:54.621Z</time></trkpt><trkpt lat="45.6103183" lon="11.5448122"><ele>42.66666666666667</ele><time>2026-04-11T16:22:56.526Z</time></trkpt><trkpt lat="45.6103832" lon="11.5447959"><ele>42.833333333333336</ele><time>2026-04-11T16:22:58.624Z</time></trkpt><trkpt lat="45.6104555" lon="11.5447909"><ele>43.0</ele><time>2026-04-11T16:23:00.624Z</time></trkpt><trkpt lat="45.6105254" lon="11.544806"><ele>43.00000000000001</ele><time>2026-04-11T16:23:02.644Z</time></trkpt><trkpt lat="45.6105769" lon="11.5448707"><ele>43.0</ele><time>2026-04-11T16:23:04.625Z</time></trkpt><trkpt lat="45.610572" lon="11.5449709"><ele>43.0</ele><time>2026-04-11T16:23:06.625Z</time></trkpt><trkpt lat="45.6105431" lon="11.5450699"><ele>43.0</ele><time>2026-04-11T16:23:09.625Z</time></trkpt><trkpt lat="45.6105347" lon="11.5451618"><ele>43.0</ele><time>2026-04-11T16:23:13.625Z</time></trkpt><trkpt lat="45.6105317" lon="11.5452743"><ele>43.00000000000001</ele><time>2026-04-11T16:23:17.623Z</time></trkpt><trkpt lat="45.6105183" lon="11.5453952"><ele>43.0</ele><time>2026-04-11T16:23:21.626Z</time></trkpt><trkpt lat="45.6105126" lon="11.5455077"><ele>42.85714285714286</ele><time>2026-04-11T16:23:24.625Z</time></trkpt><trkpt lat="45.6104992" lon="11.5456144"><ele>42.714285714285715</ele><time>2026-04-11T16:23:27.623Z</time></trkpt><trkpt lat="45.6105026" lon="11.5457052"><ele>42.57142857142857</ele><time>2026-04-11T16:23:29.626Z</time></trkpt><trkpt lat="45.6104937" lon="11.5458347"><ele>42.42857142857143</ele><time>2026-04-11T16:23:32.625Z</time></trkpt><trkpt lat="45.6104834" lon="11.5459552"><ele>42.285714285714285</ele><time>2026-04-11T16:23:35.625Z</time></trkpt><trkpt lat="45.6104828" lon="11.5460548"><ele>42.142857142857146</ele><time>2026-04-11T16:23:37.625Z</time></trkpt><trkpt lat="45.6104763" lon="11.5461452"><ele>42.0</ele><time>2026-04-11T16:23:39.628Z</time></trkpt><trkpt lat="45.6104657" lon="11.5462668"><ele>41.857142857142854</ele><time>2026-04-11T16:23:42.625Z</time></trkpt><trkpt lat="45.6104543" lon="11.5463636"><ele>41.714285714285715</ele><time>2026-04-11T16:23:45.626Z</time></trkpt><trkpt lat="45.61045" lon="11.5464604"><ele>41.57142857142857</ele><time>2026-04-11T16:23:48.626Z</time></trkpt><trkpt lat="45.6104392" lon="11.5465555"><ele>41.42857142857143</ele><time>2026-04-11T16:23:52.626Z</time></trkpt><trkpt lat="45.6104355" lon="11.5466525"><ele>41.285714285714285</ele><time>2026-04-11T16:24:23.627Z</time></trkpt><trkpt lat="45.6105027" lon="11.5467002"><ele>41.14285714285714</ele><time>2026-04-11T16:24:27.625Z</time></trkpt><trkpt lat="45.6105797" lon="11.5466664"><ele>41.0</ele><time>2026-04-11T16:24:30.623Z</time></trkpt><trkpt lat="45.6106429" lon="11.5466667"><ele>40.99999999999999</ele><time>2026-04-11T16:24:33.625Z</time></trkpt><trkpt lat="45.6107082" lon="11.5466852"><ele>41.0</ele><time>2026-04-11T16:24:37.624Z</time></trkpt><trkpt lat="45.6107699" lon="11.5466381"><ele>41.0</ele><time>2026-04-11T16:24:40.623Z</time></trkpt><trkpt lat="45.6108465" lon="11.546591"><ele>41.0</ele><time>2026-04-11T16:24:44.624Z</time></trkpt><trkpt lat="45.6109177" lon="11.5465759"><ele>41.0</ele><time>2026-04-11T16:24:47.625Z</time></trkpt><trkpt lat="45.6109884" lon="11.5465467"><ele>40.99999999999999</ele><time>2026-04-11T16:24:50.624Z</time></trkpt><trkpt lat="45.611068" lon="11.5465213"><ele>41.0</ele><time>2026-04-11T16:24:53.627Z</time></trkpt><trkpt lat="45.6111421" lon="11.54648"><ele>41.0</ele><time>2026-04-11T16:24:56.623Z</time></trkpt><trkpt lat="45.6112218" lon="11.5464418"><ele>41.0</ele><time>2026-04-11T16:24:59.617Z</time></trkpt><trkpt lat="45.611311" lon="11.5464185"><ele>41.0</ele><time>2026-04-11T16:25:02.624Z</time></trkpt><trkpt lat="45.6113968" lon="11.5463772"><ele>41.0</ele><time>2026-04-11T16:25:05.625Z</time></trkpt><trkpt lat="45.6114799" lon="11.5463331"><ele>41.0</ele><time>2026-04-11T16:25:08.623Z</time></trkpt><trkpt lat="45.6115374" lon="11.5462928"><ele>41.0</ele><time>2026-04-11T16:25:10.623Z</time></trkpt><trkpt lat="45.6116003" lon="11.5462687"><ele>41.0</ele><time>2026-04-11T16:25:12.622Z</time></trkpt><trkpt lat="45.6116828" lon="11.5462273"><ele>41.0</ele><time>2026-04-11T16:25:15.624Z</time></trkpt><trkpt lat="45.6117443" lon="11.5461962"><ele>41.0</ele><time>2026-04-11T16:25:17.624Z</time></trkpt><trkpt lat="45.6118069" lon="11.5461562"><ele>41.0</ele><time>2026-04-11T16:25:19.623Z</time></trkpt><trkpt lat="45.6118834" lon="11.5460844"><ele>41.0</ele><time>2026-04-11T16:25:22.622Z</time></trkpt><trkpt lat="45.6119597" lon="11.5460404"><ele>41.0</ele><time>2026-04-11T16:25:25.625Z</time></trkpt><trkpt lat="45.6120297" lon="11.5459999"><ele>41.0</ele><time>2026-04-11T16:25:28.623Z</time></trkpt><trkpt lat="45.6120894" lon="11.545949"><ele>41.0</ele><time>2026-04-11T16:25:31.625Z</time></trkpt><trkpt lat="45.6121054" lon="11.545812"><ele>41.0</ele><time>2026-04-11T16:25:34.624Z</time></trkpt><trkpt lat="45.6121706" lon="11.5457599"><ele>41.0</ele><time>2026-04-11T16:25:37.626Z</time></trkpt><trkpt lat="45.6122343" lon="11.5457282"><ele>41.0</ele><time>2026-04-11T16:25:40.625Z</time></trkpt><trkpt lat="45.6123011" lon="11.5456924"><ele>41.0</ele><time>2026-04-11T16:25:43.625Z</time></trkpt><trkpt lat="45.6123693" lon="11.545652"><ele>41.0</ele><time>2026-04-11T16:25:46.623Z</time></trkpt><trkpt lat="45.612455" lon="11.5455978"><ele>41.0</ele><time>2026-04-11T16:25:49.624Z</time></trkpt><trkpt lat="45.6125364" lon="11.5455654"><ele>41.0</ele><time>2026-04-11T16:25:51.617Z</time></trkpt><trkpt lat="45.6126049" lon="11.5455405"><ele>41.0</ele><time>2026-04-11T16:25:53.626Z</time></trkpt><trkpt lat="45.6126663" lon="11.5455006"><ele>41.0</ele><time>2026-04-11T16:25:55.624Z</time></trkpt><trkpt lat="45.6127302" lon="11.5454688"><ele>41.0</ele><time>2026-04-11T16:25:57.622Z</time></trkpt><trkpt lat="45.6127992" lon="11.5454535"><ele>41.0</ele><time>2026-04-11T16:25:59.625Z</time></trkpt><trkpt lat="45.6128731" lon="11.545399"><ele>41.0</ele><time>2026-04-11T16:26:02.621Z</time></trkpt><trkpt lat="45.612955" lon="11.5453625"><ele>41.0</ele><time>2026-04-11T16:26:05.622Z</time></trkpt><trkpt lat="45.6130242" lon="11.5453244"><ele>41.0</ele><time>2026-04-11T16:26:08.624Z</time></trkpt><trkpt lat="45.6131028" lon="11.5452856"><ele>41.0</ele><time>2026-04-11T16:26:11.622Z</time></trkpt><trkpt lat="45.6131885" lon="11.545248"><ele>41.0</ele><time>2026-04-11T16:26:14.624Z</time></trkpt><trkpt lat="45.6132479" lon="11.5452076"><ele>40.99999999999999</ele><time>2026-04-11T16:26:16.622Z</time></trkpt><trkpt lat="45.6133102" lon="11.5451864"><ele>41.0</ele><time>2026-04-11T16:26:18.623Z</time></trkpt><trkpt lat="45.6133786" lon="11.5451674"><ele>41.0</ele><time>2026-04-11T16:26:20.623Z</time></trkpt><trkpt lat="45.6134403" lon="11.545119"><ele>41.0</ele><time>2026-04-11T16:26:22.624Z</time></trkpt><trkpt lat="45.6135052" lon="11.5450828"><ele>41.0</ele><time>2026-04-11T16:26:24.622Z</time></trkpt><trkpt lat="45.613571" lon="11.5450729"><ele>40.99999999999999</ele><time>2026-04-11T16:26:26.623Z</time></trkpt><trkpt lat="45.6136524" lon="11.5450284"><ele>41.0</ele><time>2026-04-11T16:26:29.623Z</time></trkpt><trkpt lat="45.6137316" lon="11.5449535"><ele>41.285714285714285</ele><time>2026-04-11T16:26:32.625Z</time></trkpt><trkpt lat="45.6137869" lon="11.5449099"><ele>41.57142857142857</ele><time>2026-04-11T16:26:34.624Z</time></trkpt><trkpt lat="45.613852" lon="11.5448848"><ele>41.85714285714286</ele><time>2026-04-11T16:26:36.624Z</time></trkpt><trkpt lat="45.6139148" lon="11.5448611"><ele>42.14285714285714</ele><time>2026-04-11T16:26:38.626Z</time></trkpt><trkpt lat="45.6139998" lon="11.544809"><ele>42.42857142857143</ele><time>2026-04-11T16:26:41.622Z</time></trkpt><trkpt lat="45.6140688" lon="11.5447846"><ele>42.714285714285715</ele><time>2026-04-11T16:26:44.623Z</time></trkpt><trkpt lat="45.6141357" lon="11.5447656"><ele>43.0</ele><time>2026-04-11T16:26:48.623Z</time></trkpt><trkpt lat="45.6141899" lon="11.5447172"><ele>43.00000000000001</ele><time>2026-04-11T16:26:52.619Z</time></trkpt><trkpt lat="45.614245" lon="11.5447715"><ele>43.0</ele><time>2026-04-11T16:27:04.624Z</time></trkpt><trkpt lat="45.6143128" lon="11.5447842"><ele>43.0</ele><time>2026-04-11T16:27:07.624Z</time></trkpt><trkpt lat="45.6143721" lon="11.54474"><ele>43.0</ele><time>2026-04-11T16:27:11.622Z</time></trkpt><trkpt lat="45.614454" lon="11.5447756"><ele>43.0</ele><time>2026-04-11T16:27:14.625Z</time></trkpt><trkpt lat="45.6145306" lon="11.5448264"><ele>43.00000000000001</ele><time>2026-04-11T16:27:17.625Z</time></trkpt><trkpt lat="45.614605" lon="11.5448169"><ele>43.0</ele><time>2026-04-11T16:27:19.625Z</time></trkpt><trkpt lat="45.6146791" lon="11.5448459"><ele>42.833333333333336</ele><time>2026-04-11T16:27:21.624Z</time></trkpt><trkpt lat="45.6147635" lon="11.5448143"><ele>42.66666666666667</ele><time>2026-04-11T16:27:24.626Z</time></trkpt><trkpt lat="45.6148558" lon="11.5447974"><ele>42.5</ele><time>2026-04-11T16:27:27.625Z</time></trkpt><trkpt lat="45.6149402" lon="11.5447936"><ele>42.333333333333336</ele><time>2026-04-11T16:27:30.624Z</time></trkpt><trkpt lat="45.6150113" lon="11.5447679"><ele>42.166666666666664</ele><time>2026-04-11T16:27:33.624Z</time></trkpt><trkpt lat="45.6150955" lon="11.5447337"><ele>42.0</ele><time>2026-04-11T16:27:36.623Z</time></trkpt><trkpt lat="45.6151826" lon="11.5447085"><ele>42.0</ele><time>2026-04-11T16:27:39.623Z</time></trkpt><trkpt lat="45.6152593" lon="11.5446666"><ele>42.0</ele><time>2026-04-11T16:27:42.621Z</time></trkpt><trkpt lat="45.615343" lon="11.5446339"><ele>42.0</ele><time>2026-04-11T16:27:45.623Z</time></trkpt><trkpt lat="45.6154326" lon="11.5445916"><ele>42.0</ele><time>2026-04-11T16:27:48.623Z</time></trkpt><trkpt lat="45.6155219" lon="11.5445526"><ele>42.0</ele><time>2026-04-11T16:27:51.622Z</time></trkpt><trkpt lat="45.6156095" lon="11.5445194"><ele>42.0</ele><time>2026-04-11T16:27:54.623Z</time></trkpt><trkpt lat="45.6156715" lon="11.5444981"><ele>41.833333333333336</ele><time>2026-04-11T16:27:56.624Z</time></trkpt><trkpt lat="45.6157422" lon="11.5444722"><ele>41.666666666666664</ele><time>2026-04-11T16:27:58.623Z</time></trkpt><trkpt lat="45.6158134" lon="11.5444471"><ele>41.5</ele><time>2026-04-11T16:28:00.624Z</time></trkpt><trkpt lat="45.6159025" lon="11.5444137"><ele>41.33333333333333</ele><time>2026-04-11T16:28:03.625Z</time></trkpt><trkpt lat="45.6159927" lon="11.5443788"><ele>41.166666666666664</ele><time>2026-04-11T16:28:06.622Z</time></trkpt><trkpt lat="45.616055" lon="11.5443628"><ele>41.0</ele><time>2026-04-11T16:28:08.623Z</time></trkpt><trkpt lat="45.6161159" lon="11.5443366"><ele>41.33333333333333</ele><time>2026-04-11T16:28:10.627Z</time></trkpt><trkpt lat="45.6161842" lon="11.5443111"><ele>41.666666666666664</ele><time>2026-04-11T16:28:12.621Z</time></trkpt><trkpt lat="45.6162546" lon="11.5442854"><ele>42.0</ele><time>2026-04-11T16:28:14.621Z</time></trkpt><trkpt lat="45.6163191" lon="11.5442607"><ele>42.333333333333336</ele><time>2026-04-11T16:28:16.621Z</time></trkpt><trkpt lat="45.6164119" lon="11.5442329"><ele>42.66666666666667</ele><time>2026-04-11T16:28:19.622Z</time></trkpt><trkpt lat="45.616503" lon="11.5442009"><ele>43.0</ele><time>2026-04-11T16:28:22.623Z</time></trkpt><trkpt lat="45.6165682" lon="11.5441663"><ele>43.00000000000001</ele><time>2026-04-11T16:28:24.623Z</time></trkpt><trkpt lat="45.6166302" lon="11.5441316"><ele>43.0</ele><time>2026-04-11T16:28:26.622Z</time></trkpt><trkpt lat="45.6166895" lon="11.5441012"><ele>43.0</ele><time>2026-04-11T16:28:28.621Z</time></trkpt><trkpt lat="45.6167839" lon="11.5440714"><ele>43.0</ele><time>2026-04-11T16:28:31.621Z</time></trkpt><trkpt lat="45.6168553" lon="11.544035"><ele>43.0</ele><time>2026-04-11T16:28:34.621Z</time></trkpt><trkpt lat="45.6169265" lon="11.5440384"><ele>43.00000000000001</ele><time>2026-04-11T16:28:36.621Z</time></trkpt><trkpt lat="45.6169896" lon="11.5440384"><ele>43.0</ele><time>2026-04-11T16:28:38.622Z</time></trkpt><trkpt lat="45.6170789" lon="11.5440646"><ele>43.833333333333336</ele><time>2026-04-11T16:28:41.62Z</time></trkpt><trkpt lat="45.6171563" lon="11.5440996"><ele>44.66666666666667</ele><time>2026-04-11T16:28:44.622Z</time></trkpt><trkpt lat="45.6172233" lon="11.5441532"><ele>45.5</ele><time>2026-04-11T16:28:47.622Z</time></trkpt><trkpt lat="45.61729" lon="11.5442341"><ele>46.333333333333336</ele><time>2026-04-11T16:28:50.623Z</time></trkpt><trkpt lat="45.6173403" lon="11.5443254"><ele>47.166666666666664</ele><time>2026-04-11T16:28:53.623Z</time></trkpt><trkpt lat="45.6173923" lon="11.5444188"><ele>48.0</ele><time>2026-04-11T16:28:56.622Z</time></trkpt><trkpt lat="45.6174193" lon="11.5445194"><ele>47.57142857142857</ele><time>2026-04-11T16:28:59.621Z</time></trkpt><trkpt lat="45.6174425" lon="11.5446308"><ele>47.14285714285714</ele><time>2026-04-11T16:29:02.622Z</time></trkpt><trkpt lat="45.6174562" lon="11.5447375"><ele>46.71428571428571</ele><time>2026-04-11T16:29:05.623Z</time></trkpt><trkpt lat="45.6174709" lon="11.5448324"><ele>46.285714285714285</ele><time>2026-04-11T16:29:08.622Z</time></trkpt><trkpt lat="45.6174964" lon="11.5449227"><ele>45.85714285714286</ele><time>2026-04-11T16:29:11.623Z</time></trkpt><trkpt lat="45.617518" lon="11.5450183"><ele>45.42857142857142</ele><time>2026-04-11T16:29:14.622Z</time></trkpt><trkpt lat="45.6175406" lon="11.5451237"><ele>45.0</ele><time>2026-04-11T16:29:18.624Z</time></trkpt><trkpt lat="45.6176178" lon="11.545187"><ele>45.0</ele><time>2026-04-11T16:29:58.62Z</time></trkpt><trkpt lat="45.6176885" lon="11.5451685"><ele>45.0</ele><time>2026-04-11T16:30:02.626Z</time></trkpt><trkpt lat="45.6177369" lon="11.5452299"><ele>45.0</ele><time>2026-04-11T16:30:05.622Z</time></trkpt><trkpt lat="45.6177444" lon="11.5453369"><ele>45.0</ele><time>2026-04-11T16:30:08.621Z</time></trkpt><trkpt lat="45.617762" lon="11.5454361"><ele>45.0</ele><time>2026-04-11T16:30:11.624Z</time></trkpt><trkpt lat="45.6177817" lon="11.5455386"><ele>45.0</ele><time>2026-04-11T16:30:14.62Z</time></trkpt><trkpt lat="45.6178092" lon="11.5456487"><ele>45.0</ele><time>2026-04-11T16:30:17.626Z</time></trkpt><trkpt lat="45.6178316" lon="11.5457669"><ele>45.0</ele><time>2026-04-11T16:30:20.626Z</time></trkpt><trkpt lat="45.6178579" lon="11.5458837"><ele>45.0</ele><time>2026-04-11T16:30:23.626Z</time></trkpt><trkpt lat="45.6178885" lon="11.5460038"><ele>45.0</ele><time>2026-04-11T16:30:26.626Z</time></trkpt><trkpt lat="45.617921" lon="11.5461313"><ele>45.0</ele><time>2026-04-11T16:30:29.624Z</time></trkpt><trkpt lat="45.6179415" lon="11.5462517"><ele>45.0</ele><time>2026-04-11T16:30:32.622Z</time></trkpt><trkpt lat="45.6179685" lon="11.5463815"><ele>44.857142857142854</ele><time>2026-04-11T16:30:35.615Z</time></trkpt><trkpt lat="45.6179849" lon="11.5464702"><ele>44.714285714285715</ele><time>2026-04-11T16:30:37.622Z</time></trkpt><trkpt lat="45.6180026" lon="11.5465597"><ele>44.57142857142857</ele><time>2026-04-11T16:30:39.62Z</time></trkpt><trkpt lat="45.6180306" lon="11.546643"><ele>44.42857142857143</ele><time>2026-04-11T16:30:41.616Z</time></trkpt><trkpt lat="45.6180664" lon="11.5467653"><ele>44.285714285714285</ele><time>2026-04-11T16:30:44.625Z</time></trkpt><trkpt lat="45.6180842" lon="11.546853"><ele>44.142857142857146</ele><time>2026-04-11T16:30:46.625Z</time></trkpt><trkpt lat="45.6181043" lon="11.5469436"><ele>44.0</ele><time>2026-04-11T16:30:48.625Z</time></trkpt><trkpt lat="45.6181361" lon="11.5470569"><ele>44.0</ele><time>2026-04-11T16:30:51.624Z</time></trkpt><trkpt lat="45.6181789" lon="11.5471752"><ele>44.0</ele><time>2026-04-11T16:30:54.626Z</time></trkpt><trkpt lat="45.6182027" lon="11.5472613"><ele>44.0</ele><time>2026-04-11T16:30:56.624Z</time></trkpt><trkpt lat="45.6182233" lon="11.5473484"><ele>44.0</ele><time>2026-04-11T16:30:58.625Z</time></trkpt><trkpt lat="45.6182526" lon="11.547466"><ele>44.0</ele><time>2026-04-11T16:31:01.621Z</time></trkpt><trkpt lat="45.618284" lon="11.547568"><ele>44.0</ele><time>2026-04-11T16:31:04.62Z</time></trkpt><trkpt lat="45.61831" lon="11.5476636"><ele>44.0</ele><time>2026-04-11T16:31:07.62Z</time></trkpt><trkpt lat="45.6183375" lon="11.5477604"><ele>44.0</ele><time>2026-04-11T16:31:11.622Z</time></trkpt><trkpt lat="45.6183693" lon="11.5478511"><ele>44.0</ele><time>2026-04-11T16:31:17.624Z</time></trkpt><trkpt lat="45.6183989" lon="11.5479448"><ele>44.0</ele><time>2026-04-11T16:33:51.622Z</time></trkpt><trkpt lat="45.6184267" lon="11.5480552"><ele>44.0</ele><time>2026-04-11T16:34:08.62Z</time></trkpt><trkpt lat="45.6184452" lon="11.5481607"><ele>44.0</ele><time>2026-04-11T16:34:12.618Z</time></trkpt><trkpt lat="45.6184552" lon="11.5482713"><ele>44.166666666666664</ele><time>2026-04-11T16:34:16.623Z</time></trkpt><trkpt lat="45.6184694" lon="11.5483719"><ele>44.33333333333333</ele><time>2026-04-11T16:34:19.623Z</time></trkpt><trkpt lat="45.6184955" lon="11.5484905"><ele>44.5</ele><time>2026-04-11T16:34:22.617Z</time></trkpt><trkpt lat="45.6185142" lon="11.5485779"><ele>44.666666666666664</ele><time>2026-04-11T16:34:24.625Z</time></trkpt><trkpt lat="45.6185351" lon="11.5486732"><ele>44.833333333333336</ele><time>2026-04-11T16:34:26.622Z</time></trkpt><trkpt lat="45.6185623" lon="11.5487621"><ele>45.0</ele><time>2026-04-11T16:34:28.623Z</time></trkpt><trkpt lat="45.6185783" lon="11.5488891"><ele>45.0</ele><time>2026-04-11T16:34:31.619Z</time></trkpt><trkpt lat="45.6186002" lon="11.5489864"><ele>45.0</ele><time>2026-04-11T16:34:34.62Z</time></trkpt><trkpt lat="45.6186224" lon="11.5490943"><ele>45.0</ele><time>2026-04-11T16:34:38.623Z</time></trkpt><trkpt lat="45.618654" lon="11.5491867"><ele>45.0</ele><time>2026-04-11T16:34:41.622Z</time></trkpt><trkpt lat="45.6186767" lon="11.5492939"><ele>45.0</ele><time>2026-04-11T16:34:44.625Z</time></trkpt><trkpt lat="45.6187177" lon="11.5494"><ele>45.0</ele><time>2026-04-11T16:34:47.623Z</time></trkpt><trkpt lat="45.6187494" lon="11.5494808"><ele>45.166666666666664</ele><time>2026-04-11T16:34:49.624Z</time></trkpt><trkpt lat="45.6187861" lon="11.5496038"><ele>45.333333333333336</ele><time>2026-04-11T16:34:52.624Z</time></trkpt><trkpt lat="45.6188223" lon="11.5497135"><ele>45.5</ele><time>2026-04-11T16:34:55.623Z</time></trkpt><trkpt lat="45.6188465" lon="11.5498239"><ele>45.66666666666667</ele><time>2026-04-11T16:34:58.623Z</time></trkpt><trkpt lat="45.6188699" lon="11.5499265"><ele>45.833333333333336</ele><time>2026-04-11T16:35:01.622Z</time></trkpt><trkpt lat="45.6188969" lon="11.5500262"><ele>46.0</ele><time>2026-04-11T16:35:04.62Z</time></trkpt><trkpt lat="45.6189168" lon="11.5501398"><ele>46.0</ele><time>2026-04-11T16:35:07.619Z</time></trkpt><trkpt lat="45.6189239" lon="11.5502527"><ele>46.0</ele><time>2026-04-11T16:35:10.618Z</time></trkpt><trkpt lat="45.6189491" lon="11.5503725"><ele>46.0</ele><time>2026-04-11T16:35:13.621Z</time></trkpt><trkpt lat="45.6189811" lon="11.5504719"><ele>46.0</ele><time>2026-04-11T16:35:16.622Z</time></trkpt><trkpt lat="45.6190093" lon="11.5505607"><ele>46.0</ele><time>2026-04-11T16:35:19.621Z</time></trkpt><trkpt lat="45.6190238" lon="11.550674"><ele>46.0</ele><time>2026-04-11T16:35:22.622Z</time></trkpt><trkpt lat="45.6190518" lon="11.5507888"><ele>46.0</ele><time>2026-04-11T16:35:25.62Z</time></trkpt><trkpt lat="45.6190828" lon="11.5508943"><ele>46.0</ele><time>2026-04-11T16:35:28.622Z</time></trkpt><trkpt lat="45.6191127" lon="11.5510058"><ele>46.0</ele><time>2026-04-11T16:35:31.62Z</time></trkpt><trkpt lat="45.6191406" lon="11.5511204"><ele>46.0</ele><time>2026-04-11T16:35:34.621Z</time></trkpt><trkpt lat="45.6191924" lon="11.5512381"><ele>46.0</ele><time>2026-04-11T16:35:37.623Z</time></trkpt><trkpt lat="45.6192254" lon="11.5513542"><ele>46.0</ele><time>2026-04-11T16:35:40.619Z</time></trkpt><trkpt lat="45.6192566" lon="11.5514803"><ele>46.0</ele><time>2026-04-11T16:35:43.639Z</time></trkpt><trkpt lat="45.6192725" lon="11.5516172"><ele>46.0</ele><time>2026-04-11T16:35:47.622Z</time></trkpt><trkpt lat="45.6192876" lon="11.5517181"><ele>46.0</ele><time>2026-04-11T16:35:50.63Z</time></trkpt><trkpt lat="45.6193113" lon="11.5518267"><ele>46.0</ele><time>2026-04-11T16:35:53.622Z</time></trkpt><trkpt lat="45.619345" lon="11.5519197"><ele>46.0</ele><time>2026-04-11T16:35:56.622Z</time></trkpt><trkpt lat="45.6193831" lon="11.5520339"><ele>46.0</ele><time>2026-04-11T16:35:59.617Z</time></trkpt><trkpt lat="45.61941" lon="11.552126"><ele>46.0</ele><time>2026-04-11T16:36:01.621Z</time></trkpt><trkpt lat="45.6194462" lon="11.5522442"><ele>46.0</ele><time>2026-04-11T16:36:04.621Z</time></trkpt><trkpt lat="45.6194626" lon="11.5523373"><ele>46.0</ele><time>2026-04-11T16:36:06.621Z</time></trkpt><trkpt lat="45.6194785" lon="11.5524267"><ele>46.0</ele><time>2026-04-11T16:36:08.619Z</time></trkpt><trkpt lat="45.6195023" lon="11.5525117"><ele>46.0</ele><time>2026-04-11T16:36:10.62Z</time></trkpt><trkpt lat="45.6195301" lon="11.5526164"><ele>46.0</ele><time>2026-04-11T16:36:12.621Z</time></trkpt><trkpt lat="45.6195532" lon="11.5527133"><ele>46.0</ele><time>2026-04-11T16:36:14.623Z</time></trkpt><trkpt lat="45.6195767" lon="11.5528093"><ele>45.85714285714286</ele><time>2026-04-11T16:36:16.617Z</time></trkpt><trkpt lat="45.6196016" lon="11.5529086"><ele>45.71428571428571</ele><time>2026-04-11T16:36:18.623Z</time></trkpt><trkpt lat="45.6196266" lon="11.553002"><ele>45.57142857142857</ele><time>2026-04-11T16:36:20.622Z</time></trkpt><trkpt lat="45.619653" lon="11.5530843"><ele>45.42857142857143</ele><time>2026-04-11T16:36:22.624Z</time></trkpt><trkpt lat="45.619684" lon="11.5532023"><ele>45.28571428571429</ele><time>2026-04-11T16:36:25.623Z</time></trkpt><trkpt lat="45.6197025" lon="11.553291"><ele>45.14285714285714</ele><time>2026-04-11T16:36:27.619Z</time></trkpt><trkpt lat="45.6197221" lon="11.5533868"><ele>45.0</ele><time>2026-04-11T16:36:29.623Z</time></trkpt><trkpt lat="45.6197464" lon="11.5534987"><ele>45.0</ele><time>2026-04-11T16:36:31.62Z</time></trkpt><trkpt lat="45.619777" lon="11.553624"><ele>45.0</ele><time>2026-04-11T16:36:33.62Z</time></trkpt><trkpt lat="45.6198103" lon="11.5537566"><ele>45.0</ele><time>2026-04-11T16:36:35.62Z</time></trkpt><trkpt lat="45.6198627" lon="11.5538323"><ele>45.0</ele><time>2026-04-11T16:36:37.614Z</time></trkpt><trkpt lat="45.6199272" lon="11.5538014"><ele>45.0</ele><time>2026-04-11T16:36:39.619Z</time></trkpt><trkpt lat="45.6199773" lon="11.5537323"><ele>45.0</ele><time>2026-04-11T16:36:41.622Z</time></trkpt><trkpt lat="45.6200342" lon="11.5536516"><ele>45.0</ele><time>2026-04-11T16:36:44.622Z</time></trkpt><trkpt lat="45.62012" lon="11.5536258"><ele>45.0</ele><time>2026-04-11T16:36:48.622Z</time></trkpt><trkpt lat="45.6201925" lon="11.5536124"><ele>45.0</ele><time>2026-04-11T16:36:51.623Z</time></trkpt><trkpt lat="45.6202667" lon="11.5535887"><ele>45.0</ele><time>2026-04-11T16:36:54.624Z</time></trkpt><trkpt lat="45.6203422" lon="11.553566"><ele>45.0</ele><time>2026-04-11T16:36:58.624Z</time></trkpt><trkpt lat="45.6204056" lon="11.5535389"><ele>45.0</ele><time>2026-04-11T16:37:01.62Z</time></trkpt><trkpt lat="45.6204728" lon="11.5535031"><ele>45.333333333333336</ele><time>2026-04-11T16:37:23.624Z</time></trkpt><trkpt lat="45.6205376" lon="11.5534951"><ele>45.666666666666664</ele><time>2026-04-11T16:37:26.623Z</time></trkpt><trkpt lat="45.6206103" lon="11.553488"><ele>46.0</ele><time>2026-04-11T16:37:29.623Z</time></trkpt><trkpt lat="45.6206866" lon="11.5534766"><ele>46.33333333333333</ele><time>2026-04-11T16:37:32.619Z</time></trkpt><trkpt lat="45.6207754" lon="11.5534516"><ele>46.666666666666664</ele><time>2026-04-11T16:37:35.62Z</time></trkpt><trkpt lat="45.6208409" lon="11.5534385"><ele>47.0</ele><time>2026-04-11T16:37:37.618Z</time></trkpt><trkpt lat="45.6209224" lon="11.5534265"><ele>47.0</ele><time>2026-04-11T16:37:40.619Z</time></trkpt><trkpt lat="45.6209834" lon="11.5534022"><ele>47.0</ele><time>2026-04-11T16:37:47.62Z</time></trkpt><trkpt lat="45.6210494" lon="11.5533541"><ele>47.0</ele><time>2026-04-11T16:37:51.62Z</time></trkpt><trkpt lat="45.6211105" lon="11.5533291"><ele>47.0</ele><time>2026-04-11T16:37:54.622Z</time></trkpt><trkpt lat="45.6211849" lon="11.5532752"><ele>47.0</ele><time>2026-04-11T16:37:59.622Z</time></trkpt><trkpt lat="45.6212324" lon="11.5533485"><ele>47.0</ele><time>2026-04-11T16:38:19.622Z</time></trkpt><trkpt lat="45.6213135" lon="11.5533149"><ele>47.0</ele><time>2026-04-11T16:38:22.622Z</time></trkpt><trkpt lat="45.6214017" lon="11.553263"><ele>47.14285714285714</ele><time>2026-04-11T16:38:25.615Z</time></trkpt><trkpt lat="45.6214674" lon="11.5532471"><ele>47.285714285714285</ele><time>2026-04-11T16:38:27.62Z</time></trkpt><trkpt lat="45.6215322" lon="11.5532219"><ele>47.42857142857143</ele><time>2026-04-11T16:38:31.618Z</time></trkpt><trkpt lat="45.6216247" lon="11.5532044"><ele>47.57142857142857</ele><time>2026-04-11T16:38:35.619Z</time></trkpt><trkpt lat="45.6216889" lon="11.553161"><ele>47.714285714285715</ele><time>2026-04-11T16:38:38.618Z</time></trkpt><trkpt lat="45.621751" lon="11.5531365"><ele>47.857142857142854</ele><time>2026-04-11T16:38:42.619Z</time></trkpt><trkpt lat="45.6218142" lon="11.5530975"><ele>48.0</ele><time>2026-04-11T16:38:45.62Z</time></trkpt><trkpt lat="45.6218814" lon="11.5530798"><ele>47.99999999999999</ele><time>2026-04-11T16:38:48.62Z</time></trkpt><trkpt lat="45.6219541" lon="11.5530684"><ele>48.0</ele><time>2026-04-11T16:38:51.622Z</time></trkpt><trkpt lat="45.622025" lon="11.553051"><ele>48.0</ele><time>2026-04-11T16:38:54.621Z</time></trkpt><trkpt lat="45.62209" lon="11.5530382"><ele>48.0</ele><time>2026-04-11T16:38:57.619Z</time></trkpt><trkpt lat="45.6221633" lon="11.5530358"><ele>48.0</ele><time>2026-04-11T16:39:00.62Z</time></trkpt><trkpt lat="45.6222264" lon="11.5530349"><ele>47.99999999999999</ele><time>2026-04-11T16:39:02.62Z</time></trkpt><trkpt lat="45.6222884" lon="11.5530511"><ele>48.0</ele><time>2026-04-11T16:39:04.613Z</time></trkpt><trkpt lat="45.6223669" lon="11.5530774"><ele>48.0</ele><time>2026-04-11T16:39:07.618Z</time></trkpt><trkpt lat="45.622457" lon="11.5530854"><ele>48.0</ele><time>2026-04-11T16:39:10.62Z</time></trkpt><trkpt lat="45.6225384" lon="11.5531186"><ele>48.0</ele><time>2026-04-11T16:39:13.621Z</time></trkpt><trkpt lat="45.6226266" lon="11.5531482"><ele>48.0</ele><time>2026-04-11T16:39:16.618Z</time></trkpt><trkpt lat="45.622714" lon="11.5531802"><ele>48.0</ele><time>2026-04-11T16:39:19.62Z</time></trkpt><trkpt lat="45.6227922" lon="11.5532201"><ele>48.0</ele><time>2026-04-11T16:39:22.62Z</time></trkpt><trkpt lat="45.6228708" lon="11.553244"><ele>48.0</ele><time>2026-04-11T16:39:25.619Z</time></trkpt><trkpt lat="45.6229544" lon="11.5532642"><ele>48.0</ele><time>2026-04-11T16:39:28.62Z</time></trkpt><trkpt lat="45.6230389" lon="11.5532819"><ele>48.0</ele><time>2026-04-11T16:39:31.614Z</time></trkpt><trkpt lat="45.6231324" lon="11.5533096"><ele>48.0</ele><time>2026-04-11T16:39:34.62Z</time></trkpt><trkpt lat="45.6231944" lon="11.553348"><ele>48.0</ele><time>2026-04-11T16:39:36.619Z</time></trkpt><trkpt lat="45.623252" lon="11.5533878"><ele>48.0</ele><time>2026-04-11T16:39:38.62Z</time></trkpt><trkpt lat="45.6233316" lon="11.5534475"><ele>48.0</ele><time>2026-04-11T16:39:41.619Z</time></trkpt><trkpt lat="45.62341" lon="11.553491"><ele>48.0</ele><time>2026-04-11T16:39:44.621Z</time></trkpt><trkpt lat="45.6234951" lon="11.5535332"><ele>48.0</ele><time>2026-04-11T16:39:47.621Z</time></trkpt><trkpt lat="45.6235624" lon="11.5535542"><ele>48.0</ele><time>2026-04-11T16:39:49.622Z</time></trkpt><trkpt lat="45.6236307" lon="11.553576"><ele>48.0</ele><time>2026-04-11T16:39:51.621Z</time></trkpt><trkpt lat="45.6236974" lon="11.5535997"><ele>48.0</ele><time>2026-04-11T16:39:53.621Z</time></trkpt><trkpt lat="45.6237691" lon="11.553631"><ele>48.166666666666664</ele><time>2026-04-11T16:39:55.622Z</time></trkpt><trkpt lat="45.6238402" lon="11.5536453"><ele>48.33333333333333</ele><time>2026-04-11T16:39:57.62Z</time></trkpt><trkpt lat="45.623912" lon="11.5536456"><ele>48.5</ele><time>2026-04-11T16:39:59.623Z</time></trkpt><trkpt lat="45.6239936" lon="11.553652"><ele>48.666666666666664</ele><time>2026-04-11T16:40:01.617Z</time></trkpt><trkpt lat="45.6240676" lon="11.5536441"><ele>48.83333333333333</ele><time>2026-04-11T16:40:03.618Z</time></trkpt><trkpt lat="45.6241367" lon="11.5536335"><ele>49.0</ele><time>2026-04-11T16:40:05.618Z</time></trkpt><trkpt lat="45.6242149" lon="11.553606"><ele>49.0</ele><time>2026-04-11T16:40:08.616Z</time></trkpt><trkpt lat="45.6242808" lon="11.5535757"><ele>49.0</ele><time>2026-04-11T16:40:11.618Z</time></trkpt><trkpt lat="45.6243501" lon="11.5535666"><ele>49.0</ele><time>2026-04-11T16:40:15.621Z</time></trkpt><trkpt lat="45.624417" lon="11.5535607"><ele>49.0</ele><time>2026-04-11T16:40:19.62Z</time></trkpt><trkpt lat="45.6244837" lon="11.5535332"><ele>49.0</ele><time>2026-04-11T16:40:22.621Z</time></trkpt><trkpt lat="45.6245531" lon="11.5535099"><ele>49.0</ele><time>2026-04-11T16:40:25.618Z</time></trkpt><trkpt lat="45.6246097" lon="11.5534583"><ele>49.0</ele><time>2026-04-11T16:40:27.618Z</time></trkpt><trkpt lat="45.6246791" lon="11.5534072"><ele>48.857142857142854</ele><time>2026-04-11T16:40:29.618Z</time></trkpt><trkpt lat="45.6247405" lon="11.553361"><ele>48.714285714285715</ele><time>2026-04-11T16:40:31.615Z</time></trkpt><trkpt lat="45.624796" lon="11.5533179"><ele>48.57142857142857</ele><time>2026-04-11T16:40:33.616Z</time></trkpt><trkpt lat="45.6248615" lon="11.5532837"><ele>48.42857142857143</ele><time>2026-04-11T16:40:36.615Z</time></trkpt><trkpt lat="45.6249249" lon="11.5532529"><ele>48.285714285714285</ele><time>2026-04-11T16:40:39.615Z</time></trkpt><trkpt lat="45.6249985" lon="11.5532159"><ele>48.14285714285714</ele><time>2026-04-11T16:40:42.617Z</time></trkpt><trkpt lat="45.6250592" lon="11.5531743"><ele>48.0</ele><time>2026-04-11T16:40:44.618Z</time></trkpt><trkpt lat="45.6251382" lon="11.5531318"><ele>47.99999999999999</ele><time>2026-04-11T16:40:46.617Z</time></trkpt><trkpt lat="45.6251976" lon="11.5530986"><ele>48.0</ele><time>2026-04-11T16:40:48.618Z</time></trkpt><trkpt lat="45.625255" lon="11.5530604"><ele>48.0</ele><time>2026-04-11T16:40:50.618Z</time></trkpt><trkpt lat="45.6253189" lon="11.5530273"><ele>48.0</ele><time>2026-04-11T16:40:52.617Z</time></trkpt><trkpt lat="45.6253785" lon="11.5529847"><ele>48.0</ele><time>2026-04-11T16:40:54.619Z</time></trkpt><trkpt lat="45.6254537" lon="11.5529668"><ele>47.99999999999999</ele><time>2026-04-11T16:40:56.618Z</time></trkpt><trkpt lat="45.6255389" lon="11.5529476"><ele>48.0</ele><time>2026-04-11T16:40:58.615Z</time></trkpt><trkpt lat="45.6256114" lon="11.5529074"><ele>48.166666666666664</ele><time>2026-04-11T16:41:00.619Z</time></trkpt><trkpt lat="45.6256848" lon="11.552858"><ele>48.33333333333333</ele><time>2026-04-11T16:41:02.616Z</time></trkpt><trkpt lat="45.6257484" lon="11.5528099"><ele>48.5</ele><time>2026-04-11T16:41:04.618Z</time></trkpt><trkpt lat="45.6258168" lon="11.5527704"><ele>48.666666666666664</ele><time>2026-04-11T16:41:06.616Z</time></trkpt><trkpt lat="45.6258894" lon="11.5527354"><ele>48.83333333333333</ele><time>2026-04-11T16:41:08.611Z</time></trkpt><trkpt lat="45.6259576" lon="11.5526832"><ele>49.0</ele><time>2026-04-11T16:41:10.617Z</time></trkpt><trkpt lat="45.6260266" lon="11.5526469"><ele>48.99999999999999</ele><time>2026-04-11T16:41:12.618Z</time></trkpt><trkpt lat="45.6260917" lon="11.5526177"><ele>49.0</ele><time>2026-04-11T16:41:14.619Z</time></trkpt><trkpt lat="45.6261598" lon="11.5525796"><ele>49.0</ele><time>2026-04-11T16:41:16.619Z</time></trkpt><trkpt lat="45.62623" lon="11.552539"><ele>49.0</ele><time>2026-04-11T16:41:18.617Z</time></trkpt><trkpt lat="45.6262992" lon="11.5525004"><ele>48.99999999999999</ele><time>2026-04-11T16:41:20.62Z</time></trkpt><trkpt lat="45.6263898" lon="11.5524814"><ele>49.0</ele><time>2026-04-11T16:41:22.62Z</time></trkpt><trkpt lat="45.6264624" lon="11.5524538"><ele>49.166666666666664</ele><time>2026-04-11T16:41:24.619Z</time></trkpt><trkpt lat="45.6265432" lon="11.5524238"><ele>49.33333333333333</ele><time>2026-04-11T16:41:27.622Z</time></trkpt><trkpt lat="45.6266314" lon="11.5523772"><ele>49.5</ele><time>2026-04-11T16:41:30.62Z</time></trkpt><trkpt lat="45.6267069" lon="11.5523307"><ele>49.66666666666667</ele><time>2026-04-11T16:41:33.617Z</time></trkpt><trkpt lat="45.6267834" lon="11.5522944"><ele>49.833333333333336</ele><time>2026-04-11T16:41:37.62Z</time></trkpt><trkpt lat="45.6268608" lon="11.5522412"><ele>50.0</ele><time>2026-04-11T16:41:41.618Z</time></trkpt><trkpt lat="45.6269478" lon="11.5521935"><ele>50.00000000000001</ele><time>2026-04-11T16:41:44.618Z</time></trkpt><trkpt lat="45.6270416" lon="11.552134"><ele>50.0</ele><time>2026-04-11T16:41:47.62Z</time></trkpt><trkpt lat="45.6271166" lon="11.5520935"><ele>50.0</ele><time>2026-04-11T16:41:49.619Z</time></trkpt><trkpt lat="45.627184" lon="11.5520489"><ele>50.0</ele><time>2026-04-11T16:41:51.618Z</time></trkpt><trkpt lat="45.6272517" lon="11.5519929"><ele>50.00000000000001</ele><time>2026-04-11T16:41:53.619Z</time></trkpt><trkpt lat="45.6273254" lon="11.5519646"><ele>50.0</ele><time>2026-04-11T16:41:55.62Z</time></trkpt><trkpt lat="45.6273861" lon="11.5519252"><ele>50.28571428571429</ele><time>2026-04-11T16:41:57.62Z</time></trkpt><trkpt lat="45.6274417" lon="11.5518678"><ele>50.57142857142857</ele><time>2026-04-11T16:41:59.622Z</time></trkpt><trkpt lat="45.6274975" lon="11.55181"><ele>50.85714285714286</ele><time>2026-04-11T16:42:01.617Z</time></trkpt><trkpt lat="45.6275521" lon="11.5517568"><ele>51.142857142857146</ele><time>2026-04-11T16:42:03.62Z</time></trkpt><trkpt lat="45.6276035" lon="11.551688"><ele>51.42857142857143</ele><time>2026-04-11T16:42:06.617Z</time></trkpt><trkpt lat="45.6276503" lon="11.5515934"><ele>51.714285714285715</ele><time>2026-04-11T16:42:10.62Z</time></trkpt><trkpt lat="45.6277106" lon="11.5515253"><ele>52.0</ele><time>2026-04-11T16:42:13.621Z</time></trkpt><trkpt lat="45.6277781" lon="11.5514629"><ele>51.857142857142854</ele><time>2026-04-11T16:42:16.623Z</time></trkpt><trkpt lat="45.6278579" lon="11.5514019"><ele>51.714285714285715</ele><time>2026-04-11T16:42:19.619Z</time></trkpt><trkpt lat="45.6279113" lon="11.5513504"><ele>51.57142857142857</ele><time>2026-04-11T16:42:21.62Z</time></trkpt><trkpt lat="45.6279643" lon="11.5512946"><ele>51.42857142857143</ele><time>2026-04-11T16:42:23.618Z</time></trkpt><trkpt lat="45.6280238" lon="11.551247"><ele>51.28571428571429</ele><time>2026-04-11T16:42:25.622Z</time></trkpt><trkpt lat="45.6280863" lon="11.5512171"><ele>51.142857142857146</ele><time>2026-04-11T16:42:27.622Z</time></trkpt><trkpt lat="45.6281532" lon="11.5511852"><ele>51.0</ele><time>2026-04-11T16:42:29.623Z</time></trkpt><trkpt lat="45.6282253" lon="11.5511475"><ele>51.0</ele><time>2026-04-11T16:42:31.619Z</time></trkpt><trkpt lat="45.6282941" lon="11.5511153"><ele>51.0</ele><time>2026-04-11T16:42:33.62Z</time></trkpt><trkpt lat="45.6283835" lon="11.5510818"><ele>51.0</ele><time>2026-04-11T16:42:36.622Z</time></trkpt><trkpt lat="45.6284414" lon="11.5510461"><ele>51.0</ele><time>2026-04-11T16:42:38.623Z</time></trkpt><trkpt lat="45.6285044" lon="11.5509998"><ele>51.0</ele><time>2026-04-11T16:42:41.622Z</time></trkpt><trkpt lat="45.6285172" lon="11.5508866"><ele>51.0</ele><time>2026-04-11T16:42:45.623Z</time></trkpt><trkpt lat="45.6285191" lon="11.5507966"><ele>51.0</ele><time>2026-04-11T16:42:49.624Z</time></trkpt><trkpt lat="45.6285151" lon="11.5507059"><ele>51.0</ele><time>2026-04-11T16:42:53.624Z</time></trkpt><trkpt lat="45.628515" lon="11.5506144"><ele>51.0</ele><time>2026-04-11T16:43:01.62Z</time></trkpt><trkpt lat="45.6285123" lon="11.5505154"><ele>51.0</ele><time>2026-04-11T16:43:09.619Z</time></trkpt><trkpt lat="45.6285155" lon="11.5503987"><ele>51.0</ele><time>2026-04-11T16:43:13.622Z</time></trkpt><trkpt lat="45.6285097" lon="11.5502889"><ele>51.0</ele><time>2026-04-11T16:43:16.623Z</time></trkpt><trkpt lat="45.6285099" lon="11.550157"><ele>51.0</ele><time>2026-04-11T16:43:19.625Z</time></trkpt><trkpt lat="45.6285093" lon="11.5500669"><ele>51.0</ele><time>2026-04-11T16:43:21.623Z</time></trkpt><trkpt lat="45.6285228" lon="11.5499716"><ele>50.5</ele><time>2026-04-11T16:43:23.622Z</time></trkpt><trkpt lat="45.6285278" lon="11.5498699"><ele>50.0</ele><time>2026-04-11T16:43:25.621Z</time></trkpt><trkpt lat="45.6285337" lon="11.549766"><ele>49.5</ele><time>2026-04-11T16:43:27.623Z</time></trkpt><trkpt lat="45.6285351" lon="11.5496553"><ele>49.0</ele><time>2026-04-11T16:43:29.622Z</time></trkpt><trkpt lat="45.6285414" lon="11.5495385"><ele>48.5</ele><time>2026-04-11T16:43:31.62Z</time></trkpt><trkpt lat="45.6285516" lon="11.5494275"><ele>48.0</ele><time>2026-04-11T16:43:33.62Z</time></trkpt><trkpt lat="45.6285562" lon="11.5493305"><ele>48.0</ele><time>2026-04-11T16:43:35.619Z</time></trkpt><trkpt lat="45.628548" lon="11.5491947"><ele>48.0</ele><time>2026-04-11T16:43:38.618Z</time></trkpt><trkpt lat="45.6285498" lon="11.5490627"><ele>48.0</ele><time>2026-04-11T16:43:41.62Z</time></trkpt><trkpt lat="45.6285391" lon="11.5489428"><ele>48.0</ele><time>2026-04-11T16:43:44.62Z</time></trkpt><trkpt lat="45.6285394" lon="11.5488189"><ele>48.0</ele><time>2026-04-11T16:43:47.618Z</time></trkpt><trkpt lat="45.628535" lon="11.5487164"><ele>48.0</ele><time>2026-04-11T16:43:50.619Z</time></trkpt><trkpt lat="45.6285309" lon="11.5486058"><ele>48.333333333333336</ele><time>2026-04-11T16:43:53.619Z</time></trkpt><trkpt lat="45.6285421" lon="11.5484838"><ele>48.66666666666667</ele><time>2026-04-11T16:43:56.619Z</time></trkpt><trkpt lat="45.628541" lon="11.5483926"><ele>49.0</ele><time>2026-04-11T16:43:58.621Z</time></trkpt><trkpt lat="45.6285534" lon="11.548287"><ele>49.333333333333336</ele><time>2026-04-11T16:44:00.619Z</time></trkpt><trkpt lat="45.6285679" lon="11.5481904"><ele>49.66666666666667</ele><time>2026-04-11T16:44:02.616Z</time></trkpt><trkpt lat="45.6285734" lon="11.5480826"><ele>50.0</ele><time>2026-04-11T16:44:04.617Z</time></trkpt><trkpt lat="45.6285685" lon="11.5479672"><ele>49.50000000000001</ele><time>2026-04-11T16:44:06.617Z</time></trkpt><trkpt lat="45.6285564" lon="11.5478498"><ele>49.0</ele><time>2026-04-11T16:44:08.613Z</time></trkpt><trkpt lat="45.6285443" lon="11.5477469"><ele>48.5</ele><time>2026-04-11T16:44:10.614Z</time></trkpt><trkpt lat="45.6285327" lon="11.5476498"><ele>48.0</ele><time>2026-04-11T16:44:12.616Z</time></trkpt><trkpt lat="45.6285293" lon="11.5475495"><ele>47.5</ele><time>2026-04-11T16:44:14.618Z</time></trkpt><trkpt lat="45.6285309" lon="11.5474289"><ele>47.0</ele><time>2026-04-11T16:44:16.618Z</time></trkpt><trkpt lat="45.6285355" lon="11.5473126"><ele>47.0</ele><time>2026-04-11T16:44:18.619Z</time></trkpt><trkpt lat="45.6285224" lon="11.5472127"><ele>47.0</ele><time>2026-04-11T16:44:20.617Z</time></trkpt><trkpt lat="45.6285215" lon="11.547093"><ele>47.0</ele><time>2026-04-11T16:44:22.618Z</time></trkpt><trkpt lat="45.6285335" lon="11.5469785"><ele>47.0</ele><time>2026-04-11T16:44:24.619Z</time></trkpt><trkpt lat="45.6285397" lon="11.5468732"><ele>47.0</ele><time>2026-04-11T16:44:26.618Z</time></trkpt><trkpt lat="45.6285512" lon="11.5467603"><ele>47.0</ele><time>2026-04-11T16:44:28.62Z</time></trkpt><trkpt lat="45.6285543" lon="11.5466702"><ele>46.857142857142854</ele><time>2026-04-11T16:44:30.619Z</time></trkpt><trkpt lat="45.6285543" lon="11.5465686"><ele>46.71428571428571</ele><time>2026-04-11T16:44:32.618Z</time></trkpt><trkpt lat="45.6285577" lon="11.5464756"><ele>46.57142857142857</ele><time>2026-04-11T16:44:34.617Z</time></trkpt><trkpt lat="45.628553" lon="11.5463799"><ele>46.42857142857143</ele><time>2026-04-11T16:44:36.616Z</time></trkpt><trkpt lat="45.6285499" lon="11.5462741"><ele>46.285714285714285</ele><time>2026-04-11T16:44:38.614Z</time></trkpt><trkpt lat="45.6285449" lon="11.5461628"><ele>46.142857142857146</ele><time>2026-04-11T16:44:40.618Z</time></trkpt><trkpt lat="45.6285405" lon="11.5460508"><ele>46.0</ele><time>2026-04-11T16:44:42.617Z</time></trkpt><trkpt lat="45.6285313" lon="11.5459412"><ele>46.333333333333336</ele><time>2026-04-11T16:44:44.618Z</time></trkpt><trkpt lat="45.6285295" lon="11.5458292"><ele>46.66666666666667</ele><time>2026-04-11T16:44:46.619Z</time></trkpt><trkpt lat="45.6285244" lon="11.5456989"><ele>47.0</ele><time>2026-04-11T16:44:49.617Z</time></trkpt><trkpt lat="45.6285299" lon="11.545582"><ele>47.333333333333336</ele><time>2026-04-11T16:44:51.621Z</time></trkpt><trkpt lat="45.6285226" lon="11.5454863"><ele>47.666666666666664</ele><time>2026-04-11T16:44:53.621Z</time></trkpt><trkpt lat="45.6285185" lon="11.545391"><ele>48.0</ele><time>2026-04-11T16:44:55.62Z</time></trkpt><trkpt lat="45.6285216" lon="11.5452937"><ele>48.0</ele><time>2026-04-11T16:44:57.615Z</time></trkpt><trkpt lat="45.6285243" lon="11.5452007"><ele>48.0</ele><time>2026-04-11T16:44:59.622Z</time></trkpt><trkpt lat="45.628528" lon="11.5450816"><ele>48.0</ele><time>2026-04-11T16:45:02.619Z</time></trkpt><trkpt lat="45.6285356" lon="11.5449509"><ele>48.0</ele><time>2026-04-11T16:45:05.618Z</time></trkpt><trkpt lat="45.6285205" lon="11.5448118"><ele>48.0</ele><time>2026-04-11T16:45:08.62Z</time></trkpt><trkpt lat="45.6285116" lon="11.5447044"><ele>48.0</ele><time>2026-04-11T16:45:10.618Z</time></trkpt><trkpt lat="45.6285019" lon="11.5445777"><ele>47.833333333333336</ele><time>2026-04-11T16:45:12.62Z</time></trkpt><trkpt lat="45.6284999" lon="11.5444444"><ele>47.666666666666664</ele><time>2026-04-11T16:45:14.62Z</time></trkpt><trkpt lat="45.6284968" lon="11.5443223"><ele>47.5</ele><time>2026-04-11T16:45:16.62Z</time></trkpt><trkpt lat="45.6284871" lon="11.5442055"><ele>47.33333333333333</ele><time>2026-04-11T16:45:19.621Z</time></trkpt><trkpt lat="45.6285367" lon="11.5441397"><ele>47.166666666666664</ele><time>2026-04-11T16:45:23.62Z</time></trkpt><trkpt lat="45.628618" lon="11.5441531"><ele>47.0</ele><time>2026-04-11T16:45:27.618Z</time></trkpt><trkpt lat="45.6286949" lon="11.544164"><ele>47.0</ele><time>2026-04-11T16:45:30.623Z</time></trkpt><trkpt lat="45.6287626" lon="11.5441726"><ele>47.0</ele><time>2026-04-11T16:45:32.62Z</time></trkpt><trkpt lat="45.6288394" lon="11.5441687"><ele>47.0</ele><time>2026-04-11T16:45:34.619Z</time></trkpt><trkpt lat="45.6289097" lon="11.5441716"><ele>47.0</ele><time>2026-04-11T16:45:36.62Z</time></trkpt><trkpt lat="45.6289986" lon="11.5441762"><ele>47.0</ele><time>2026-04-11T16:45:39.619Z</time></trkpt><trkpt lat="45.6290827" lon="11.5442324"><ele>47.0</ele><time>2026-04-11T16:45:42.62Z</time></trkpt><trkpt lat="45.6291313" lon="11.5443216"><ele>47.0</ele><time>2026-04-11T16:45:44.622Z</time></trkpt><trkpt lat="45.6291899" lon="11.5444277"><ele>47.0</ele><time>2026-04-11T16:45:46.621Z</time></trkpt><trkpt lat="45.6292466" lon="11.5444967"><ele>47.0</ele><time>2026-04-11T16:45:49.621Z</time></trkpt><trkpt lat="45.6293069" lon="11.5445578"><ele>47.0</ele><time>2026-04-11T16:45:52.621Z</time></trkpt><trkpt lat="45.6293833" lon="11.5446252"><ele>47.0</ele><time>2026-04-11T16:45:55.617Z</time></trkpt><trkpt lat="45.6294707" lon="11.5446553"><ele>47.0</ele><time>2026-04-11T16:45:58.625Z</time></trkpt><trkpt lat="45.6295338" lon="11.5446694"><ele>47.285714285714285</ele><time>2026-04-11T16:46:00.623Z</time></trkpt><trkpt lat="45.6296022" lon="11.5446923"><ele>47.57142857142857</ele><time>2026-04-11T16:46:03.621Z</time></trkpt><trkpt lat="45.629667" lon="11.5446934"><ele>47.85714285714286</ele><time>2026-04-11T16:46:08.619Z</time></trkpt><trkpt lat="45.6297346" lon="11.5446845"><ele>48.14285714285714</ele><time>2026-04-11T16:46:12.619Z</time></trkpt><trkpt lat="45.6298167" lon="11.5446958"><ele>48.42857142857143</ele><time>2026-04-11T16:46:16.617Z</time></trkpt><trkpt lat="45.6298842" lon="11.5447032"><ele>48.714285714285715</ele><time>2026-04-11T16:46:19.619Z</time></trkpt><trkpt lat="45.6299583" lon="11.5447008"><ele>49.0</ele><time>2026-04-11T16:46:22.622Z</time></trkpt><trkpt lat="45.6300315" lon="11.5447239"><ele>48.99999999999999</ele><time>2026-04-11T16:46:25.621Z</time></trkpt><trkpt lat="45.6301016" lon="11.5447537"><ele>49.0</ele><time>2026-04-11T16:46:28.62Z</time></trkpt><trkpt lat="45.630177" lon="11.5447527"><ele>49.0</ele><time>2026-04-11T16:46:31.617Z</time></trkpt><trkpt lat="45.6302528" lon="11.5447739"><ele>49.0</ele><time>2026-04-11T16:46:34.611Z</time></trkpt><trkpt lat="45.6303261" lon="11.5447688"><ele>48.99999999999999</ele><time>2026-04-11T16:46:37.616Z</time></trkpt><trkpt lat="45.6304052" lon="11.5448059"><ele>49.0</ele><time>2026-04-11T16:46:40.615Z</time></trkpt><trkpt lat="45.6304873" lon="11.544841"><ele>49.166666666666664</ele><time>2026-04-11T16:46:43.617Z</time></trkpt><trkpt lat="45.6305565" lon="11.5448722"><ele>49.33333333333333</ele><time>2026-04-11T16:46:46.618Z</time></trkpt><trkpt lat="45.6306258" lon="11.544886"><ele>49.5</ele><time>2026-04-11T16:46:49.619Z</time></trkpt><trkpt lat="45.6307198" lon="11.544892"><ele>49.66666666666667</ele><time>2026-04-11T16:46:52.62Z</time></trkpt><trkpt lat="45.6308038" lon="11.5449149"><ele>49.833333333333336</ele><time>2026-04-11T16:46:55.619Z</time></trkpt><trkpt lat="45.6308801" lon="11.5449432"><ele>50.0</ele><time>2026-04-11T16:46:58.617Z</time></trkpt><trkpt lat="45.6309413" lon="11.5449739"><ele>50.00000000000001</ele><time>2026-04-11T16:47:01.619Z</time></trkpt><trkpt lat="45.631026" lon="11.5450174"><ele>50.0</ele><time>2026-04-11T16:47:05.618Z</time></trkpt><trkpt lat="45.6311217" lon="11.5450138"><ele>50.0</ele><time>2026-04-11T16:47:08.619Z</time></trkpt><trkpt lat="45.6311931" lon="11.5450281"><ele>50.0</ele><time>2026-04-11T16:47:10.616Z</time></trkpt><trkpt lat="45.6312685" lon="11.5450629"><ele>50.00000000000001</ele><time>2026-04-11T16:47:12.616Z</time></trkpt><trkpt lat="45.6313355" lon="11.5451033"><ele>50.0</ele><time>2026-04-11T16:47:14.618Z</time></trkpt><trkpt lat="45.631404" lon="11.5451494"><ele>50.142857142857146</ele><time>2026-04-11T16:47:16.619Z</time></trkpt><trkpt lat="45.6314659" lon="11.5451769"><ele>50.285714285714285</ele><time>2026-04-11T16:47:18.618Z</time></trkpt><trkpt lat="45.6315509" lon="11.5452058"><ele>50.42857142857143</ele><time>2026-04-11T16:47:21.618Z</time></trkpt><trkpt lat="45.6316233" lon="11.5452168"><ele>50.57142857142857</ele><time>2026-04-11T16:47:24.619Z</time></trkpt><trkpt lat="45.6316857" lon="11.5451882"><ele>50.714285714285715</ele><time>2026-04-11T16:47:28.617Z</time></trkpt><trkpt lat="45.6316906" lon="11.545073"><ele>50.85714285714286</ele><time>2026-04-11T16:47:34.617Z</time></trkpt><trkpt lat="45.6316972" lon="11.5449819"><ele>51.0</ele><time>2026-04-11T16:47:37.62Z</time></trkpt><trkpt lat="45.6317016" lon="11.544874"><ele>51.0</ele><time>2026-04-11T16:47:41.621Z</time></trkpt></trkseg></trk></gpx>